[[{"header":{"parameterUnit":"m.s-1","parameterCategory":1,"la1":31.0,"la2":29.5877,"lo1":-88.7671,"lo2":-86.6584,"dy":0.0162,"dx":0.0185,"nx":115,"ny":88,"refTime":"2023-10-19T18:00:00:Z","depth":0,"parameterNumber":2,"parameterNumberName":"U-component_of_WINDS"},"data":[0.0,0.0,0.0,0.0,0.0,0.0,0.0,0.0,0.0,0.0,0.0,0.0,0.0,0.0,0.0,0.0,0.0,0.0,0.0,0.0,0.0,0.0,0.0,0.0,0.0,0.0,0.0,0.0,0.0,0.0,0.0,0.0,0.0,0.0,0.0,0.0,0.0,0.0,0.0,0.0,0.0,0.0,0.0,0.0,0.0,0.0,0.0,0.0,0.0,0.0,0.0,0.0,0.0,0.0,0.0,0.0,0.0,0.0,0.0,0.0,0.0,0.0,0.0,0.0,0.0,0.0,0.0,0.0,0.0,0.0,0.0,0.0,0.0,0.0,0.0,0.0,0.0,0.0,0.0,0.0,0.0,0.0,0.0,0.0,0.0,0.0,0.0,0.0,0.0,0.0,0.0,0.0,0.0,0.0,0.0,0.0,0.0,0.0,0.0,0.0,0.0,0.0,0.0,0.0,0.0,0.0,0.0,0.0,0.0,0.0,0.0,0.0,0.0,0.0,0.0,0.0,0.0,0.0,0.0,0.0,0.0,0.0,0.0,0.0,0.0,0.0,0.0,0.0,0.0,0.0,0.0,0.0,0.0,0.0,0.0,0.0,0.0,0.0,0.0,0.0,0.0,0.0,0.0,0.0,0.0,0.0,0.0,0.0,0.0,0.0,0.0,0.0,0.0,0.0,0.0,0.0,0.0,0.0,0.0,0.0,0.0,0.0,0.0,0.0,0.0,0.0,0.0,0.0,0.0,0.0,0.0,0.0,0.0,0.0,0.0,0.0,0.0,0.0,0.0,0.0,0.0,0.0,0.0,0.0,0.0,0.0,0.0,0.0,0.0,0.0,0.0,0.0,0.0,0.0,0.0,0.0,0.0,0.0,0.0,0.0,0.0,0.0,0.0,0.0,0.0,0.0,0.0,0.0,0.0,0.0,0.0,0.0,0.0,0.0,0.0,0.0,0.0,0.0,0.0,0.0,0.0,0.0,0.0,0.0,0.0,0.0,0.0,0.0,0.0,0.0,0.0,0.0,0.0,0.0,0.0,0.0,0.0,0.0,0.0,0.0,0.0,0.0,0.0,0.0,0.0,0.0,0.0,0.0,0.0,0.0,0.0,0.0,0.0,0.0,0.0,0.0,0.0,0.0,0.0,0.0,0.0,0.0,0.0,0.0,0.0,0.0,0.0,0.0,0.0,0.0,0.0,0.0,0.0,0.0,0.0,0.0,0.0,0.0,0.0,0.0,0.0,0.0,0.0,0.0,0.0,0.0,0.0,0.0,0.0,0.0,0.0,0.0,0.0,0.0,0.0,0.0,0.0,0.0,0.0,0.0,0.0,0.0,0.0,0.0,0.0,0.0,0.0,0.0,0.0,0.0,0.0,0.0,0.0,0.0,0.0,0.0,0.0,0.0,0.0,0.0,0.0,0.0,0.0,0.0,0.0,0.0,0.0,0.0,0.0,0.0,0.0,0.0,0.0,0.0,0.0,0.0,0.0,0.0,0.0,0.0,0.0,0.0,0.0,0.0,0.0,0.0,0.0,0.0,0.0,0.0,0.0,0.0,0.0,0.0,0.0,0.0,0.0,0.0,0.0,0.0,0.0,0.0,0.0,0.0,0.0,0.0,0.0,0.0,0.0,0.0,0.0,0.0,0.0,0.0,0.0,0.0,0.0,0.0,0.0,0.0,0.0,0.0,0.0,0.0,0.0,0.0,0.0,0.0,0.0,0.0,0.0,0.0,0.0,0.0,0.0,0.0,0.0,0.0,0.0,0.0,0.0,0.0,0.0,0.0,0.0,0.0,0.0,0.0,0.0,0.0,0.0,0.0,0.0,0.0,0.0,0.0,0.0,0.0,0.0,0.0,0.0,0.0,0.0,0.0,0.0,0.0,0.0,0.0,0.0,0.0,0.0,0.0,0.0,0.0,0.0,0.0,0.0,0.0,0.0,0.0,0.0,0.0,0.0,0.0,0.0,0.0,0.0,0.0,0.0,0.0,0.0,0.0,0.0,0.0,0.0,0.0,0.0,0.0,0.0,0.0,0.0,0.0,0.0,0.0,0.0,0.0,0.0,0.0,0.0,0.0,0.0,0.0,0.0,0.0,0.0,0.0,0.0,0.0,0.0,0.0,0.0,0.0,0.0,0.0,0.0,0.0,0.0,0.0,0.0,0.0,0.0,0.0,0.0,0.0,0.0,0.0,0.0,0.0,0.0,0.0,0.0,0.0,0.0,0.0,0.0,0.0,0.0,0.0,0.0,0.0,0.0,0.0,0.0,0.0,0.0,0.0,0.0,0.0,0.0,0.0,0.0,0.0,0.0,0.0,0.0,0.0,0.0,0.0,0.0,0.0,0.0,0.0,0.0,0.0,0.0,0.0,0.0,0.0,0.0,0.0,0.0,0.0,0.0,0.0,0.0,0.0,0.0,0.0,0.0,0.0,0.0,0.0,0.0,0.0,0.0,0.0,0.0,0.0,0.0,0.0,0.0,0.0,0.0,0.0,0.0,0.0,0.0,0.0,0.0,0.0,0.0,0.0,0.0,0.0,0.0,0.0,0.0,0.0,0.0,0.0,0.0,0.0,0.0,0.0,0.0,0.0,0.0,0.0,0.0,0.0,0.0,0.0,0.0,0.0,0.0,0.0,0.0,0.0,0.0,0.0,0.0,0.0,0.0,0.0,0.0,0.0,0.0,0.0,0.0,0.0,0.0,0.0,0.0,0.0,0.0,0.0,0.0,0.0,0.0,0.0,0.0,0.0,0.0,0.0,0.0,0.0,0.0,0.0,0.0,0.0,0.0,0.0,0.0,0.0,0.0,0.0,0.0,0.0,0.0,0.0,0.0,0.0,0.0,0.0,0.0,0.0,0.0,0.0,0.0,0.0,0.0,0.0,0.0,0.0,0.0,0.0,0.0,0.0,0.0,0.0,0.0,0.0,0.0,0.0,0.0,0.0,0.0,0.0,0.0,0.0,0.0,0.0,0.0,0.0,0.0,0.0,0.0,0.0,0.0,0.0,0.0,0.0,0.0,0.0,0.0,0.0,0.0,0.0,0.0,0.0,0.0,0.0,0.0,0.0,0.0,0.0,0.0,0.0,0.0,0.0,0.0,0.0,0.0,0.0,0.0,0.0,0.0,0.0,0.0,0.0,0.0,0.0,0.0,0.0,0.0,0.0,0.0,0.0,0.0,0.0,0.0,0.0,0.0,0.0,0.0,0.0,0.0,0.0,0.0,0.0,0.0,0.0,0.0,0.0,0.0,0.0,0.0,0.0,0.0,0.0,0.0,0.0,0.0,0.0,0.0,0.0,0.0,0.0,0.0,0.0,0.0,0.0,0.0,0.0,0.0,0.0,0.0,0.0,0.0,0.0,0.0,0.0,0.0,0.0,0.0,0.0,0.0,0.0,0.0,0.0,0.0,0.0,0.0,0.0,0.0,0.0,0.0,0.0,0.0,0.0,0.0,0.0,0.0,0.0,0.0,0.0,0.0,0.0,0.0,0.0,0.0,0.0,0.0,0.0,0.0,0.0,0.0,0.0,0.0,0.0,0.0,0.0,0.0,0.0,0.0,0.0,0.0,0.0,0.0,0.0,0.0,0.0,0.0,0.0,0.0,0.0,0.0,0.0,0.0,0.0,0.0,0.0,0.0,0.0,0.0,0.0,0.0,0.0,0.0,0.0,0.0,0.0,0.0,0.0,0.0,0.0,0.0,0.0,0.0,0.0,0.0,0.0,0.0,0.0,0.0,0.0,0.0,0.0,0.0,0.0,0.0,0.0,0.0,0.0,0.0,0.0,0.0,0.0,0.0,0.0,0.0,0.0,0.0,0.0,0.0,0.0,0.0,0.0,0.0,0.0,0.0,0.0,0.0,0.0,0.0,0.0,0.0,0.0,0.0,0.0,0.0,0.0,0.0,0.0,0.0,0.0,0.0,0.0,0.0,0.0,0.0,0.0,0.0,0.0,0.0,0.0,0.0,0.0,0.0,0.0,0.0,0.0,0.0,0.0,0.0,0.0,0.0,0.0,0.0,0.0,0.0,0.0,0.0,0.0,0.0,0.0,0.0,0.0,0.0,0.0,0.0,0.0,0.0,0.0,0.0,0.0,0.0,0.0,0.0,0.0,0.0,0.0,0.0,0.0,0.0,0.0,0.0,0.0,0.0,0.0,0.0,0.0,0.0,0.0,0.0,0.0,0.0,0.0,0.0,0.0,0.0,0.0,0.0,0.0,0.0,0.0,0.0,0.0,0.0,0.0,0.0,0.0,0.0,0.0,0.0,0.0,-2.85,0.0,0.0,0.0,0.0,0.0,0.0,0.0,0.0,0.0,0.0,0.0,0.0,0.0,0.0,0.0,0.0,0.0,0.0,0.0,0.0,0.0,0.0,0.0,0.0,0.0,0.0,0.0,0.0,0.0,0.0,0.0,0.0,0.0,0.0,0.0,0.0,0.0,0.0,0.0,0.0,0.0,0.0,0.0,0.0,0.0,0.0,0.0,0.0,0.0,0.0,0.0,0.0,0.0,0.0,0.0,0.0,0.0,0.0,0.0,0.0,0.0,0.0,0.0,0.0,0.0,0.0,0.0,0.0,0.0,0.0,0.0,0.0,0.0,0.0,0.0,0.0,0.0,0.0,0.0,0.0,0.0,0.0,0.0,0.0,0.0,0.0,0.0,0.0,0.0,0.0,0.0,0.0,0.0,0.0,0.0,0.0,0.0,0.0,0.0,0.0,0.0,0.0,0.0,0.0,0.0,0.0,0.0,0.0,0.0,0.0,-2.9891,-2.9684,-2.9684,-2.9456,-2.9001,0.0,0.0,0.0,0.0,0.0,0.0,0.0,0.0,0.0,0.0,0.0,0.0,0.0,0.0,0.0,0.0,0.0,0.0,0.0,0.0,0.0,0.0,0.0,0.0,0.0,0.0,0.0,0.0,0.0,0.0,0.0,0.0,0.0,0.0,0.0,0.0,0.0,0.0,0.0,0.0,0.0,0.0,0.0,0.0,0.0,0.0,0.0,0.0,0.0,0.0,0.0,0.0,0.0,0.0,0.0,0.0,0.0,0.0,0.0,0.0,0.0,0.0,0.0,0.0,0.0,0.0,0.0,0.0,0.0,0.0,0.0,0.0,0.0,0.0,0.0,0.0,0.0,0.0,0.0,0.0,0.0,0.0,0.0,0.0,0.0,0.0,0.0,0.0,0.0,0.0,0.0,0.0,0.0,0.0,0.0,0.0,0.0,0.0,0.0,0.0,0.0,0.0,0.0,0.0,0.0,0.0,0.0,0.0,0.0,0.0,0.0,0.0,-2.9994,-2.9829,-2.9477,0.0,0.0,0.0,0.0,0.0,0.0,0.0,0.0,0.0,0.0,0.0,0.0,0.0,0.0,0.0,0.0,0.0,0.0,0.0,0.0,0.0,0.0,0.0,0.0,0.0,0.0,0.0,0.0,0.0,0.0,0.0,0.0,0.0,0.0,0.0,0.0,0.0,0.0,0.0,0.0,0.0,0.0,0.0,0.0,0.0,0.0,0.0,0.0,0.0,0.0,0.0,0.0,0.0,0.0,0.0,0.0,0.0,0.0,0.0,0.0,0.0,0.0,0.0,0.0,0.0,0.0,0.0,0.0,0.0,0.0,0.0,0.0,0.0,0.0,0.0,0.0,0.0,0.0,0.0,0.0,0.0,0.0,0.0,0.0,0.0,0.0,0.0,0.0,0.0,0.0,0.0,0.0,0.0,0.0,0.0,0.0,0.0,0.0,0.0,0.0,0.0,0.0,0.0,0.0,0.0,0.0,0.0,0.0,0.0,0.0,-2.9994,-2.9994,-2.9994,0.0,-2.9911,0.0,0.0,0.0,0.0,0.0,0.0,0.0,0.0,0.0,0.0,0.0,0.0,0.0,0.0,0.0,0.0,0.0,0.0,0.0,0.0,0.0,0.0,0.0,0.0,0.0,0.0,0.0,0.0,0.0,0.0,0.0,0.0,0.0,0.0,0.0,0.0,0.0,0.0,0.0,0.0,0.0,0.0,0.0,0.0,0.0,0.0,0.0,0.0,0.0,0.0,0.0,0.0,0.0,0.0,0.0,0.0,0.0,0.0,0.0,0.0,0.0,0.0,0.0,0.0,0.0,0.0,0.0,0.0,0.0,0.0,0.0,0.0,0.0,0.0,0.0,0.0,0.0,0.0,0.0,0.0,0.0,0.0,0.0,0.0,0.0,0.0,0.0,0.0,0.0,0.0,0.0,0.0,0.0,0.0,0.0,0.0,0.0,0.0,0.0,0.0,0.0,0.0,0.0,0.0,0.0,0.0,0.0,0.0,0.0,0.0,-2.9994,-2.9994,-2.9994,-2.9994,0.0,0.0,0.0,0.0,0.0,0.0,0.0,0.0,0.0,0.0,0.0,0.0,0.0,0.0,0.0,0.0,0.0,0.0,0.0,0.0,0.0,0.0,0.0,0.0,0.0,0.0,0.0,0.0,0.0,0.0,0.0,0.0,0.0,0.0,0.0,0.0,0.0,0.0,0.0,0.0,0.0,0.0,0.0,0.0,0.0,0.0,0.0,0.0,0.0,0.0,0.0,0.0,0.0,0.0,0.0,0.0,0.0,0.0,0.0,0.0,0.0,0.0,0.0,0.0,0.0,0.0,0.0,0.0,0.0,0.0,0.0,0.0,0.0,0.0,0.0,0.0,0.0,0.0,0.0,0.0,0.0,0.0,0.0,0.0,0.0,0.0,0.0,0.0,0.0,0.0,0.0,0.0,0.0,0.0,0.0,0.0,0.0,0.0,0.0,0.0,0.0,0.0,0.0,0.0,0.0,0.0,0.0,0.0,0.0,0.0,-2.9994,-2.9994,-2.9994,-2.9994,-2.9994,-2.9994,0.0,0.0,0.0,0.0,0.0,0.0,0.0,0.0,0.0,0.0,0.0,0.0,0.0,0.0,0.0,0.0,0.0,0.0,0.0,0.0,0.0,0.0,0.0,0.0,0.0,0.0,0.0,0.0,0.0,0.0,0.0,0.0,0.0,0.0,0.0,0.0,0.0,0.0,0.0,0.0,0.0,0.0,0.0,0.0,0.0,0.0,0.0,0.0,0.0,0.0,0.0,0.0,0.0,0.0,0.0,0.0,0.0,0.0,0.0,0.0,0.0,0.0,0.0,0.0,0.0,0.0,0.0,0.0,0.0,0.0,0.0,0.0,0.0,0.0,0.0,0.0,0.0,0.0,0.0,0.0,0.0,0.0,0.0,0.0,0.0,0.0,0.0,0.0,0.0,0.0,0.0,0.0,0.0,0.0,0.0,0.0,0.0,0.0,0.0,0.0,0.0,0.0,0.0,0.0,0.0,0.0,0.0,0.0,-2.9994,-2.9994,-2.9994,-2.9994,-2.9994,-2.9994,0.0,0.0,0.0,0.0,0.0,0.0,0.0,0.0,0.0,0.0,0.0,0.0,0.0,0.0,0.0,0.0,0.0,0.0,0.0,0.0,0.0,0.0,0.0,0.0,0.0,0.0,0.0,0.0,0.0,0.0,0.0,0.0,0.0,0.0,0.0,0.0,0.0,0.0,0.0,0.0,0.0,0.0,0.0,0.0,0.0,0.0,0.0,0.0,0.0,0.0,0.0,0.0,0.0,0.0,0.0,0.0,0.0,0.0,0.0,0.0,0.0,0.0,0.0,0.0,0.0,0.0,0.0,0.0,0.0,0.0,0.0,0.0,0.0,0.0,0.0,0.0,0.0,0.0,0.0,0.0,0.0,0.0,0.0,0.0,0.0,0.0,0.0,0.0,0.0,0.0,0.0,0.0,0.0,0.0,0.0,0.0,0.0,0.0,0.0,0.0,0.0,0.0,0.0,0.0,0.0,0.0,0.0,0.0,0.0,-2.9994,-2.9994,-2.9994,-2.9994,-2.9994,-2.9994,0.0,0.0,0.0,0.0,0.0,0.0,0.0,0.0,0.0,0.0,0.0,0.0,0.0,0.0,0.0,0.0,0.0,0.0,0.0,0.0,0.0,0.0,0.0,0.0,0.0,0.0,0.0,0.0,0.0,0.0,0.0,0.0,0.0,0.0,0.0,0.0,0.0,0.0,0.0,0.0,0.0,0.0,0.0,0.0,0.0,0.0,0.0,0.0,0.0,0.0,0.0,0.0,0.0,0.0,0.0,0.0,0.0,0.0,0.0,0.0,0.0,0.0,0.0,0.0,0.0,0.0,0.0,0.0,0.0,0.0,0.0,0.0,0.0,0.0,0.0,0.0,0.0,0.0,0.0,0.0,0.0,0.0,0.0,0.0,0.0,0.0,0.0,0.0,0.0,0.0,0.0,0.0,0.0,0.0,0.0,0.0,0.0,0.0,0.0,0.0,0.0,0.0,0.0,0.0,0.0,0.0,0.0,0.0,0.0,-2.9994,0.0,-2.9994,-2.9994,-2.9994,-2.9994,0.0,0.0,0.0,0.0,0.0,0.0,0.0,0.0,0.0,0.0,0.0,0.0,0.0,0.0,0.0,0.0,0.0,0.0,0.0,0.0,0.0,0.0,0.0,0.0,0.0,0.0,0.0,0.0,0.0,0.0,0.0,0.0,0.0,0.0,0.0,0.0,0.0,0.0,0.0,0.0,0.0,0.0,0.0,0.0,0.0,0.0,0.0,0.0,0.0,0.0,0.0,0.0,0.0,0.0,0.0,0.0,0.0,0.0,0.0,0.0,0.0,0.0,0.0,0.0,0.0,0.0,0.0,0.0,0.0,0.0,0.0,0.0,0.0,0.0,0.0,0.0,0.0,0.0,0.0,0.0,0.0,0.0,0.0,0.0,0.0,0.0,0.0,0.0,0.0,0.0,0.0,0.0,0.0,0.0,0.0,0.0,0.0,0.0,0.0,0.0,0.0,0.0,0.0,0.0,0.0,0.0,0.0,0.0,-2.9994,-2.9994,-2.9994,-2.9994,-2.9994,-2.9994,-2.9994,0.0,0.0,0.0,0.0,0.0,0.0,0.0,0.0,0.0,0.0,0.0,0.0,0.0,0.0,0.0,0.0,0.0,0.0,0.0,0.0,0.0,0.0,0.0,0.0,0.0,0.0,0.0,0.0,0.0,0.0,0.0,0.0,0.0,0.0,0.0,0.0,0.0,0.0,0.0,0.0,0.0,0.0,0.0,0.0,0.0,0.0,0.0,0.0,0.0,0.0,0.0,0.0,0.0,0.0,0.0,0.0,0.0,0.0,0.0,0.0,0.0,0.0,0.0,0.0,0.0,0.0,0.0,0.0,0.0,0.0,0.0,0.0,0.0,0.0,0.0,0.0,0.0,0.0,0.0,0.0,0.0,0.0,0.0,0.0,0.0,0.0,0.0,0.0,0.0,0.0,0.0,0.0,0.0,0.0,0.0,0.0,0.0,0.0,0.0,0.0,0.0,0.0,0.0,0.0,0.0,0.0,0.0,0.0,0.0,-2.9994,-2.9994,-2.9994,-2.9994,-2.9994,-2.9994,0.0,0.0,0.0,0.0,0.0,0.0,0.0,0.0,0.0,0.0,0.0,0.0,0.0,0.0,0.0,0.0,0.0,0.0,0.0,0.0,0.0,0.0,0.0,0.0,0.0,0.0,0.0,0.0,0.0,0.0,0.0,0.0,0.0,0.0,0.0,0.0,0.0,0.0,0.0,0.0,0.0,0.0,0.0,0.0,0.0,0.0,0.0,0.0,0.0,0.0,0.0,0.0,0.0,0.0,0.0,0.0,0.0,0.0,0.0,0.0,0.0,0.0,0.0,0.0,0.0,0.0,0.0,0.0,0.0,0.0,0.0,0.0,0.0,0.0,0.0,0.0,0.0,0.0,0.0,0.0,0.0,0.0,0.0,0.0,0.0,0.0,0.0,0.0,0.0,0.0,0.0,0.0,0.0,0.0,0.0,0.0,0.0,0.0,0.0,0.0,0.0,0.0,0.0,0.0,0.0,0.0,0.0,0.0,0.0,-2.9994,-2.9994,-2.9994,-2.9994,-2.9994,-2.9994,-2.9994,0.0,0.0,0.0,0.0,0.0,0.0,0.0,0.0,0.0,0.0,0.0,0.0,0.0,0.0,0.0,0.0,0.0,0.0,0.0,0.0,0.0,0.0,0.0,0.0,0.0,0.0,0.0,0.0,0.0,0.0,0.0,0.0,0.0,0.0,0.0,0.0,0.0,0.0,0.0,0.0,0.0,0.0,0.0,0.0,0.0,0.0,0.0,0.0,0.0,0.0,0.0,0.0,0.0,0.0,0.0,0.0,0.0,0.0,0.0,0.0,0.0,0.0,0.0,0.0,0.0,0.0,0.0,0.0,0.0,0.0,0.0,0.0,0.0,0.0,0.0,0.0,0.0,0.0,0.0,0.0,0.0,0.0,0.0,0.0,0.0,0.0,0.0,0.0,0.0,0.0,0.0,0.0,0.0,0.0,0.0,0.0,0.0,0.0,0.0,0.0,0.0,0.0,0.0,0.0,0.0,0.0,0.0,0.0,-2.9994,-2.9994,-2.9994,-2.9994,-2.9994,-2.9994,0.0,0.0,0.0,0.0,0.0,0.0,0.0,0.0,0.0,0.0,0.0,0.0,0.0,0.0,0.0,0.0,0.0,0.0,0.0,0.0,0.0,0.0,0.0,0.0,0.0,0.0,0.0,0.0,0.0,0.0,0.0,0.0,0.0,0.0,0.0,0.0,0.0,0.0,0.0,0.0,0.0,0.0,0.0,0.0,0.0,0.0,0.0,0.0,0.0,0.0,0.0,0.0,0.0,0.0,0.0,0.0,0.0,0.0,0.0,0.0,0.0,0.0,0.0,0.0,0.0,0.0,0.0,0.0,0.0,0.0,0.0,0.0,0.0,0.0,0.0,0.0,0.0,0.0,0.0,0.0,0.0,0.0,0.0,0.0,0.0,0.0,0.0,0.0,0.0,0.0,0.0,0.0,0.0,0.0,0.0,0.0,0.0,0.0,0.0,0.0,0.0,0.0,0.0,0.0,0.0,0.0,0.0,0.0,0.0,-2.9994,-2.9994,-2.9994,-2.9994,-2.9994,-2.9994,0.0,0.0,0.0,0.0,0.0,0.0,0.0,0.0,0.0,0.0,0.0,0.0,0.0,0.0,0.0,0.0,0.0,0.0,0.0,0.0,0.0,0.0,0.0,0.0,0.0,0.0,0.0,0.0,0.0,0.0,0.0,0.0,0.0,0.0,0.0,0.0,0.0,0.0,0.0,0.0,0.0,0.0,0.0,0.0,0.0,0.0,0.0,0.0,0.0,0.0,0.0,0.0,0.0,0.0,0.0,0.0,0.0,0.0,0.0,0.0,0.0,0.0,0.0,0.0,0.0,0.0,0.0,0.0,0.0,0.0,0.0,0.0,0.0,0.0,0.0,0.0,0.0,0.0,0.0,0.0,0.0,0.0,0.0,0.0,0.0,0.0,0.0,0.0,0.0,0.0,0.0,0.0,0.0,0.0,0.0,0.0,0.0,0.0,0.0,0.0,0.0,0.0,0.0,0.0,0.0,0.0,0.0,0.0,-2.9994,-2.9994,-2.9994,-2.9994,-2.9994,-2.9994,-2.9994,0.0,0.0,0.0,0.0,0.0,0.0,0.0,0.0,0.0,0.0,0.0,0.0,0.0,0.0,0.0,0.0,0.0,0.0,0.0,0.0,0.0,0.0,0.0,0.0,0.0,0.0,0.0,0.0,0.0,0.0,0.0,0.0,0.0,0.0,0.0,0.0,0.0,0.0,0.0,0.0,0.0,0.0,0.0,0.0,0.0,0.0,0.0,0.0,0.0,0.0,0.0,0.0,0.0,0.0,0.0,0.0,0.0,0.0,0.0,0.0,0.0,0.0,0.0,0.0,0.0,0.0,0.0,0.0,0.0,0.0,0.0,0.0,0.0,0.0,0.0,0.0,0.0,0.0,0.0,0.0,0.0,0.0,0.0,0.0,0.0,0.0,0.0,0.0,0.0,0.0,0.0,0.0,0.0,0.0,0.0,0.0,0.0,0.0,0.0,0.0,0.0,0.0,0.0,0.0,0.0,0.0,0.0,0.0,-2.9916,-2.9942,-2.9968,-2.9942,-2.9968,-2.9994,-2.9994,0.0,0.0,0.0,0.0,0.0,0.0,0.0,0.0,0.0,0.0,0.0,0.0,0.0,0.0,0.0,0.0,0.0,0.0,0.0,0.0,0.0,0.0,0.0,0.0,0.0,0.0,0.0,0.0,0.0,0.0,0.0,0.0,0.0,0.0,0.0,0.0,0.0,0.0,0.0,0.0,0.0,0.0,0.0,0.0,0.0,0.0,0.0,0.0,0.0,0.0,0.0,0.0,0.0,0.0,0.0,0.0,0.0,0.0,0.0,0.0,0.0,0.0,0.0,0.0,0.0,0.0,0.0,0.0,0.0,0.0,0.0,0.0,0.0,0.0,0.0,0.0,0.0,0.0,0.0,0.0,0.0,0.0,0.0,0.0,0.0,0.0,0.0,0.0,0.0,0.0,0.0,0.0,0.0,0.0,0.0,0.0,0.0,0.0,0.0,0.0,0.0,0.0,0.0,0.0,0.0,0.0,0.0,0.0,-2.9422,-2.9659,-2.9685,-2.9685,-2.9685,-2.9889,-2.9994,0.0,0.0,0.0,0.0,0.0,0.0,0.0,0.0,0.0,0.0,0.0,0.0,0.0,0.0,0.0,0.0,0.0,0.0,0.0,0.0,0.0,0.0,0.0,0.0,0.0,0.0,0.0,0.0,0.0,0.0,0.0,0.0,0.0,0.0,0.0,0.0,0.0,0.0,0.0,0.0,0.0,0.0,0.0,0.0,0.0,0.0,0.0,0.0,-2.1361,0.0,0.0,0.0,0.0,0.0,0.0,0.0,0.0,0.0,0.0,0.0,0.0,0.0,0.0,0.0,0.0,0.0,0.0,0.0,0.0,0.0,0.0,0.0,0.0,0.0,0.0,0.0,0.0,0.0,0.0,0.0,0.0,0.0,0.0,0.0,0.0,0.0,0.0,0.0,0.0,0.0,0.0,0.0,0.0,0.0,0.0,0.0,0.0,0.0,0.0,0.0,0.0,0.0,0.0,0.0,0.0,0.0,0.0,0.0,-2.9433,-2.9343,-2.9369,-2.9369,-2.9396,-2.9501,-2.958,0.0,0.0,0.0,0.0,0.0,0.0,0.0,0.0,0.0,0.0,0.0,0.0,0.0,0.0,0.0,0.0,0.0,0.0,0.0,0.0,0.0,0.0,0.0,0.0,0.0,0.0,0.0,0.0,0.0,0.0,0.0,0.0,0.0,0.0,0.0,0.0,0.0,0.0,0.0,0.0,0.0,0.0,0.0,0.0,0.0,0.0,0.0,0.0,0.0,0.0,0.0,0.0,0.0,0.0,0.0,0.0,0.0,0.0,0.0,0.0,0.0,0.0,0.0,0.0,0.0,0.0,0.0,0.0,0.0,0.0,0.0,0.0,0.0,0.0,0.0,0.0,0.0,0.0,0.0,0.0,0.0,0.0,0.0,0.0,0.0,0.0,0.0,0.0,0.0,0.0,0.0,0.0,0.0,0.0,0.0,0.0,0.0,0.0,0.0,0.0,0.0,0.0,0.0,0.0,0.0,0.0,0.0,-2.9679,-2.9526,-2.9246,-2.9193,-2.9153,-2.9153,-2.9073,-2.9073,-2.9073,0.0,0.0,0.0,0.0,0.0,0.0,0.0,0.0,0.0,0.0,0.0,0.0,0.0,0.0,0.0,0.0,0.0,0.0,0.0,0.0,0.0,0.0,0.0,0.0,0.0,0.0,0.0,0.0,0.0,0.0,0.0,0.0,0.0,0.0,0.0,0.0,0.0,0.0,-2.3725,-2.3203,0.0,0.0,0.0,0.0,0.0,0.0,0.0,0.0,-2.1203,0.0,0.0,0.0,0.0,0.0,0.0,0.0,0.0,0.0,0.0,0.0,0.0,0.0,0.0,0.0,0.0,0.0,0.0,0.0,0.0,0.0,0.0,0.0,0.0,0.0,0.0,0.0,0.0,0.0,0.0,0.0,0.0,0.0,0.0,0.0,0.0,0.0,0.0,0.0,0.0,0.0,0.0,0.0,0.0,0.0,0.0,0.0,0.0,0.0,0.0,0.0,0.0,0.0,0.0,0.0,0.0,-2.9222,-2.9222,-2.9434,-2.9826,-2.9515,-2.9337,-2.9337,-2.91,-2.8944,-2.8925,0.0,0.0,0.0,0.0,0.0,0.0,0.0,0.0,0.0,0.0,0.0,0.0,0.0,0.0,0.0,0.0,0.0,0.0,0.0,0.0,0.0,0.0,0.0,0.0,0.0,0.0,0.0,0.0,0.0,0.0,0.0,0.0,0.0,0.0,0.0,0.0,0.0,0.0,0.0,-2.2485,-2.2144,0.0,0.0,0.0,0.0,0.0,0.0,0.0,0.0,-2.1203,0.0,0.0,0.0,0.0,0.0,0.0,0.0,0.0,0.0,0.0,0.0,0.0,0.0,0.0,0.0,0.0,0.0,0.0,0.0,0.0,0.0,0.0,0.0,0.0,0.0,0.0,0.0,0.0,0.0,0.0,0.0,0.0,0.0,0.0,0.0,0.0,0.0,0.0,0.0,0.0,0.0,0.0,0.0,0.0,0.0,0.0,0.0,0.0,0.0,0.0,0.0,0.0,0.0,0.0,0.0,-2.8508,-2.8575,-2.8691,-2.8766,-2.8576,-2.8787,-2.9471,-2.9175,-2.8981,0.0,0.0,0.0,0.0,0.0,0.0,0.0,0.0,0.0,0.0,0.0,0.0,0.0,0.0,0.0,0.0,0.0,0.0,0.0,0.0,0.0,0.0,0.0,0.0,0.0,0.0,0.0,0.0,0.0,0.0,0.0,0.0,0.0,0.0,0.0,0.0,0.0,0.0,0.0,0.0,-2.1974,-2.1774,-2.1504,0.0,0.0,0.0,0.0,0.0,0.0,-2.1203,-2.1203,0.0,0.0,0.0,0.0,0.0,0.0,0.0,0.0,0.0,0.0,0.0,0.0,0.0,0.0,0.0,0.0,0.0,0.0,0.0,0.0,0.0,0.0,0.0,0.0,0.0,0.0,0.0,0.0,0.0,0.0,0.0,0.0,0.0,0.0,0.0,0.0,0.0,0.0,0.0,0.0,0.0,0.0,0.0,0.0,0.0,0.0,0.0,0.0,0.0,0.0,0.0,0.0,0.0,0.0,0.0,-2.7806,-2.7876,-2.7802,-2.7478,-2.7388,-2.7867,-2.8908,-2.8757,-2.8672,0.0,0.0,0.0,0.0,0.0,0.0,0.0,0.0,0.0,0.0,0.0,0.0,0.0,0.0,0.0,0.0,0.0,0.0,0.0,0.0,0.0,0.0,0.0,0.0,0.0,0.0,0.0,0.0,0.0,0.0,0.0,0.0,0.0,0.0,0.0,0.0,0.0,0.0,0.0,0.0,0.0,-2.1575,-2.1232,-2.1203,0.0,0.0,0.0,0.0,-2.1203,-2.1203,0.0,0.0,0.0,0.0,0.0,0.0,0.0,0.0,0.0,0.0,0.0,0.0,0.0,0.0,0.0,0.0,0.0,0.0,0.0,0.0,0.0,0.0,0.0,0.0,0.0,0.0,0.0,0.0,0.0,0.0,0.0,0.0,0.0,0.0,0.0,0.0,0.0,0.0,0.0,0.0,0.0,0.0,0.0,0.0,0.0,0.0,0.0,0.0,0.0,0.0,0.0,0.0,0.0,0.0,0.0,0.0,-2.7542,-2.6996,-2.6828,-2.7047,-2.672,-2.6589,-2.6783,-2.7006,-2.7258,0.0,0.0,0.0,0.0,0.0,0.0,0.0,0.0,0.0,0.0,0.0,0.0,0.0,0.0,0.0,0.0,0.0,0.0,0.0,0.0,0.0,0.0,0.0,0.0,0.0,0.0,0.0,0.0,0.0,0.0,0.0,0.0,0.0,0.0,0.0,0.0,0.0,0.0,0.0,0.0,0.0,-2.159,-2.1232,-2.1203,-2.1203,0.0,0.0,-2.1203,-2.1203,-2.1203,0.0,0.0,0.0,0.0,0.0,0.0,0.0,0.0,0.0,0.0,0.0,0.0,0.0,0.0,0.0,0.0,0.0,0.0,0.0,0.0,0.0,0.0,0.0,0.0,0.0,0.0,0.0,0.0,0.0,0.0,0.0,0.0,0.0,0.0,0.0,0.0,0.0,0.0,0.0,0.0,0.0,0.0,0.0,0.0,0.0,0.0,0.0,0.0,0.0,0.0,0.0,0.0,0.0,0.0,0.0,-2.687,-2.6142,-2.5851,-2.576,-2.5912,-2.5734,-2.6014,-2.6735,-2.6901,-2.6991,0.0,0.0,0.0,0.0,0.0,0.0,0.0,0.0,0.0,0.0,0.0,0.0,0.0,0.0,0.0,0.0,0.0,0.0,0.0,0.0,0.0,0.0,0.0,0.0,0.0,0.0,0.0,0.0,0.0,0.0,0.0,0.0,0.0,0.0,0.0,0.0,0.0,0.0,0.0,0.0,0.0,0.0,-2.151,-2.1496,0.0,0.0,0.0,-2.1496,-2.1481,0.0,0.0,0.0,0.0,0.0,0.0,0.0,0.0,0.0,0.0,0.0,0.0,0.0,0.0,0.0,0.0,0.0,0.0,0.0,0.0,0.0,0.0,0.0,0.0,0.0,0.0,0.0,0.0,0.0,0.0,0.0,0.0,0.0,0.0,0.0,0.0,0.0,0.0,0.0,0.0,0.0,0.0,0.0,0.0,0.0,0.0,0.0,0.0,0.0,0.0,0.0,0.0,0.0,0.0,0.0,0.0,0.0,-2.4998,-2.4797,-2.475,-2.4844,-2.4875,-2.5263,-2.6121,-2.6305,0.0,0.0,0.0,0.0,0.0,0.0,0.0,0.0,0.0,0.0,0.0,0.0,0.0,0.0,0.0,0.0,0.0,0.0,0.0,0.0,0.0,0.0,0.0,0.0,0.0,0.0,0.0,-2.2731,0.0,0.0,0.0,0.0,0.0,0.0,0.0,0.0,0.0,0.0,0.0,0.0,0.0,0.0,-2.1818,-2.1818,-2.1818,-2.1818,0.0,0.0,-2.1818,-2.1818,-2.1613,-2.1452,0.0,0.0,0.0,0.0,0.0,0.0,0.0,0.0,0.0,0.0,0.0,0.0,0.0,0.0,0.0,0.0,0.0,0.0,0.0,0.0,0.0,0.0,0.0,0.0,0.0,0.0,0.0,0.0,0.0,0.0,0.0,0.0,0.0,0.0,0.0,0.0,0.0,0.0,0.0,0.0,0.0,0.0,0.0,0.0,0.0,0.0,0.0,0.0,0.0,0.0,0.0,0.0,0.0,0.0,0.0,-2.4589,-2.3948,-2.3804,-2.4142,-2.4175,-2.4027,-2.386,-2.4415,-2.4624,0.0,0.0,0.0,0.0,0.0,0.0,0.0,0.0,0.0,0.0,0.0,0.0,0.0,0.0,0.0,0.0,0.0,0.0,0.0,0.0,0.0,0.0,0.0,0.0,0.0,0.0,0.0,0.0,0.0,0.0,0.0,0.0,0.0,0.0,0.0,0.0,0.0,0.0,0.0,0.0,0.0,-2.2154,-2.2154,-2.2154,-2.2154,0.0,0.0,-2.2154,-2.214,-2.2155,-2.2111,-2.214,0.0,0.0,0.0,0.0,0.0,0.0,0.0,0.0,0.0,0.0,0.0,0.0,0.0,0.0,0.0,0.0,0.0,0.0,0.0,0.0,0.0,0.0,0.0,0.0,0.0,0.0,0.0,0.0,0.0,0.0,0.0,0.0,0.0,0.0,0.0,0.0,0.0,0.0,0.0,0.0,0.0,0.0,0.0,0.0,0.0,0.0,0.0,0.0,0.0,0.0,0.0,0.0,0.0,-2.4074,-2.4218,-2.3544,-2.3257,-2.342,-2.342,-2.3363,-2.3203,-2.367,-2.3863,0.0,0.0,0.0,0.0,0.0,0.0,0.0,0.0,0.0,0.0,0.0,0.0,0.0,0.0,0.0,0.0,0.0,0.0,0.0,0.0,0.0,0.0,0.0,0.0,0.0,0.0,0.0,0.0,-2.179,-2.179,-2.1772,0.0,0.0,0.0,0.0,0.0,0.0,0.0,0.0,0.0,0.0,-2.184,-2.1809,-2.1992,0.0,0.0,-2.2295,-2.2371,-2.2174,-2.2015,-2.1839,-2.1615,-2.1585,0.0,0.0,0.0,0.0,0.0,0.0,0.0,0.0,0.0,0.0,0.0,0.0,0.0,0.0,0.0,0.0,0.0,0.0,0.0,0.0,0.0,0.0,0.0,0.0,0.0,0.0,0.0,0.0,0.0,0.0,0.0,0.0,0.0,0.0,0.0,0.0,0.0,0.0,0.0,0.0,0.0,0.0,0.0,0.0,0.0,0.0,0.0,0.0,0.0,0.0,0.0,0.0,-2.3726,-2.3858,-2.3351,-2.3161,-2.3308,-2.3308,-2.3266,-2.3168,-2.3398,-2.3485,0.0,0.0,0.0,0.0,0.0,0.0,0.0,0.0,0.0,0.0,0.0,0.0,0.0,0.0,0.0,0.0,0.0,0.0,0.0,0.0,0.0,0.0,0.0,0.0,0.0,0.0,0.0,0.0,-2.1141,-2.1204,-2.1299,0.0,0.0,0.0,0.0,0.0,0.0,0.0,0.0,0.0,0.0,-2.172,-2.1596,-2.1813,-2.1906,-2.1813,-2.1998,-2.206,-2.1844,-2.1631,-2.1491,-2.1338,0.0,0.0,0.0,0.0,0.0,0.0,0.0,0.0,0.0,0.0,0.0,0.0,0.0,0.0,0.0,0.0,0.0,0.0,0.0,0.0,0.0,0.0,0.0,0.0,0.0,0.0,0.0,0.0,0.0,0.0,-2.3679,0.0,0.0,0.0,0.0,0.0,0.0,0.0,0.0,0.0,0.0,0.0,0.0,0.0,0.0,0.0,0.0,0.0,0.0,0.0,0.0,0.0,0.0,-2.3142,-2.349,-2.3418,-2.3536,-2.3924,-2.3972,-2.3784,-2.349,-2.349,-2.3336,-2.3028,0.0,0.0,0.0,0.0,0.0,0.0,0.0,0.0,0.0,0.0,0.0,0.0,0.0,0.0,0.0,0.0,0.0,0.0,0.0,0.0,0.0,0.0,0.0,0.0,0.0,0.0,-2.017,-2.0106,-2.0265,0.0,0.0,0.0,0.0,0.0,0.0,0.0,0.0,0.0,0.0,-2.1853,-2.1933,-2.1618,-2.1587,-2.1429,-2.1127,-2.1127,-2.1127,-2.1096,-2.1082,-2.1222,0.0,0.0,0.0,0.0,0.0,0.0,0.0,0.0,0.0,0.0,0.0,0.0,0.0,0.0,0.0,0.0,0.0,0.0,0.0,0.0,0.0,0.0,0.0,0.0,0.0,0.0,0.0,-2.2331,-2.2169,0.0,0.0,0.0,0.0,0.0,0.0,0.0,0.0,0.0,0.0,0.0,-2.0321,-2.0241,0.0,0.0,0.0,0.0,0.0,0.0,0.0,0.0,0.0,0.0,0.0,0.0,-2.3086,-2.3392,-2.3181,-2.3133,-2.327,-2.327,-2.3215,-2.31,-2.3086,-2.3052,-2.2937,0.0,0.0,0.0,0.0,0.0,0.0,0.0,0.0,0.0,0.0,0.0,0.0,0.0,0.0,0.0,0.0,0.0,0.0,0.0,0.0,0.0,0.0,0.0,0.0,0.0,-1.9807,0.0,0.0,0.0,0.0,0.0,0.0,0.0,0.0,0.0,0.0,0.0,-1.9196,-1.9196,-1.9718,-2.0062,-1.9966,-2.0113,-2.0113,0.0,0.0,0.0,0.0,0.0,0.0,0.0,0.0,0.0,0.0,0.0,0.0,0.0,0.0,-1.7664,-1.855,-1.8707,-1.8581,-1.8139,0.0,0.0,0.0,0.0,0.0,0.0,0.0,0.0,0.0,0.0,0.0,0.0,0.0,0.0,-2.0584,0.0,-2.0571,0.0,0.0,0.0,0.0,0.0,0.0,0.0,0.0,-1.9863,-1.9643,-1.9006,-1.8922,-1.8843,0.0,-1.8623,-1.9288,0.0,0.0,0.0,0.0,0.0,0.0,0.0,0.0,-2.3145,-2.3319,-2.3249,-2.3215,-2.3215,-2.3215,-2.3215,-2.3215,-2.3215,-2.3225,-2.3194,-2.3242,-2.3125,0.0,0.0,0.0,0.0,0.0,0.0,0.0,0.0,0.0,0.0,0.0,0.0,0.0,0.0,0.0,0.0,0.0,0.0,0.0,0.0,0.0,0.0,0.0,-1.8687,0.0,0.0,0.0,0.0,0.0,0.0,0.0,0.0,0.0,-1.7532,-1.7739,-1.7849,-1.7849,-1.8382,-1.8752,-1.8752,0.0,0.0,0.0,0.0,0.0,0.0,0.0,-1.8708,-1.859,-1.8035,-1.7369,-1.6571,-1.6087,-1.5824,-1.5824,0.0,0.0,-1.7141,-1.7302,-1.7173,-1.6753,-1.6656,-1.685,-1.7496,-1.7502,-1.7592,0.0,0.0,0.0,0.0,0.0,0.0,0.0,0.0,-1.8537,-1.8537,0.0,-1.8943,0.0,0.0,0.0,0.0,0.0,-1.9499,0.0,0.0,-1.9197,-1.9434,-1.8971,-1.8669,-1.8603,-1.8593,-1.792,-1.7673,-1.7746,-1.842,0.0,0.0,0.0,0.0,0.0,0.0,-2.309,-2.2992,-2.342,-2.3696,-2.3683,-2.3754,-2.3768,-2.3683,-2.3683,-2.3647,-2.3612,-2.355,-2.3444,-2.313,-2.2789,0.0,0.0,0.0,0.0,0.0,0.0,0.0,0.0,0.0,0.0,0.0,0.0,0.0,0.0,0.0,0.0,0.0,0.0,0.0,0.0,-1.7432,0.0,0.0,0.0,0.0,0.0,0.0,0.0,0.0,0.0,0.0,-1.6548,-1.7093,-1.751,-1.7465,0.0,0.0,0.0,0.0,-1.7543,-1.7486,-1.751,-1.7543,-1.7486,-1.7263,-1.7151,-1.7465,0.0,0.0,-1.448,-1.4967,-1.54,-1.5419,-1.5366,-1.5524,-1.5869,-1.5929,-1.5919,-1.5886,-1.5831,-1.6136,-1.6721,-1.6764,-1.698,-1.5948,0.0,0.0,0.0,0.0,-1.7055,-1.6979,-1.6902,-1.6912,-1.6912,-1.6902,-1.7026,0.0,0.0,0.0,0.0,0.0,0.0,-1.6797,-1.6071,-1.6292,-1.5986,-1.5297,-1.5209,-1.5146,-1.5138,-1.4982,-1.5033,-1.5383,-1.5602,-1.6768,-1.8868,0.0,0.0,0.0,0.0,-2.0489,-2.0224,-2.139,-2.2013,-2.2013,-2.3184,-2.322,-2.2049,-2.2013,-2.1462,-2.0357,-2.0321,-2.0154,-1.9834,-1.9726,0.0,0.0,0.0,0.0,0.0,0.0,0.0,0.0,0.0,0.0,0.0,0.0,0.0,0.0,0.0,0.0,0.0,0.0,0.0,-1.6655,-1.574,-1.54,0.0,0.0,0.0,0.0,0.0,0.0,0.0,0.0,0.0,-1.4956,-1.5388,-1.5647,0.0,0.0,-1.6225,-1.6225,-1.6157,-1.5977,-1.5572,0.0,0.0,0.0,-1.5777,-1.5987,-1.6099,-1.5239,-1.448,-1.4412,-1.4182,-1.3985,-1.4028,-1.4019,-1.4011,-1.4154,-1.4558,-1.4684,-1.4254,-1.4153,-1.4311,-1.4821,-1.4916,-1.5134,-1.4016,-1.4968,-1.5325,-1.5497,-1.5497,-1.5497,-1.5382,-1.519,-1.519,-1.519,-1.5228,-1.542,-1.5497,-1.5497,-1.5727,0.0,0.0,0.0,-1.5296,-1.4672,-1.4672,-1.4399,-1.3899,-1.3891,-1.3899,-1.3899,-1.3891,-1.4055,-1.4329,-1.4485,-1.5383,-1.6972,0.0,0.0,-1.8723,-1.9329,-1.9474,-1.9286,-2.0333,-2.0903,-2.0903,-2.1868,-2.1905,-2.094,-2.0903,-2.0445,-1.95,-1.9415,-1.9245,-1.8901,-1.8659,-1.8613,0.0,0.0,0.0,0.0,0.0,0.0,0.0,0.0,0.0,0.0,0.0,-1.781,-1.7923,0.0,0.0,0.0,-1.6161,-1.5816,-1.5229,-1.4718,0.0,0.0,0.0,0.0,0.0,0.0,0.0,-1.497,-1.4867,-1.4692,-1.4376,-1.4588,-1.4727,-1.4475,-1.4831,-1.5143,-1.5282,0.0,-1.5014,-1.485,-1.5085,-1.5188,-1.4885,-1.498,-1.5039,-1.49,-1.4518,-1.4232,-1.4197,-1.3858,-1.3614,-1.3579,-1.3614,-1.3614,-1.3579,-1.3927,-1.4034,-1.3538,-1.3402,-1.3567,-1.4103,-1.4212,-1.4412,-1.3003,-1.3055,-1.394,-1.4315,-1.4276,-1.4315,-1.4044,-1.3627,-1.3627,-1.3665,-1.3665,-1.4083,-1.4268,-1.4322,-1.4789,0.0,-1.4668,-1.4668,-1.4468,-1.4109,-1.4109,-1.4109,-1.4109,-1.4109,-1.4109,-1.4101,-1.4109,-1.4109,-1.4181,-1.4508,-1.4707,-1.4787,-1.6176,-1.729,-1.8096,-1.8974,-1.9427,-1.9387,-1.9847,-2.016,-2.0316,-2.0277,-2.0238,-2.011,-2.0121,-2.0043,-1.9915,-1.9755,-1.9545,-1.926,-1.8789,-1.8397,-1.824,0.0,0.0,0.0,0.0,0.0,0.0,0.0,0.0,0.0,0.0,0.0,0.0,0.0,0.0,0.0,-1.4564,0.0,-1.386,-1.4154,0.0,0.0,0.0,-1.4856,-1.4892,-1.4909,-1.4918,-1.4954,0.0,0.0,-1.4525,0.0,-1.4489,-1.4489,-1.4508,-1.4607,-1.4892,-1.4687,-1.4588,-1.4855,-1.4918,-1.4954,-1.49,-1.4687,-1.4395,-1.4049,-1.3904,-1.3915,-1.3915,-1.3915,-1.3888,-1.388,-1.3896,-1.3888,-1.3896,-1.3907,-1.3798,-1.3516,-1.3459,-1.3623,-1.4139,-1.4267,-1.4429,-1.3003,-1.3036,-1.324,-1.3324,-1.3331,-1.3324,-1.3284,-1.3172,-1.3172,-1.3172,-1.3172,-1.3284,-1.3324,-1.3371,-1.3446,-1.3481,-1.3436,-1.3443,-1.3396,-1.3276,-1.3276,-1.3276,-1.3276,-1.3276,-1.3276,-1.3276,-1.3276,-1.3436,-1.3749,-1.3829,-1.4029,-1.4356,-1.4872,-1.5457,-1.616,-1.67,-1.6805,-1.6497,-1.7824,-1.9074,-2.0238,-2.0277,-1.973,-1.8524,-1.8484,-1.7903,-1.6687,-1.6287,-1.6196,-1.6437,-1.6032,-1.6021,-1.6601,-1.6633,0.0,0.0,0.0,0.0,0.0,0.0,0.0,0.0,0.0,-1.5695,-1.5425,0.0,-1.4217,0.0,-1.3396,-1.3182,-1.3075,-1.3146,0.0,0.0,-1.337,-1.36,-1.389,-1.401,-1.4208,-1.453,-1.453,-1.453,-1.4449,-1.442,-1.4449,-1.4412,-1.4342,-1.4296,-1.4369,-1.4411,-1.4457,-1.4559,-1.4551,-1.4559,-1.4542,-1.4379,-1.4175,-1.392,-1.3904,-1.3904,-1.3904,-1.3904,-1.3904,-1.3904,-1.3904,-1.3904,-1.3904,-1.3904,-1.388,-1.379,-1.3774,-1.3769,-1.3778,-1.3823,-1.3816,-1.3159,-1.3159,-1.3159,-1.3193,-1.3186,-1.3057,-1.3003,-1.3003,-1.3003,-1.3003,-1.3003,-1.3003,-1.3037,-1.3098,-1.3091,-1.3132,-1.3193,-1.3159,-1.3159,-1.3159,-1.3159,-1.3159,-1.32,-1.3159,-1.32,-1.32,-1.3159,-1.3315,-1.3511,-1.3511,-1.364,-1.3844,-1.397,-1.4304,-1.4865,-1.5255,-1.5376,-1.5133,-1.6014,-1.6931,-1.7756,-1.7796,-1.7364,-1.6529,-1.6489,-1.6054,-1.5174,-1.4829,-1.4783,-1.5024,-1.4714,-1.4747,-1.5217,-1.5353,-1.5507,0.0,0.0,0.0,0.0,0.0,0.0,0.0,0.0,0.0,0.0,0.0,-1.3304,-1.3268,-1.294,-1.2794,-1.2976,-1.2976,-1.2976,-1.2976,-1.3058,-1.3265,-1.3633,-1.3755,-1.3966,-1.4358,-1.4395,-1.4395,-1.4395,-1.4395,-1.4395,-1.4395,-1.4424,-1.4383,-1.431,-1.4338,-1.4395,-1.4395,-1.4395,-1.4395,-1.4395,-1.4314,-1.4253,-1.4164,-1.4103,-1.4131,-1.4095,-1.414,-1.4115,-1.4042,-1.4026,-1.3993,-1.392,-1.3904,-1.3904,-1.3904,-1.3904,-1.3863,-1.3747,-1.3723,-1.3725,-1.3397,-1.3397,-1.3397,-1.3397,-1.3376,-1.3125,-1.3057,-1.3057,-1.3057,-1.3057,-1.3057,-1.3057,-1.3125,-1.3241,-1.3241,-1.3316,-1.3397,-1.3397,-1.3397,-1.3397,-1.3397,-1.3397,-1.3397,-1.3397,-1.3397,-1.3397,-1.3397,-1.3397,-1.3397,-1.3397,-1.3397,-1.3397,-1.3397,-1.3611,-1.4025,-1.4349,-1.4589,-1.4713,-1.4713,-1.4713,-1.4713,-1.4713,-1.4713,-1.4713,-1.4713,-1.4713,-1.4706,-1.4545,-1.4471,-1.4504,-1.433,-1.4168,-1.4208,-1.4449,-1.4554,0.0,-1.4742,0.0,0.0,0.0,0.0,0.0,0.0,0.0,0.0,-1.2769,-1.2694,-1.3029,-1.2731,-1.2694,-1.3036,-1.3066,-1.3066,-1.3066,-1.3088,-1.3252,-1.3617,-1.3715,-1.3879,-1.4282,-1.4311,-1.4319,-1.429,-1.4319,-1.4319,-1.438,-1.453,-1.4563,-1.4538,-1.4484,-1.4492,-1.446,-1.446,-1.4538,-1.446,-1.4435,-1.4419,-1.4395,-1.4371,-1.4395,-1.4371,-1.4379,-1.4338,-1.4245,-1.4213,-1.4164,-1.3993,-1.3977,-1.3977,-1.4002,-1.3977,-1.3937,-1.3896,-1.3888,-1.3904,-1.3397,-1.3397,-1.3397,-1.3397,-1.3397,-1.3342,-1.3315,-1.3315,-1.3315,-1.3322,-1.3315,-1.3315,-1.3329,-1.3356,-1.3356,-1.337,-1.3397,-1.3397,-1.3397,-1.3397,-1.3397,-1.3397,-1.3397,-1.3397,-1.3397,-1.3397,-1.3397,-1.3397,-1.3397,-1.3397,-1.3397,-1.3397,-1.3397,-1.3445,-1.3528,0.0,0.0,0.0,-1.4713,-1.4713,-1.4713,-1.4713,-1.4713,-1.4713,-1.4713,0.0,-1.4713,-1.4368,-1.4346,-1.4627,-1.4317,0.0,0.0,0.0,0.0,0.0,0.0,0.0,0.0,0.0,0.0,0.0,-1.3235,-1.294,-1.2707,-1.2396,-1.221,-1.2321,-1.2247,-1.221,-1.2321,-1.2284,-1.2321,-1.2328,-1.2402,-1.2622,-1.3,-1.3184,-1.3379,-1.3762,-1.3839,-1.3839,-1.3877,-1.3839,-1.3992,-1.4344,-1.4452,-1.4567,-1.4832,-1.4854,-1.4862,-1.4862,-1.4876,-1.4806,-1.4676,-1.4651,-1.4603,-1.4444,-1.4395,-1.4403,-1.4411,-1.4411,-1.4403,-1.4383,-1.4383,-1.4338,-1.4326,-1.4298,-1.4273,-1.4326,-1.4221,-1.4083,-1.3937,-1.3904,-1.3904,-1.3397,0.0,-1.3397,-1.3397,0.0,-1.3397,-1.3397,-1.3397,-1.3397,-1.3397,-1.3397,-1.3397,-1.3397,-1.3397,-1.3397,-1.3397,-1.3397,-1.3397,-1.3397,-1.3397,-1.3397,-1.3397,-1.3397,-1.3397,-1.3397,-1.3397,-1.3397,-1.3397,-1.3397,-1.3397,-1.3397,-1.3397,-1.3397,-1.3397,-1.3403,-1.3478,-1.3686,-1.4059,-1.4059,-1.4059,-1.4059,-1.4059,-1.4059,-1.4059,0.0,0.0,0.0,0.0,0.0,0.0,0.0,0.0,0.0,0.0,0.0,-1.3499,-1.3561,-1.3596,-1.3596,-1.3396,-1.3316,-1.3316,-1.3116,-1.2953,-1.28,-1.2663,-1.2547,-1.254,-1.2547,-1.2547,-1.2547,-1.2547,-1.254,-1.2547,-1.2615,-1.2812,-1.3163,-1.3297,-1.3504,-1.3865,-1.3943,-1.3943,-1.3943,-1.3943,-1.4022,-1.4257,-1.4492,-1.4649,-1.486,-1.4958,-1.5006,-1.5006,-1.5006,-1.4935,-1.4854,-1.483,-1.4814,-1.4716,-1.4692,-1.47,-1.4692,-1.47,-1.4676,-1.4557,-1.4533,-1.4546,-1.4411,-1.4395,-1.4395,-1.4387,-1.4322,-1.4278,-1.4164,-1.4026,-1.3904,-1.3417,-1.3444,-1.3444,-1.3458,-1.3478,-1.3478,-1.3478,-1.3471,0.0,0.0,0.0,-1.3397,-1.3397,-1.3397,-1.3397,-1.3397,-1.3397,-1.3397,-1.3397,-1.3403,-1.3431,-1.3444,-1.3444,-1.3471,-1.3478,-1.3478,-1.3478,-1.3478,-1.3478,-1.3478,-1.3478,-1.3478,-1.3478,-1.3478,-1.3492,-1.36,-1.3607,-1.3485,-1.3478,-1.3478,-1.3478,-1.3478,-1.3478,-1.3478,-1.3451,-1.3444,-1.3437,-1.3417,-1.3397,-1.3397,-1.3397,-1.3397,-1.3397,-1.3281,-1.3214,-1.3207,-1.3146,-1.3077,-1.3077,-1.3077,-1.3077,-1.3084,-1.3077,-1.3057,-1.3009,-1.3003,-1.3003,-1.3003,-1.3003,-1.2996,-1.3003,-1.3003,-1.3003,-1.3003,-1.3003,-1.3116,-1.3422,-1.3469,-1.3575,-1.3909,-1.3934,-1.3989,-1.3934,-1.3934,-1.4029,-1.4101,-1.4318,-1.4668,-1.4796,-1.4986,-1.5098,-1.5137,-1.5153,-1.512,-1.5104,-1.5074,-1.5096,-1.5065,-1.5072,-1.5055,-1.5047,-1.5031,-1.4949,-1.4781,-1.4757,-1.4692,-1.4533,-1.4516,-1.4484,-1.4521,-1.4497,-1.4444,-1.4411,-1.4229,-1.4026,-1.3478,-1.3551,-1.3551,-1.3626,-1.3734,-1.3734,-1.3734,-1.3714,-1.3512,-1.3403,-1.3397,-1.3397,-1.3397,-1.3397,-1.3397,-1.3397,-1.3397,-1.3397,-1.3397,0.0,-1.3539,-1.3558,-1.3558,-1.368,-1.3741,-1.3734,-1.3734,-1.3734,-1.3734,-1.3734,-1.3734,-1.3734,-1.3734,-1.3734,-1.3741,-1.3761,-1.3761,-1.3734,-1.3734,-1.3734,-1.3734,-1.3741,-1.3741,-1.3727,-1.3619,-1.3558,-1.3558,-1.3471,-1.3397,-1.3397,-1.3397,-1.3397,-1.3403,-1.3383,-1.337,-1.337,-1.3349,-1.3336,-1.3336,-1.3342,-1.3342,-1.3336,-1.3336,-1.3234,-1.303,-1.3003,-1.3003,-1.3003,-1.3016,-1.3003,-1.3003,-1.3009,-1.3023,-1.3009,-1.3003,-1.3043,-1.3137,-1.3137,-1.3177,-1.3224,-1.3163,-1.321,-1.3264,-1.3257,-1.3384,-1.3644,-1.388,-1.4044,-1.4698,-1.5154,-1.5399,-1.5439,-1.5439,-1.5439,-1.5398,-1.5431,-1.5407,-1.5439,-1.5254,-1.5164,-1.5204,-1.5098,-1.5039,-1.4982,-1.499,-1.4966,-1.4917,-1.4933,-1.4909,-1.4846,-1.4757,-1.4676,-1.463,-1.4497,-1.4322,-1.3639,-1.37,-1.37,-1.3741,-1.3795,-1.3795,-1.3795,-1.3788,-1.366,-1.3641,-1.3599,-1.3641,-1.3599,-1.3599,-1.3641,-1.3599,-1.3641,-1.3599,-1.3592,-1.3605,-1.3666,-1.37,-1.3707,-1.3768,-1.3795,-1.3795,-1.3795,-1.3795,-1.3795,-1.3795,-1.3795,-1.3795,-1.3795,-1.3842,-1.396,-1.3966,-1.4007,-1.4038,-1.3883,-1.3795,-1.3795,-1.3795,-1.3795,-1.3795,-1.3734,-1.37,-1.37,-1.3632,-1.3641,-1.3599,-1.3599,-1.3641,-1.3641,-1.3641,-1.3641,-1.3599,-1.3599,-1.3565,-1.3526,-1.3444,-1.3397,-1.3397,-1.3397,-1.3342,-1.3214,-1.3241,-1.3241,-1.3241,-1.32,-1.32,-1.32,-1.3241,-1.32,-1.32,-1.32,-1.32,-1.32,-1.3241,-1.32,-1.3241,-1.3241,-1.3241,-1.32,-1.32,-1.3282,-1.3479,-1.3683,-1.4083,-1.4652,-1.4936,-1.5198,-1.5441,-1.5512,-1.5512,-1.548,-1.5512,-1.5512,-1.5512,-1.5447,-1.5359,-1.5351,-1.5301,-1.5268,-1.526,-1.526,-1.522,-1.5147,-1.5114,-1.5074,-1.5006,-1.4911,-1.4854,-1.4876,-1.4773,-1.4659,-1.3822,-1.3892,-1.3849,-1.3869,-1.3896,-1.3903,-1.3903,-1.3896,-1.3903,-1.3903,-1.3889,-1.3829,-1.3795,-1.3795,-1.3795,-1.3795,-1.3795,-1.3795,-1.3795,-1.3802,-1.3829,-1.3849,-1.3856,-1.3883,-1.3903,-1.3903,-1.3903,-1.3903,-1.3903,-1.3896,-1.3903,-1.3903,-1.3903,-1.3964,-1.4166,-1.4166,-1.4183,-1.4278,-1.4061,-1.3903,-1.3903,-1.3903,-1.3896,-1.3896,-1.3869,-1.3849,-1.3849,-1.3815,-1.3795,-1.3795,-1.3795,-1.3795,-1.3795,-1.3795,-1.3795,-1.3795,-1.3795,-1.3754,-1.3639,-1.3566,-1.3498,-1.3498,-1.3498,-1.3498,-1.3498,-1.3498,-1.3464,-1.3417,-1.3383,-1.339,-1.3383,-1.339,-1.3397,-1.3397,-1.3397,-1.3383,-1.3397,-1.3397,-1.3397,-1.3397,-1.3397,-1.339,-1.3397,-1.3397,-1.339,-1.3466,-1.3735,-1.4108,-1.4473,-1.4555,-1.4765,-1.5125,-1.5313,-1.5289,-1.5313,-1.5281,-1.5329,-1.5433,-1.5441,-1.5465,-1.5489,-1.5545,-1.5512,-1.5488,-1.5496,-1.5439,-1.5294,-1.5262,-1.5213,-1.5155,-1.5122,-1.509,-1.508,-1.5015,-1.4901,-1.3926,-1.4041,-1.4048,-1.4136,-1.4245,-1.4251,-1.4245,-1.4245,-1.4258,-1.4258,-1.4217,-1.3923,-1.3808,-1.3795,-1.3808,-1.3815,-1.3808,-1.3795,-1.3808,-1.3829,-1.3987,-1.4048,-1.4061,-1.4183,-1.4258,-1.4245,-1.4238,-1.4224,-1.4231,-1.4238,-1.4251,-1.4258,-1.4258,-1.4265,-1.4278,-1.4285,-1.4292,-1.4299,-1.4272,-1.4258,-1.4258,-1.4258,-1.4258,-1.4258,-1.4122,-1.4098,-1.4091,-1.3912,-1.3802,-1.3795,-1.3808,-1.3802,-1.3802,-1.3802,-1.3802,-1.3802,-1.3802,-1.3788,-1.3781,-1.3768,-1.3747,-1.3754,-1.3741,-1.3741,-1.3741,-1.3747,-1.3639,-1.3485,-1.341,-1.3424,-1.3403,-1.3417,-1.3431,-1.3437,-1.3431,-1.3397,-1.3417,-1.3397,-1.3397,-1.3397,-1.3437,-1.3403,-1.3431,-1.3424,-1.341,-1.3424,-1.3493,-1.3694,-1.4066,-1.4149,-1.4266,-1.4627,-1.4784,-1.4777,-1.4803,-1.4784,-1.4993,-1.5287,-1.5243,-1.5334,-1.5489,-1.5562,-1.5528,-1.5578,-1.5561,-1.5553,-1.5512,-1.5488,-1.544,-1.5407,-1.539,-1.5398,-1.5205,-1.5106,-1.4974,-1.415,-1.4204,-1.4211,-1.4245,-1.4299,-1.4299,-1.4299,-1.4299,-1.4299,-1.4299,-1.4285,-1.4163,-1.4109,-1.4109,-1.4116,-1.4109,-1.4116,-1.4109,-1.4116,-1.4116,-1.4177,-1.4204,-1.4217,-1.4265,-1.4299,-1.4299,-1.4299,-1.4299,-1.4299,-1.4299,-1.434,-1.4414,-1.4428,-1.4468,-1.455,-1.4518,-1.4563,-1.4563,-1.4563,-1.4512,-1.4536,-1.4387,-1.4299,-1.4292,-1.4238,-1.4204,-1.4204,-1.4143,-1.4065,-1.4109,-1.4109,-1.4072,-1.4109,-1.4072,-1.4109,-1.4109,-1.4027,-1.398,-1.3973,-1.3892,-1.3795,-1.3795,-1.3795,-1.3795,-1.3795,-1.3795,-1.3741,-1.3646,-1.3661,-1.3619,-1.3612,-1.3661,-1.3619,-1.3619,-1.3661,-1.3612,-1.3619,-1.3619,-1.3619,-1.3661,-1.3619,-1.3661,-1.3605,-1.3545,-1.3539,-1.3519,-1.3471,-1.3548,-1.37,-1.3694,-1.3728,-1.3852,-1.3935,-1.4183,-1.4548,-1.4713,-1.4796,-1.4912,-1.4915,-1.5034,-1.5379,-1.5519,-1.5504,-1.5699,-1.5723,-1.5715,-1.5683,-1.5658,-1.565,-1.5593,-1.552,-1.5488,-1.5415,-1.5342,-1.526,-1.4299,-1.4299,-1.4299,-1.4299,-1.4299,-1.4299,-1.4299,-1.4299,-1.4299,-1.4299,-1.4299,-1.4299,-1.4299,-1.4299,-1.4299,-1.4299,-1.4299,-1.4299,-1.4299,-1.4299,-1.4299,-1.4299,-1.4299,-1.4299,-1.4319,-1.4353,-1.436,-1.438,-1.4414,-1.4421,-1.4475,-1.4518,-1.457,-1.4586,-1.4681,-1.4694,-1.4694,-1.4687,-1.4694,-1.4694,-1.466,-1.4484,-1.4421,-1.4421,-1.4421,-1.4421,-1.4421,-1.4421,-1.4401,-1.436,-1.4353,-1.434,-1.4306,-1.4299,-1.4299,-1.4292,-1.4197,-1.4136,-1.4136,-1.4027,-1.3923,-1.3923,-1.3923,-1.3923,-1.3923,-1.3923,-1.3923,-1.3923,-1.3923,-1.3903,-1.3802,-1.3795,-1.3795,-1.3795,-1.3795,-1.3795,-1.3788,-1.3795,-1.3788,-1.3795,-1.3768,-1.3795,-1.3781,-1.3707,-1.3639,-1.3632,-1.3551,-1.3526,-1.3519,-1.3532,-1.3532,-1.3526,-1.3526,-1.3735,-1.4253,-1.4266,-1.4383,-1.4514,-1.4548,-1.4664,-1.5092,-1.5167,-1.5208,-1.5287,-1.5604,-1.581,-1.5641,-1.5634,-1.5804,-1.5659,-1.5626,-1.5585,-1.5585,-1.5553,-1.5512,-1.4299,-1.4299,-1.4299,-1.4299,-1.4299,-1.4299,-1.4299,-1.4299,-1.4299,-1.4299,-1.4306,-1.4306,-1.4306,-1.4319,-1.4326,-1.4306,-1.4306,-1.4312,-1.4319,-1.4326,-1.4319,-1.4306,-1.4299,-1.4299,-1.4373,-1.4496,-1.4502,-1.4525,-1.4647,-1.466,-1.4681,-1.4681,-1.4687,-1.4687,-1.4721,-1.4721,-1.4701,-1.4728,-1.4728,-1.4708,-1.4708,-1.4687,-1.4674,-1.4674,-1.4667,-1.4654,-1.466,-1.4667,-1.4606,-1.4509,-1.4502,-1.4448,-1.4326,-1.4312,-1.4319,-1.4312,-1.4306,-1.4299,-1.4299,-1.4285,-1.4278,-1.4278,-1.4265,-1.4272,-1.4251,-1.4238,-1.4238,-1.4265,-1.4238,-1.4143,-1.3876,-1.3856,-1.3835,-1.3829,-1.3815,-1.3822,-1.3815,-1.3849,-1.3802,-1.3815,-1.3842,-1.3856,-1.3822,-1.3795,-1.3788,-1.3788,-1.3774,-1.3754,-1.3734,-1.3747,-1.3741,-1.3741,-1.3727,-1.3722,-1.352,-1.3687,-1.3846,-1.3963,-1.4185,-1.4273,-1.4514,-1.4754,-1.4762,-1.4886,-1.5175,-1.5414,-1.5456,-1.563,-1.5795,-1.5837,-1.5772,-1.574,-1.5699,-1.5601,-1.5593,-1.4299,-1.4299,-1.4299,-1.4299,-1.4299,-1.4299,-1.4299,-1.4299,-1.4299,-1.4353,-1.4428,-1.4434,-1.4489,-1.4532,-1.4584,-1.4529,-1.4441,-1.4434,-1.4489,-1.457,-1.4539,-1.4539,-1.4539,-1.4539,-1.4559,-1.4652,-1.4613,-1.464,-1.4681,-1.4694,-1.4794,-1.4875,-1.4889,-1.493,-1.5004,-1.5025,-1.5025,-1.5025,-1.5025,-1.5025,-1.5018,-1.5025,-1.5025,-1.5011,-1.4789,-1.4694,-1.4694,-1.4694,-1.4667,-1.4613,-1.4613,-1.4586,-1.4545,-1.4584,-1.4584,-1.4577,-1.4532,-1.4539,-1.4539,-1.4539,-1.4539,-1.4577,-1.4489,-1.4434,-1.4421,-1.4353,-1.4299,-1.4306,-1.4299,-1.4231,-1.4177,-1.4136,-1.4136,-1.4129,-1.4129,-1.4122,-1.4136,-1.4136,-1.4136,-1.4092,-1.4136,-1.4136,-1.4095,-1.4048,-1.3994,-1.398,-1.3862,-1.3815,-1.3802,-1.3802,-1.3815,-1.3802,-1.3795,-1.3768,-1.368,-1.36,-1.3588,-1.3644,-1.3791,-1.3943,-1.4156,-1.4302,-1.4358,-1.4622,-1.4897,-1.5006,-1.5097,-1.526,-1.5524,-1.5691,-1.5691,-1.574,-1.5812,-1.5731,-1.578,-1.4299,-1.4299,-1.4299,-1.4299,-1.4306,-1.4353,-1.4367,-1.4373,-1.4421,-1.4496,-1.4577,-1.4584,-1.4599,-1.4681,-1.4694,-1.4674,-1.4652,-1.4611,-1.4599,-1.4687,-1.4694,-1.4694,-1.4694,-1.4694,-1.4767,-1.4814,-1.4816,-1.4882,-1.4836,-1.4882,-1.4936,-1.5078,-1.5038,-1.5132,-1.5167,-1.5181,-1.5181,-1.5181,-1.5181,-1.5181,-1.5181,-1.5181,-1.5181,-1.5153,-1.4984,-1.4882,-1.4882,-1.4836,-1.4855,-1.4775,-1.4769,-1.4794,-1.4701,-1.4694,-1.4694,-1.4694,-1.4687,-1.4694,-1.4694,-1.4694,-1.4687,-1.4687,-1.4606,-1.4584,-1.4532,-1.4496,-1.4448,-1.4441,-1.4441,-1.4441,-1.4441,-1.4441,-1.4407,-1.4326,-1.4299,-1.4299,-1.4299,-1.4292,-1.4292,-1.4278,-1.4278,-1.4285,-1.4285,-1.4204,-1.4156,-1.4187,-1.4048,-1.3994,-1.3987,-1.3944,-1.395,-1.3944,-1.3964,-1.3971,-1.3966,-1.3885,-1.3707,-1.3744,-1.3683,-1.3811,-1.3846,-1.3978,-1.4104,-1.4361,-1.4521,-1.4632,-1.4788,-1.4946,-1.5143,-1.54,-1.5545,-1.5624,-1.5731,-1.5894,-1.5861,-1.4299,-1.4299,-1.4299,-1.4306,-1.4333,-1.4441,-1.4502,-1.4536,-1.4613,-1.4667,-1.4687,-1.4694,-1.4708,-1.4721,-1.4794,-1.4835,-1.4909,-1.4821,-1.4721,-1.4741,-1.4774,-1.478,-1.4735,-1.4741,-1.4855,-1.497,-1.5153,-1.516,-1.514,-1.5133,-1.5147,-1.5214,-1.516,-1.516,-1.5181,-1.5181,-1.5181,-1.5181,-1.5181,-1.5181,-1.5181,-1.5181,-1.5181,-1.5181,-1.5153,-1.5147,-1.516,-1.516,-1.5092,-1.4991,-1.5017,-1.4903,-1.4755,-1.4735,-1.4714,-1.4735,-1.4714,-1.4708,-1.4714,-1.4728,-1.4741,-1.4741,-1.4708,-1.4694,-1.4694,-1.4667,-1.4647,-1.464,-1.4647,-1.4667,-1.4654,-1.4654,-1.4559,-1.4367,-1.4353,-1.4353,-1.4319,-1.4299,-1.4299,-1.4299,-1.4299,-1.4299,-1.4299,-1.4278,-1.4265,-1.4265,-1.4251,-1.4238,-1.4224,-1.4224,-1.4272,-1.4272,-1.4224,-1.4183,-1.4183,-1.417,-1.4021,-1.3849,-1.3781,-1.3799,-1.3807,-1.3892,-1.3878,-1.409,-1.4253,-1.4358,-1.4607,-1.4734,-1.4897,-1.5129,-1.5298,-1.5497,-1.5677,-1.5826,-1.5853,-1.4299,-1.4299,-1.4299,-1.436,-1.4441,-1.4496,-1.457,-1.462,-1.4681,-1.4755,-1.4889,-1.4903,-1.495,-1.5031,-1.5045,-1.5065,-1.5113,-1.5065,-1.5045,-1.5038,-1.5038,-1.5031,-1.5038,-1.5038,-1.5072,-1.5113,-1.516,-1.5181,-1.5181,-1.5181,-1.5181,-1.5181,-1.5181,-1.5181,-1.5181,-1.5181,-1.5181,-1.5181,-1.5181,-1.5181,-1.5181,-1.5181,-1.5181,-1.5181,-1.5181,-1.5181,-1.5181,-1.5181,-1.516,-1.5113,-1.5113,-1.5092,-1.5052,-1.5045,-1.5045,-1.5045,-1.5045,-1.5045,-1.5045,-1.5038,-1.5031,-1.5025,-1.4957,-1.4903,-1.4882,-1.4808,-1.4708,-1.4701,-1.4694,-1.4694,-1.4694,-1.4694,-1.466,-1.4611,-1.4604,-1.4498,-1.4455,-1.4367,-1.4306,-1.4299,-1.4299,-1.4299,-1.4299,-1.4306,-1.4306,-1.4299,-1.4299,-1.4299,-1.4299,-1.4299,-1.4299,-1.4299,-1.4299,-1.4299,-1.4265,-1.4245,-1.417,-1.4011,-1.3944,-1.3896,-1.3876,-1.3862,-1.3849,-1.3892,-1.4014,-1.4166,-1.4379,-1.4512,-1.4651,-1.4786,-1.4965,-1.5222,-1.5586,-1.5747,-1.5784,-1.4299,-1.4306,-1.4353,-1.4428,-1.4529,-1.4624,-1.4733,-1.4828,-1.4882,-1.4957,-1.5085,-1.5052,-1.5139,-1.5167,-1.5181,-1.5181,-1.5181,-1.5181,-1.5181,-1.5181,-1.5181,-1.5181,-1.5181,-1.5181,-1.5181,-1.5181,-1.5181,-1.5181,-1.5181,-1.5181,-1.5181,-1.5181,-1.5181,-1.5181,-1.5181,-1.5181,-1.5181,-1.5181,-1.5181,-1.5181,-1.5181,-1.5181,-1.5181,-1.5181,-1.5181,-1.5181,-1.5181,-1.5181,-1.5181,-1.5181,-1.5181,-1.5181,-1.5181,-1.5174,-1.5181,-1.5181,-1.5181,-1.5174,-1.5181,-1.5167,-1.5181,-1.516,-1.5099,-1.5098,-1.5031,-1.4943,-1.4909,-1.4903,-1.4863,-1.4903,-1.4863,-1.4863,-1.4903,-1.4856,-1.4748,-1.466,-1.4552,-1.4478,-1.4475,-1.4482,-1.4475,-1.4441,-1.4394,-1.438,-1.4353,-1.4319,-1.4299,-1.4299,-1.4299,-1.4299,-1.4299,-1.4306,-1.4299,-1.4299,-1.4299,-1.4292,-1.4292,-1.4217,-1.4099,-1.4065,-1.4089,-1.4089,-1.4082,-1.4089,-1.4176,-1.4107,-1.4299,-1.4237,-1.4323,-1.4443,-1.4667,-1.4977,-1.5302,-1.5596,-1.5685,-1.4299,-1.4319,-1.4455,-1.4516,-1.457,-1.4867,-1.5003,-1.5004,-1.5106,-1.5153,-1.5167,-1.516,-1.5221,-1.5181,-1.5181,-1.5181,-1.5181,-1.5181,-1.5181,-1.5181,-1.5181,-1.5181,-1.5181,-1.5181,-1.5181,-1.5181,-1.5181,-1.5181,-1.5181,-1.5181,-1.5181,-1.5181,-1.5181,-1.5181,-1.5181,-1.5181,-1.5181,-1.5181,-1.5181,-1.5181,-1.5181,-1.5181,-1.5181,-1.5181,-1.5181,-1.5181,-1.5181,-1.5181,-1.5181,-1.5181,-1.5181,-1.5181,-1.5181,-1.5181,-1.5181,-1.5181,-1.5181,-1.5181,-1.5181,-1.5181,-1.5181,-1.5181,-1.5174,-1.5181,-1.5153,-1.5133,-1.512,-1.5126,-1.514,-1.5147,-1.5147,-1.5147,-1.5147,-1.5133,-1.493,-1.4735,-1.4708,-1.4687,-1.464,-1.4654,-1.4681,-1.464,-1.4543,-1.4529,-1.4424,-1.4401,-1.4367,-1.438,-1.4373,-1.4387,-1.4333,-1.4326,-1.4333,-1.4299,-1.4299,-1.4299,-1.4299,-1.4278,-1.4224,-1.4211,-1.4204,-1.4211,-1.4217,-1.4231,-1.4224,-1.417,-1.4173,-1.4192,-1.4217,-1.4413,-1.4586,-1.4779,-1.4999,-1.5295,-1.5482,-1.4299,-1.4312,-1.4455,-1.4532,-1.4654,-1.4896,-1.5078,-1.512,-1.516,-1.5181,-1.5181,-1.5181,-1.5181,-1.5181,-1.5181,-1.5181,-1.5181,-1.5181,-1.5181,-1.5181,-1.5181,-1.5181,-1.5181,-1.5181,-1.5181,-1.5181,-1.5181,-1.5181,-1.5181,-1.5181,-1.5181,-1.5181,-1.5181,-1.5181,-1.5181,-1.5181,-1.5181,-1.5181,-1.5181,-1.5181,-1.5181,-1.5181,-1.5181,-1.5181,-1.5181,-1.5181,-1.5181,-1.5181,-1.5181,-1.5181,-1.5181,-1.5181,-1.5181,-1.5181,-1.5181,-1.5181,-1.5181,-1.5181,-1.5181,-1.5181,-1.5181,-1.5181,-1.5181,-1.5181,-1.5181,-1.5181,-1.5181,-1.5181,-1.5181,-1.5181,-1.5181,-1.5181,-1.5181,-1.516,-1.5011,-1.4909,-1.4896,-1.4762,-1.4694,-1.4694,-1.4708,-1.4687,-1.4654,-1.4633,-1.4613,-1.4566,-1.459,-1.459,-1.4505,-1.4457,-1.4462,-1.4414,-1.4401,-1.4333,-1.4299,-1.4299,-1.4299,-1.4299,-1.4278,-1.4272,-1.4265,-1.4265,-1.4272,-1.4285,-1.4272,-1.4231,-1.4245,-1.4261,-1.4359,-1.4378,-1.4435,-1.4538,-1.4807,-1.5075,-1.5211,-1.4299,-1.4319,-1.4523,-1.4613,-1.4721,-1.497,-1.5106,-1.5174,-1.5181,-1.5181,-1.5181,-1.5181,-1.5181,-1.5181,-1.5181,-1.5181,-1.5181,-1.5181,-1.5181,-1.5181,-1.5181,-1.5181,-1.5181,-1.5181,-1.5181,-1.5181,-1.5181,-1.5181,-1.5181,-1.5181,-1.5181,-1.5181,-1.5181,-1.5181,-1.5181,-1.5181,-1.5181,-1.5181,-1.5181,-1.5181,-1.5181,-1.5181,-1.5181,-1.5181,-1.5181,-1.5181,-1.5181,-1.5181,-1.5181,-1.5181,-1.5181,-1.5181,-1.5181,-1.5181,-1.5181,-1.5181,-1.5181,-1.5181,-1.5181,-1.5181,-1.5181,-1.5181,-1.5181,-1.5181,-1.5181,-1.5181,-1.5181,-1.5181,-1.5181,-1.5181,-1.5181,-1.5181,-1.5181,-1.5174,-1.5106,-1.5059,-1.5105,-1.4991,-1.4936,-1.4923,-1.4923,-1.4896,-1.4848,-1.4835,-1.4801,-1.4708,-1.4667,-1.4667,-1.466,-1.4606,-1.4559,-1.457,-1.4543,-1.4509,-1.4462,-1.4448,-1.4414,-1.4401,-1.436,-1.4353,-1.434,-1.4326,-1.4299,-1.4299,-1.4299,-1.4299,-1.4299,-1.4299,-1.4316,-1.4333,-1.4292,-1.438,-1.4611,-1.4803,-1.4951,-1.4299,-1.4326,-1.4618,-1.4694,-1.4787,-1.5052,-1.5174,-1.5181,-1.5181,-1.5181,-1.5181,-1.5181,-1.5181,-1.5181,-1.5181,-1.5181,-1.5181,-1.5181,-1.5181,-1.5181,-1.5181,-1.5181,-1.5181,-1.5181,-1.5181,-1.5181,-1.5181,-1.5181,-1.5181,-1.5181,-1.5181,-1.5181,-1.5181,-1.5181,-1.5194,-1.5201,-1.5255,-1.5235,-1.5269,-1.5282,-1.5282,-1.5282,-1.5289,-1.5282,-1.5242,-1.5215,-1.5194,-1.5181,-1.5181,-1.5181,-1.5181,-1.5181,-1.5181,-1.5181,-1.5181,-1.5181,-1.5181,-1.5181,-1.5181,-1.5181,-1.5181,-1.5181,-1.5181,-1.5181,-1.5181,-1.5181,-1.5181,-1.5181,-1.5181,-1.5181,-1.5181,-1.5181,-1.5181,-1.5181,-1.5221,-1.5181,-1.5181,-1.5181,-1.5181,-1.5181,-1.5221,-1.516,-1.5091,-1.503,-1.4996,-1.4916,-1.4882,-1.4889,-1.4869,-1.4814,-1.478,-1.476,-1.4733,-1.4667,-1.4658,-1.4611,-1.457,-1.4536,-1.4475,-1.4448,-1.4421,-1.4394,-1.4326,-1.4299,-1.4299,-1.4299,-1.4299,-1.4299,-1.4299,-1.4299,-1.4299,-1.4299,-1.438,-1.4588,-1.4759,-1.4299,-1.4326,-1.4572,-1.4694,-1.4741,-1.5052,-1.5181,-1.5181,-1.5181,-1.5181,-1.5181,-1.5181,-1.5181,-1.5181,-1.5181,-1.5181,-1.5181,-1.5181,-1.5181,-1.5181,-1.5181,-1.5181,-1.5181,-1.5181,-1.5181,-1.5181,-1.5181,-1.5181,-1.5181,-1.5181,-1.5181,-1.5181,-1.5201,-1.5181,-1.5248,-1.5309,-1.5364,-1.5384,-1.5466,-1.5465,-1.5458,-1.5458,-1.5458,-1.5506,-1.5418,-1.5303,-1.5208,-1.5181,-1.5181,-1.5181,-1.5187,-1.5201,-1.5187,-1.5181,-1.5181,-1.5181,-1.5181,-1.5181,-1.5181,-1.5181,-1.5181,-1.5181,-1.5181,-1.5181,-1.5181,-1.5181,-1.5181,-1.5181,-1.5181,-1.5181,-1.5181,-1.5181,-1.5181,-1.5181,-1.5181,-1.5181,-1.5181,-1.5181,-1.5181,-1.5181,-1.5181,-1.5167,-1.5187,-1.512,-1.5099,-1.5079,-1.5072,-1.5079,-1.5031,-1.4964,-1.4943,-1.4916,-1.4875,-1.4848,-1.4821,-1.476,-1.4692,-1.4599,-1.459,-1.4557,-1.4529,-1.4482,-1.4421,-1.436,-1.4299,-1.4306,-1.434,-1.4299,-1.4299,-1.4299,-1.4299,-1.4299,-1.4343,-1.4476,-1.4564,-1.4299,-1.4333,-1.4572,-1.4694,-1.4741,-1.5052,-1.5181,-1.5181,-1.5181,-1.5181,-1.5181,-1.5181,-1.5181,-1.5181,-1.5181,-1.5181,-1.5181,-1.5181,-1.5181,-1.5181,-1.5181,-1.5181,-1.5181,-1.5181,-1.5181,-1.5181,-1.5181,-1.5181,-1.5181,-1.5181,-1.5181,-1.5194,-1.5248,-1.5296,-1.5309,-1.5438,-1.5465,-1.5479,-1.5539,-1.5587,-1.5587,-1.5587,-1.5587,-1.5587,-1.5512,-1.5472,-1.5411,-1.5404,-1.5357,-1.5309,-1.5289,-1.5248,-1.5194,-1.5181,-1.5181,-1.5181,-1.5181,-1.5181,-1.5181,-1.5181,-1.5181,-1.5181,-1.5181,-1.5181,-1.5181,-1.5181,-1.5181,-1.5181,-1.5181,-1.5181,-1.5181,-1.5181,-1.5181,-1.5181,-1.5181,-1.5181,-1.5181,-1.5181,-1.5181,-1.5181,-1.5181,-1.5181,-1.5181,-1.5181,-1.5174,-1.5126,-1.5126,-1.5133,-1.5133,-1.5086,-1.5079,-1.5052,-1.5004,-1.4977,-1.4957,-1.4903,-1.4814,-1.4753,-1.464,-1.4626,-1.4613,-1.4552,-1.4529,-1.4482,-1.4441,-1.4407,-1.4421,-1.4367,-1.4319,-1.4306,-1.4306,-1.4306,-1.435,-1.4401,-1.4438,-1.4299,-1.4326,-1.4572,-1.4694,-1.4741,-1.5052,-1.5181,-1.5181,-1.5181,-1.5181,-1.5181,-1.5181,-1.5181,-1.5181,-1.5181,-1.5181,-1.5181,-1.5181,-1.5181,-1.5181,-1.5181,-1.5181,-1.5181,-1.5181,-1.5181,-1.5181,-1.5181,-1.5181,-1.5181,-1.5187,-1.5208,-1.5235,-1.5337,-1.5404,-1.5466,-1.5539,-1.5621,-1.5676,-1.5723,-1.5702,-1.5695,-1.5688,-1.5681,-1.5689,-1.5683,-1.5642,-1.5553,-1.5539,-1.5519,-1.5459,-1.5445,-1.5377,-1.5282,-1.5194,-1.5181,-1.5181,-1.5181,-1.5181,-1.5181,-1.5181,-1.5181,-1.5181,-1.5181,-1.5181,-1.5181,-1.5181,-1.5181,-1.5181,-1.5181,-1.5181,-1.5181,-1.5181,-1.5181,-1.5181,-1.5181,-1.5181,-1.5181,-1.5181,-1.5181,-1.5181,-1.5181,-1.5181,-1.5181,-1.5181,-1.5181,-1.5181,-1.5181,-1.5181,-1.5181,-1.5174,-1.52,-1.5194,-1.5092,-1.5072,-1.5059,-1.5045,-1.4957,-1.4909,-1.4835,-1.4828,-1.4835,-1.4828,-1.4787,-1.4672,-1.4624,-1.4577,-1.4536,-1.4509,-1.4455,-1.4373,-1.438,-1.4441,-1.4414,-1.4346,-1.4333,-1.4299,-1.4326,-1.4572,-1.4694,-1.4741,-1.5052,-1.5174,-1.5181,-1.5181,-1.5181,-1.5181,-1.5181,-1.5181,-1.5181,-1.5181,-1.5181,-1.5181,-1.5181,-1.5181,-1.5181,-1.5181,-1.5181,-1.5181,-1.5181,-1.5181,-1.5181,-1.5181,-1.5181,-1.5181,-1.5187,-1.5262,-1.535,-1.5418,-1.5486,-1.5615,-1.5737,-1.5818,-1.5839,-1.5906,-1.5954,-1.5961,-1.5961,-1.5913,-1.5832,-1.5818,-1.5771,-1.5683,-1.56,-1.5573,-1.5553,-1.5553,-1.5533,-1.5451,-1.5323,-1.5228,-1.5221,-1.5208,-1.5215,-1.5208,-1.5187,-1.5181,-1.5181,-1.5181,-1.5181,-1.5181,-1.5181,-1.5181,-1.5181,-1.5181,-1.5181,-1.5181,-1.5181,-1.5181,-1.5181,-1.5181,-1.5181,-1.5181,-1.5181,-1.5181,-1.5181,-1.5181,-1.5181,-1.5181,-1.5181,-1.5181,-1.5181,-1.5181,-1.5181,-1.5181,-1.5181,-1.5174,-1.5174,-1.5167,-1.516,-1.516,-1.5147,-1.5113,-1.5092,-1.5045,-1.5045,-1.5059,-1.5099,-1.5059,-1.4896,-1.4787,-1.4719,-1.4685,-1.4652,-1.4618,-1.4563,-1.4584,-1.4611,-1.4543,-1.4475,-1.4428,-1.4299,-1.4319,-1.4536,-1.4626,-1.4728,-1.4977,-1.512,-1.5174,-1.5181,-1.5181,-1.5181,-1.5181,-1.5181,-1.5181,-1.5181,-1.5181,-1.5181,-1.5181,-1.5181,-1.5181,-1.5181,-1.5181,-1.5181,-1.5181,-1.5181,-1.5181,-1.5181,-1.5181,-1.5194,-1.5269,-1.5343,-1.5425,-1.5547,-1.5683,-1.5764,-1.5942,-1.6003,-1.6037,-1.6092,-1.6133,-1.6133,-1.6133,-1.6078,-1.6044,-1.6017,-1.5934,-1.5893,-1.5866,-1.5825,-1.5771,-1.575,-1.571,-1.5622,-1.5533,-1.5418,-1.5404,-1.535,-1.5303,-1.5276,-1.5242,-1.5181,-1.5181,-1.5187,-1.5181,-1.5181,-1.5181,-1.5187,-1.5181,-1.5181,-1.5181,-1.5181,-1.5181,-1.5181,-1.5181,-1.5181,-1.5181,-1.5181,-1.5181,-1.5181,-1.5181,-1.5181,-1.5181,-1.5181,-1.5181,-1.5181,-1.5181,-1.5181,-1.5181,-1.5181,-1.5181,-1.5181,-1.5181,-1.5181,-1.5181,-1.5181,-1.5181,-1.5181,-1.5181,-1.5181,-1.5181,-1.5181,-1.5174,-1.514,-1.5045,-1.4957,-1.4869,-1.4821,-1.4787,-1.4767,-1.4708,-1.4733,-1.4706,-1.462,-1.4566,-1.457,-1.4299,-1.4312,-1.4455,-1.4559,-1.4708,-1.4909,-1.5052,-1.5167,-1.5181,-1.5181,-1.5181,-1.5181,-1.5181,-1.5181,-1.5181,-1.5181,-1.5181,-1.5181,-1.5181,-1.5181,-1.5181,-1.5181,-1.5181,-1.5181,-1.5181,-1.5181,-1.5181,-1.5201,-1.5262,-1.5343,-1.5425,-1.556,-1.582,-1.5928,-1.5969,-1.6058,-1.6119,-1.6133,-1.6133,-1.6133,-1.6133,-1.6133,-1.6133,-1.6133,-1.6133,-1.6069,-1.6049,-1.6042,-1.5995,-1.5983,-1.5942,-1.5852,-1.575,-1.5681,-1.5681,-1.5648,-1.556,-1.5479,-1.5432,-1.5371,-1.5323,-1.533,-1.5289,-1.5282,-1.5269,-1.5282,-1.5228,-1.5194,-1.5181,-1.5181,-1.5181,-1.5181,-1.5181,-1.5181,-1.5181,-1.5181,-1.5181,-1.5181,-1.5181,-1.5181,-1.5181,-1.5181,-1.5181,-1.5181,-1.5181,-1.5181,-1.5181,-1.5181,-1.5181,-1.5181,-1.5181,-1.5181,-1.5181,-1.5181,-1.5181,-1.5181,-1.5181,-1.5181,-1.5181,-1.5181,-1.5181,-1.5181,-1.5147,-1.512,-1.5086,-1.5004,-1.4957,-1.4936,-1.4936,-1.4916,-1.4855,-1.4814,-1.4801,-1.4774,-1.474,-1.4299,-1.4312,-1.4448,-1.4559,-1.4701,-1.4896,-1.5091,-1.5214,-1.5174,-1.5181,-1.5181,-1.5181,-1.5181,-1.5181,-1.5181,-1.5181,-1.5181,-1.5181,-1.5181,-1.5181,-1.5181,-1.5181,-1.5181,-1.5181,-1.5181,-1.5187,-1.5194,-1.5262,-1.5364,-1.5418,-1.556,-1.5792,-1.5874,-1.5962,-1.6022,-1.6112,-1.6126,-1.6133,-1.6133,-1.6133,-1.6133,-1.6133,-1.6133,-1.6133,-1.6133,-1.6133,-1.6133,-1.6133,-1.6105,-1.6098,-1.6092,-1.6042,-1.6029,-1.6029,-1.6029,-1.5947,-1.5798,-1.556,-1.556,-1.5506,-1.5479,-1.5472,-1.5492,-1.5526,-1.5465,-1.5432,-1.5337,-1.5187,-1.5201,-1.5228,-1.5242,-1.5201,-1.5187,-1.5187,-1.5194,-1.5187,-1.5181,-1.5181,-1.5181,-1.5181,-1.5181,-1.5181,-1.5181,-1.5181,-1.5181,-1.5181,-1.5181,-1.5181,-1.5181,-1.5181,-1.5181,-1.5181,-1.5181,-1.5181,-1.5181,-1.5181,-1.5181,-1.5181,-1.5181,-1.5181,-1.5181,-1.5181,-1.5181,-1.5153,-1.518,-1.5173,-1.5086,-1.5079,-1.5113,-1.5086,-1.5018,-1.4984,-1.4964,-1.4936,-1.4903,-1.4299,-1.4306,-1.4367,-1.4475,-1.4579,-1.4774,-1.4923,-1.5059,-1.5194,-1.5181,-1.5181,-1.5181,-1.5181,-1.5181,-1.5181,-1.5181,-1.5181,-1.5181,-1.5181,-1.5181,-1.5181,-1.5181,-1.5181,-1.5181,-1.5181,-1.5201,-1.5276,-1.5404,-1.5493,-1.5554,-1.5662,-1.5881,-1.599,-1.6008,-1.6076,-1.6133,-1.6133,-1.6133,-1.6133,-1.6133,-1.6133,-1.6133,-1.6133,-1.6133,-1.6133,-1.6133,-1.6133,-1.6133,-1.6133,-1.6133,-1.6133,-1.6133,-1.6126,-1.6126,-1.6126,-1.6062,-1.5974,-1.5852,-1.5771,-1.5641,-1.5614,-1.5593,-1.5593,-1.5573,-1.5573,-1.5581,-1.5527,-1.5452,-1.5445,-1.5432,-1.5404,-1.5357,-1.5323,-1.5303,-1.5262,-1.5215,-1.5201,-1.5181,-1.5181,-1.5181,-1.5181,-1.5181,-1.5181,-1.5181,-1.5181,-1.5181,-1.5181,-1.5181,-1.5181,-1.5181,-1.5181,-1.5181,-1.5181,-1.5181,-1.5181,-1.5181,-1.5181,-1.5181,-1.5181,-1.5181,-1.5181,-1.5181,-1.5181,-1.5181,-1.5167,-1.5167,-1.5181,-1.5174,-1.5147,-1.516,-1.5181,-1.512,-1.5112,-1.5086,-1.5052,-1.4299,-1.4299,-1.4299,-1.438,-1.4523,-1.4626,-1.4835,-1.503,-1.5166,-1.5181,-1.5181,-1.5181,-1.5181,-1.5181,-1.5181,-1.5181,-1.5181,-1.5181,-1.5181,-1.5181,-1.5181,-1.5181,-1.5181,-1.5181,-1.5181,-1.5187,-1.5323,-1.5472,-1.5546,-1.5634,-1.5771,-1.5956,-1.6058,-1.6069,-1.6126,-1.6133,-1.6133,-1.6133,-1.6133,-1.6133,-1.6133,-1.6133,-1.6133,-1.6133,-1.6133,-1.6133,-1.6133,-1.6133,-1.6133,-1.6133,-1.6133,-1.6133,-1.6133,-1.6133,-1.6133,-1.6076,-1.6035,-1.6008,-1.592,-1.5839,-1.5764,-1.575,-1.5737,-1.5771,-1.5703,-1.5648,-1.5607,-1.556,-1.5553,-1.5566,-1.5566,-1.5472,-1.5438,-1.5438,-1.5391,-1.5309,-1.5248,-1.5269,-1.5228,-1.5181,-1.5181,-1.5181,-1.5181,-1.5181,-1.5181,-1.5181,-1.5181,-1.5181,-1.5181,-1.5181,-1.5181,-1.5181,-1.5181,-1.5181,-1.5181,-1.5181,-1.5181,-1.5181,-1.5181,-1.5181,-1.5181,-1.5181,-1.5181,-1.5181,-1.5181,-1.5181,-1.5181,-1.5181,-1.5181,-1.5181,-1.5181,-1.5181,-1.5167,-1.5181,-1.5174,-1.4299,-1.4299,-1.4299,-1.438,-1.4516,-1.4626,-1.4821,-1.5003,-1.5106,-1.5174,-1.5181,-1.5181,-1.5181,-1.5181,-1.5181,-1.5181,-1.5181,-1.5181,-1.5181,-1.5181,-1.5181,-1.5181,-1.5181,-1.5181,-1.5187,-1.5215,-1.5364,-1.552,-1.5642,-1.5791,-1.5913,-1.6098,-1.6112,-1.6126,-1.6133,-1.6133,-1.6133,-1.6133,-1.6133,-1.6133,-1.6133,-1.6133,-1.6133,-1.6133,-1.6133,-1.6133,-1.6133,-1.6133,-1.6133,-1.6133,-1.6133,-1.6133,-1.6133,-1.6133,-1.6133,-1.6133,-1.6133,-1.6105,-1.6064,-1.6058,-1.6085,-1.6042,-1.6015,-1.594,-1.5859,-1.5839,-1.5784,-1.5661,-1.5681,-1.5648,-1.5627,-1.558,-1.5622,-1.5594,-1.5547,-1.5472,-1.5418,-1.5398,-1.535,-1.5228,-1.5201,-1.5228,-1.5201,-1.5208,-1.5181,-1.5181,-1.5181,-1.5181,-1.5181,-1.5181,-1.5181,-1.5181,-1.5181,-1.5181,-1.5181,-1.5181,-1.5181,-1.5181,-1.5181,-1.5181,-1.5181,-1.5181,-1.5181,-1.5181,-1.5181,-1.5181,-1.5181,-1.5181,-1.5181,-1.5181,-1.5181,-1.5181,-1.5181,-1.5181,-1.5181,-1.4299,-1.4299,-1.4299,-1.4333,-1.4394,-1.4536,-1.4685,-1.4841,-1.4984,-1.5106,-1.5181,-1.5181,-1.5181,-1.5181,-1.5181,-1.5181,-1.5181,-1.5181,-1.5181,-1.5181,-1.5181,-1.5181,-1.5181,-1.5181,-1.5181,-1.5235,-1.5411,-1.5519,-1.56,-1.5859,-1.5988,-1.6069,-1.6133,-1.6133,-1.6133,-1.6133,-1.6133,-1.6133,-1.6133,-1.6133,-1.6133,-1.6133,-1.6133,-1.6133,-1.6133,-1.6133,-1.6133,-1.6133,-1.6133,-1.6133,-1.6133,-1.6133,-1.6133,-1.6133,-1.6133,-1.6133,-1.6133,-1.6133,-1.6133,-1.6133,-1.6133,-1.6133,-1.6076,-1.6056,-1.603,-1.6037,-1.6024,-1.5927,-1.5893,-1.5872,-1.59,-1.5832,-1.5771,-1.575,-1.5703,-1.5587,-1.5533,-1.5554,-1.5458,-1.5404,-1.535,-1.5337,-1.5289,-1.5242,-1.5208,-1.5181,-1.5181,-1.5181,-1.5181,-1.5181,-1.5181,-1.5181,-1.5181,-1.5181,-1.5181,-1.5181,-1.5181,-1.5181,-1.5181,-1.5181,-1.5181,-1.5181,-1.5181,-1.5181,-1.5181,-1.5181,-1.5181,-1.5181,-1.5181,-1.5181,-1.5181,-1.5181,-1.5181,-1.5181,-1.5181,-1.4299,-1.4299,-1.4299,-1.4299,-1.4319,-1.4455,-1.4552,-1.4701,-1.4909,-1.5098,-1.5181,-1.5181,-1.5181,-1.5181,-1.5181,-1.5181,-1.5181,-1.5181,-1.5181,-1.5181,-1.5181,-1.5181,-1.5181,-1.5181,-1.5187,-1.5255,-1.5466,-1.5587,-1.56,-1.594,-1.6049,-1.6126,-1.6133,-1.6133,-1.6133,-1.6133,-1.6133,-1.6133,-1.6133,-1.6133,-1.6133,-1.6133,-1.6133,-1.6133,-1.6133,-1.6133,-1.6133,-1.6133,-1.6133,-1.6133,-1.6133,-1.6133,-1.6133,-1.6133,-1.6133,-1.6133,-1.6133,-1.6133,-1.6133,-1.6133,-1.6133,-1.6133,-1.6133,-1.6126,-1.6133,-1.6133,-1.6098,-1.6105,-1.6112,-1.6126,-1.6076,-1.5974,-1.5927,-1.5906,-1.5879,-1.5818,-1.5744,-1.5696,-1.5655,-1.5588,-1.554,-1.5479,-1.5459,-1.5404,-1.5296,-1.5248,-1.5181,-1.5181,-1.5181,-1.5181,-1.5181,-1.5181,-1.5181,-1.5181,-1.5181,-1.5181,-1.5181,-1.5181,-1.5181,-1.5181,-1.5181,-1.5181,-1.5181,-1.5181,-1.5181,-1.5181,-1.5181,-1.5181,-1.5181,-1.5181,-1.5181,-1.5181,-1.5181,-1.5181,-1.5181,-1.4299,-1.4299,-1.4299,-1.4299,-1.4312,-1.4448,-1.459,-1.4681,-1.4903,-1.5052,-1.5174,-1.5181,-1.5181,-1.5181,-1.5181,-1.5181,-1.5181,-1.5181,-1.5181,-1.5181,-1.5181,-1.5181,-1.5181,-1.5181,-1.5181,-1.5255,-1.5445,-1.5553,-1.5593,-1.59,-1.6078,-1.6133,-1.6133,-1.6133,-1.6133,-1.6133,-1.6133,-1.6133,-1.6133,-1.6133,-1.6133,-1.6133,-1.6133,-1.6133,-1.6133,-1.6133,-1.6133,-1.6133,-1.6133,-1.6133,-1.6133,-1.6133,-1.6133,-1.6133,-1.6133,-1.6133,-1.6133,-1.6133,-1.6133,-1.6133,-1.6133,-1.6133,-1.6133,-1.6133,-1.6133,-1.6133,-1.6133,-1.6133,-1.6133,-1.6133,-1.6076,-1.6069,-1.6049,-1.6035,-1.6001,-1.5974,-1.5886,-1.5901,-1.5811,-1.5771,-1.5648,-1.5587,-1.558,-1.5533,-1.5391,-1.533,-1.5221,-1.5187,-1.5215,-1.5181,-1.5181,-1.5181,-1.5181,-1.5181,-1.5181,-1.5181,-1.5181,-1.5181,-1.5181,-1.5181,-1.5181,-1.5181,-1.5181,-1.5181,-1.5181,-1.5181,-1.5181,-1.5181,-1.5181,-1.5181,-1.5181,-1.5181,-1.5181,-1.5181,-1.5181,-1.4299,-1.4299,-1.4299,-1.4299,-1.4306,-1.4346,-1.4455,-1.4618,-1.4855,-1.5098,-1.516,-1.5181,-1.5181,-1.5181,-1.5181,-1.5181,-1.5181,-1.5181,-1.5181,-1.5181,-1.5181,-1.5181,-1.5181,-1.5181,-1.5181,-1.5235,-1.5398,-1.556,-1.5593,-1.5859,-1.5995,-1.6049,-1.6133,-1.6133,-1.6133,-1.6133,-1.6133,-1.6133,-1.6133,-1.6133,-1.6133,-1.6133,-1.6133,-1.6133,-1.6133,-1.6133,-1.6133,-1.6133,-1.6133,-1.6133,-1.6133,-1.6133,-1.6133,-1.6133,-1.6133,-1.6133,-1.6133,-1.6133,-1.6133,-1.6133,-1.6133,-1.6133,-1.6133,-1.6133,-1.6133,-1.6133,-1.6133,-1.6133,-1.6133,-1.6133,-1.6126,-1.6126,-1.6119,-1.6119,-1.6049,-1.6049,-1.6008,-1.6058,-1.5981,-1.594,-1.5879,-1.5702,-1.5648,-1.5681,-1.5628,-1.5533,-1.5438,-1.5357,-1.535,-1.5242,-1.5187,-1.5181,-1.5181,-1.5181,-1.5187,-1.5215,-1.5201,-1.5181,-1.5181,-1.5181,-1.5181,-1.5181,-1.5181,-1.5181,-1.5181,-1.5181,-1.5181,-1.5181,-1.5181,-1.5181,-1.5181,-1.5181,-1.5181,-1.5181,-1.5181,-1.5873,-1.5352,-1.5998,-1.5829,-1.5219,-1.4608,-1.4757,-1.5507,-1.5949,-1.6424,-1.7064,-1.6666,-1.6252,-1.6112,-1.5509,-1.5181,-1.5181,-1.5181,-1.5181,-1.5181,-1.5181,-1.5181,-1.5181,-1.5181,-1.5181,-1.5228,-1.5337,-1.5493,-1.5593,-1.5784,-1.5934,-1.6049,-1.6133,-1.6133,-1.6133,-1.6133,-1.6133,-1.6133,-1.6133,-1.6133,-1.6133,-1.6133,-1.6133,-1.6133,-1.6133,-1.6133,-1.6133,-1.6133,-1.6133,-1.6133,-1.6133,-1.6133,-1.6133,-1.6133,-1.6133,-1.6133,-1.6133,-1.6133,-1.6133,-1.6133,-1.6133,-1.6133,-1.6133,-1.6133,-1.6133,-1.6133,-1.6133,-1.6133,-1.6133,-1.6133,-1.6133,-1.6133,-1.6133,-1.6133,-1.6126,-1.6076,-1.6076,-1.6112,-1.6112,-1.6078,-1.6051,-1.5879,-1.5798,-1.5825,-1.5818,-1.5744,-1.5669,-1.5588,-1.5499,-1.5384,-1.5296,-1.5303,-1.5303,-1.533,-1.5316,-1.5289,-1.5255,-1.5194,-1.5201,-1.5228,-1.5181,-1.5181,-1.5181,-1.5181,-1.5181,-1.5181,-1.5181,-1.5181,-1.5181,-1.5181,-1.5181,-1.5181,-1.5181,-1.5181,-1.5181,-1.8785,-1.757,-1.9134,-1.8741,-1.7044,-1.5565,-1.5913,-1.7743,-1.7923,-1.9061,-2.0723,-1.8731,-1.8245,-1.7779,-1.6299,-1.5556,-1.5415,-1.5368,-1.5181,-1.5181,-1.5181,-1.5181,-1.5181,-1.5181,-1.5181,-1.5228,-1.5316,-1.5432,-1.558,-1.5784,-1.5976,-1.6049,-1.6126,-1.6133,-1.6133,-1.6133,-1.6133,-1.6133,-1.6133,-1.6133,-1.6133,-1.6133,-1.6133,-1.6133,-1.6133,-1.6133,-1.6133,-1.6133,-1.6133,-1.6133,-1.6133,-1.6133,-1.6133,-1.6133,-1.6133,-1.6133,-1.6133,-1.6133,-1.6133,-1.6133,-1.6133,-1.6133,-1.6133,-1.6133,-1.6133,-1.6133,-1.6133,-1.6133,-1.6133,-1.6133,-1.6133,-1.6133,-1.6133,-1.6133,-1.6133,-1.6126,-1.6133,-1.6126,-1.6126,-1.6119,-1.6119,-1.6008,-1.5995,-1.6001,-1.5947,-1.5934,-1.5859,-1.5805,-1.571,-1.5546,-1.5527,-1.5472,-1.552,-1.552,-1.5486,-1.5425,-1.5398,-1.5357,-1.5309,-1.5316,-1.5255,-1.5235,-1.5276,-1.5282,-1.5208,-1.5187,-1.5181,-1.5181,-1.5181,-1.5181,-1.5187,-1.5181,-1.5181,-1.5181,-1.5181,-1.9569,-1.9177,-1.9656,-1.9569,-1.9046,-1.8523,-1.8752,-1.9382,-1.9635,-2.0288,-2.0757,-2.0446,-2.0233,-2.0048,-1.8198,-1.7452,-1.6759,-1.6018,-1.5368,-1.5275,-1.5509,-1.5321,-1.5181,-1.5181,-1.5181,-1.5194,-1.5248,-1.535,-1.5513,-1.5758,-1.5983,-1.6112,-1.6126,-1.6133,-1.6133,-1.6133,-1.6133,-1.6133,-1.6133,-1.6133,-1.6133,-1.6133,-1.6133,-1.6133,-1.6133,-1.6133,-1.6133,-1.6133,-1.6133,-1.6133,-1.6133,-1.6133,-1.6133,-1.6133,-1.6133,-1.6133,-1.6133,-1.6133,-1.6133,-1.6133,-1.6133,-1.6133,-1.6133,-1.6133,-1.6133,-1.6133,-1.6133,-1.6133,-1.6133,-1.6133,-1.6133,-1.6133,-1.6133,-1.6133,-1.6133,-1.6133,-1.6133,-1.6133,-1.6133,-1.6133,-1.6133,-1.6133,-1.6133,-1.6119,-1.6022,-1.6049,-1.6035,-1.5974,-1.5906,-1.5784,-1.573,-1.5675,-1.5648,-1.5683,-1.558,-1.5526,-1.5506,-1.5527,-1.5472,-1.5445,-1.5466,-1.5452,-1.5432,-1.5384,-1.5323,-1.5248,-1.5181,-1.5208,-1.5276,-1.5208,-1.5194,-1.5187,-1.5181,-1.5187,-1.5187,-2.1651,-2.1132,-2.178,-2.204,-2.2093,-2.2093,-2.2123,-2.215,-2.1832,-2.204,-2.2896,-2.2495,-2.2264,-2.1942,-2.0279,-1.9259,-1.9175,-1.8431,-1.7499,-1.6526,-1.6346,-1.5784,-1.5556,-1.5275,-1.5181,-1.5181,-1.5201,-1.5282,-1.5452,-1.5696,-1.5983,-1.6119,-1.6133,-1.6133,-1.6133,-1.6133,-1.6133,-1.6133,-1.6133,-1.6133,-1.6133,-1.6133,-1.6133,-1.6133,-1.6133,-1.6133,-1.6133,-1.6133,-1.6133,-1.6133,-1.6133,-1.6133,-1.6133,-1.6133,-1.6133,-1.6133,-1.6133,-1.6133,-1.6133,-1.6133,-1.6133,-1.6133,-1.6133,-1.6133,-1.6133,-1.6133,-1.6133,-1.6133,-1.6133,-1.6133,-1.6133,-1.6133,-1.6133,-1.6133,-1.6133,-1.6133,-1.6133,-1.6133,-1.6133,-1.6133,-1.6133,-1.6133,-1.6133,-1.6133,-1.6133,-1.6126,-1.6126,-1.6098,-1.6008,-1.5947,-1.5906,-1.5893,-1.5866,-1.5832,-1.5778,-1.5716,-1.5683,-1.5649,-1.5539,-1.5533,-1.5593,-1.5573,-1.5506,-1.5499,-1.5445,-1.5384,-1.535,-1.5371,-1.5411,-1.5343,-1.5289,-1.5296,-1.5269,-1.5215,-1.5201,-2.4395,-2.3009,-2.4695,-2.5092,-2.5348,-2.5134,-2.5146,-2.528,-2.4006,-2.4619,-2.5776,-2.4912,-2.4339,-2.3927,-2.2264,-2.1388,-2.1065,-2.0511,-1.9398,-1.8338,-1.8338,-1.7592,-1.6205,-1.5462,-1.565,-1.5415,-1.5208,-1.5262,-1.5445,-1.5662,-1.5922,-1.6105,-1.6133,-1.6133,-1.6133,-1.6133,-1.6133,-1.6133,-1.6133,-1.6133,-1.6133,-1.6133,-1.6133,-1.6133,-1.6133,-1.6133,-1.6133,-1.6133,-1.6133,-1.6133,-1.6133,-1.6133,-1.6133,-1.6133,-1.6133,-1.6133,-1.6133,-1.6133,-1.6133,-1.6133,-1.6133,-1.6133,-1.6133,-1.6133,-1.6133,-1.6133,-1.6133,-1.6133,-1.6133,-1.6133,-1.6133,-1.6133,-1.6133,-1.6133,-1.6133,-1.6133,-1.6133,-1.6133,-1.6133,-1.6133,-1.6133,-1.6133,-1.6133,-1.6133,-1.6133,-1.6133,-1.6133,-1.6133,-1.6119,-1.6092,-1.6078,-1.6015,-1.5988,-1.594,-1.5913,-1.5859,-1.5811,-1.5764,-1.5716,-1.5681,-1.5749,-1.5695,-1.5614,-1.5622,-1.5581,-1.5539,-1.5526,-1.5512,-1.5492,-1.5533,-1.5486,-1.5445,-1.5384,-1.5323,-1.5235,-2.5134,-2.478,-2.522,-2.5391,-2.5391,-2.5391,-2.5391,-2.5372,-2.5327,-2.5591,-2.6198,-2.6279,-2.6197,-2.5776,-2.4202,-2.3377,-2.3137,-2.2356,-2.1019,-2.0511,-2.0372,-1.9306,-1.7779,-1.7359,-1.6666,-1.5556,-1.5208,-1.5262,-1.5425,-1.5608,-1.5764,-1.5962,-1.6044,-1.6105,-1.6133,-1.6133,-1.6133,-1.6133,-1.6133,-1.6133,-1.6133,-1.6133,-1.6133,-1.6133,-1.6133,-1.6133,-1.6133,-1.6133,-1.6133,-1.6133,-1.6133,-1.6133,-1.6133,-1.6133,-1.6133,-1.6133,-1.6133,-1.6133,-1.6133,-1.6133,-1.6133,-1.6133,-1.6133,-1.6133,-1.6133,-1.6133,-1.6133,-1.6133,-1.6133,-1.6133,-1.6133,-1.6133,-1.6133,-1.6133,-1.6133,-1.6133,-1.6133,-1.6133,-1.6133,-1.6133,-1.6133,-1.6133,-1.6133,-1.6133,-1.6133,-1.6133,-1.6133,-1.6133,-1.6133,-1.6112,-1.6112,-1.6105,-1.6112,-1.6085,-1.6058,-1.6037,-1.5983,-1.594,-1.5927,-1.594,-1.5954,-1.5879,-1.5805,-1.5764,-1.573,-1.5737,-1.5661,-1.5593,-1.5587,-1.5683,-1.5649,-1.5594,-1.5567,-1.5472,-1.5371,-2.5391,-2.5391,-2.5391,-2.5391,-2.5391,-2.5391,-2.5391,-2.5439,-2.5668,-2.5933,-2.6242,-2.6608,-2.6873,-2.7003,-2.5822,-2.5309,-2.5081,-2.435,-2.3377,-2.277,-2.2218,-2.1111,-2.0187,-1.9352,-1.8152,-1.69,-1.561,-1.5255,-1.5398,-1.5493,-1.5622,-1.5867,-1.5996,-1.6064,-1.6105,-1.6126,-1.6133,-1.6133,-1.6133,-1.6133,-1.6133,-1.6133,-1.6133,-1.6133,-1.6133,-1.6133,-1.6133,-1.6133,-1.6133,-1.6133,-1.6133,-1.6133,-1.6133,-1.6133,-1.6133,-1.6133,-1.6133,-1.6133,-1.6133,-1.6133,-1.6133,-1.6133,-1.6133,-1.6133,-1.6133,-1.6133,-1.6133,-1.6133,-1.6133,-1.6133,-1.6133,-1.6133,-1.6133,-1.6133,-1.6133,-1.6133,-1.6133,-1.6133,-1.6133,-1.6133,-1.6133,-1.6133,-1.6133,-1.6133,-1.6133,-1.6133,-1.6133,-1.6133,-1.6133,-1.6133,-1.6133,-1.6133,-1.6133,-1.6133,-1.6105,-1.6098,-1.6092,-1.6112,-1.6133,-1.6056,-1.6015,-1.6037,-1.5996,-1.5956,-1.5879,-1.5893,-1.5852,-1.5791,-1.5825,-1.5893,-1.5825,-1.5737,-1.5723,-1.5654,-1.5574,-2.5391,-2.5391,-2.5391,-2.5391,-2.5391,-2.5391,-2.5391,-2.5439,-2.5632,-2.594,-2.6174,-2.6427,-2.6704,-2.6954,-2.7027,-2.7027,-2.6755,-2.6106,-2.5411,-2.4807,-2.4487,-2.3183,-2.2126,-2.1342,-1.9816,-1.8105,-1.658,-1.5767,-1.5357,-1.5432,-1.5554,-1.5813,-1.5908,-1.5969,-1.6022,-1.6076,-1.6133,-1.6133,-1.6133,-1.6133,-1.6133,-1.6133,-1.6133,-1.6133,-1.6133,-1.6133,-1.6133,-1.6133,-1.6133,-1.6133,-1.6133,-1.6133,-1.6133,-1.6133,-1.6133,-1.6133,-1.6133,-1.6133,-1.6133,-1.6133,-1.6133,-1.6133,-1.6133,-1.6133,-1.6133,-1.6133,-1.6133,-1.6133,-1.6133,-1.6133,-1.6133,-1.6133,-1.6133,-1.6133,-1.6133,-1.6133,-1.6133,-1.6133,-1.6133,-1.6133,-1.6133,-1.6133,-1.6133,-1.6133,-1.6133,-1.6133,-1.6133,-1.6133,-1.6133,-1.6133,-1.6133,-1.6133,-1.6133,-1.6133,-1.6133,-1.6133,-1.6133,-1.6133,-1.6133,-1.6133,-1.6119,-1.6092,-1.6078,-1.6098,-1.6035,-1.6001,-1.6015,-1.5988,-1.6035,-1.6042,-1.5981,-1.5886,-1.5872,-1.5845,-1.5771,-2.5391,-2.5391,-2.5391,-2.5391,-2.5391,-2.5391,-2.5391,-2.5403,-2.5451,-2.5716,-2.609,-2.6291,-2.6544,-2.7027,-2.7027,-2.7027,-2.7027,-2.7027,-2.6981,-2.647,-2.6061,-2.499,-2.3927,-2.2999,-2.1111,-1.9398,-1.7872,-1.6789,-1.6118,-1.5689,-1.5432,-1.5527,-1.5826,-1.5901,-1.5949,-1.6024,-1.6112,-1.6119,-1.6133,-1.6133,-1.6133,-1.6133,-1.6133,-1.6133,-1.6133,-1.6133,-1.6133,-1.6133,-1.6133,-1.6133,-1.6133,-1.6133,-1.6133,-1.6133,-1.6133,-1.6133,-1.6133,-1.6133,-1.6133,-1.6133,-1.6133,-1.6133,-1.6133,-1.6133,-1.6133,-1.6133,-1.6133,-1.6133,-1.6133,-1.6133,-1.6133,-1.6133,-1.6133,-1.6133,-1.6133,-1.6133,-1.6133,-1.6133,-1.6133,-1.6133,-1.6133,-1.6133,-1.6133,-1.6133,-1.6133,-1.6133,-1.6133,-1.6133,-1.6133,-1.6133,-1.6133,-1.6133,-1.6133,-1.6133,-1.6133,-1.6133,-1.6133,-1.6133,-1.6133,-1.6133,-1.6133,-1.6133,-1.6133,-1.6133,-1.6133,-1.6105,-1.6126,-1.6133,-1.6126,-1.6112,-1.6069,-1.6035,-1.6064,-1.6037,-1.5913]},{"header":{"parameterUnit":"m.s-1","parameterCategory":1,"la1":31.0,"la2":29.5877,"lo1":-88.7671,"lo2":-86.6584,"dy":0.0162,"dx":0.0185,"nx":115,"ny":88,"refTime":"2023-10-19T18:00:00:Z","depth":0,"parameterNumber":3,"parameterNumberName":"V-component_of_WINDS"},"data":[0.0,0.0,0.0,0.0,0.0,0.0,0.0,0.0,0.0,0.0,0.0,0.0,0.0,0.0,0.0,0.0,0.0,0.0,0.0,0.0,0.0,0.0,0.0,0.0,0.0,0.0,0.0,0.0,0.0,0.0,0.0,0.0,0.0,0.0,0.0,0.0,0.0,0.0,0.0,0.0,0.0,0.0,0.0,0.0,0.0,0.0,0.0,0.0,0.0,0.0,0.0,0.0,0.0,0.0,0.0,0.0,0.0,0.0,0.0,0.0,0.0,0.0,0.0,0.0,0.0,0.0,0.0,0.0,0.0,0.0,0.0,0.0,0.0,0.0,0.0,0.0,0.0,0.0,0.0,0.0,0.0,0.0,0.0,0.0,0.0,0.0,0.0,0.0,0.0,0.0,0.0,0.0,0.0,0.0,0.0,0.0,0.0,0.0,0.0,0.0,0.0,0.0,0.0,0.0,0.0,0.0,0.0,0.0,0.0,0.0,0.0,0.0,0.0,0.0,0.0,0.0,0.0,0.0,0.0,0.0,0.0,0.0,0.0,0.0,0.0,0.0,0.0,0.0,0.0,0.0,0.0,0.0,0.0,0.0,0.0,0.0,0.0,0.0,0.0,0.0,0.0,0.0,0.0,0.0,0.0,0.0,0.0,0.0,0.0,0.0,0.0,0.0,0.0,0.0,0.0,0.0,0.0,0.0,0.0,0.0,0.0,0.0,0.0,0.0,0.0,0.0,0.0,0.0,0.0,0.0,0.0,0.0,0.0,0.0,0.0,0.0,0.0,0.0,0.0,0.0,0.0,0.0,0.0,0.0,0.0,0.0,0.0,0.0,0.0,0.0,0.0,0.0,0.0,0.0,0.0,0.0,0.0,0.0,0.0,0.0,0.0,0.0,0.0,0.0,0.0,0.0,0.0,0.0,0.0,0.0,0.0,0.0,0.0,0.0,0.0,0.0,0.0,0.0,0.0,0.0,0.0,0.0,0.0,0.0,0.0,0.0,0.0,0.0,0.0,0.0,0.0,0.0,0.0,0.0,0.0,0.0,0.0,0.0,0.0,0.0,0.0,0.0,0.0,0.0,0.0,0.0,0.0,0.0,0.0,0.0,0.0,0.0,0.0,0.0,0.0,0.0,0.0,0.0,0.0,0.0,0.0,0.0,0.0,0.0,0.0,0.0,0.0,0.0,0.0,0.0,0.0,0.0,0.0,0.0,0.0,0.0,0.0,0.0,0.0,0.0,0.0,0.0,0.0,0.0,0.0,0.0,0.0,0.0,0.0,0.0,0.0,0.0,0.0,0.0,0.0,0.0,0.0,0.0,0.0,0.0,0.0,0.0,0.0,0.0,0.0,0.0,0.0,0.0,0.0,0.0,0.0,0.0,0.0,0.0,0.0,0.0,0.0,0.0,0.0,0.0,0.0,0.0,0.0,0.0,0.0,0.0,0.0,0.0,0.0,0.0,0.0,0.0,0.0,0.0,0.0,0.0,0.0,0.0,0.0,0.0,0.0,0.0,0.0,0.0,0.0,0.0,0.0,0.0,0.0,0.0,0.0,0.0,0.0,0.0,0.0,0.0,0.0,0.0,0.0,0.0,0.0,0.0,0.0,0.0,0.0,0.0,0.0,0.0,0.0,0.0,0.0,0.0,0.0,0.0,0.0,0.0,0.0,0.0,0.0,0.0,0.0,0.0,0.0,0.0,0.0,0.0,0.0,0.0,0.0,0.0,0.0,0.0,0.0,0.0,0.0,0.0,0.0,0.0,0.0,0.0,0.0,0.0,0.0,0.0,0.0,0.0,0.0,0.0,0.0,0.0,0.0,0.0,0.0,0.0,0.0,0.0,0.0,0.0,0.0,0.0,0.0,0.0,0.0,0.0,0.0,0.0,0.0,0.0,0.0,0.0,0.0,0.0,0.0,0.0,0.0,0.0,0.0,0.0,0.0,0.0,0.0,0.0,0.0,0.0,0.0,0.0,0.0,0.0,0.0,0.0,0.0,0.0,0.0,0.0,0.0,0.0,0.0,0.0,0.0,0.0,0.0,0.0,0.0,0.0,0.0,0.0,0.0,0.0,0.0,0.0,0.0,0.0,0.0,0.0,0.0,0.0,0.0,0.0,0.0,0.0,0.0,0.0,0.0,0.0,0.0,0.0,0.0,0.0,0.0,0.0,0.0,0.0,0.0,0.0,0.0,0.0,0.0,0.0,0.0,0.0,0.0,0.0,0.0,0.0,0.0,0.0,0.0,0.0,0.0,0.0,0.0,0.0,0.0,0.0,0.0,0.0,0.0,0.0,0.0,0.0,0.0,0.0,0.0,0.0,0.0,0.0,0.0,0.0,0.0,0.0,0.0,0.0,0.0,0.0,0.0,0.0,0.0,0.0,0.0,0.0,0.0,0.0,0.0,0.0,0.0,0.0,0.0,0.0,0.0,0.0,0.0,0.0,0.0,0.0,0.0,0.0,0.0,0.0,0.0,0.0,0.0,0.0,0.0,0.0,0.0,0.0,0.0,0.0,0.0,0.0,0.0,0.0,0.0,0.0,0.0,0.0,0.0,0.0,0.0,0.0,0.0,0.0,0.0,0.0,0.0,0.0,0.0,0.0,0.0,0.0,0.0,0.0,0.0,0.0,0.0,0.0,0.0,0.0,0.0,0.0,0.0,0.0,0.0,0.0,0.0,0.0,0.0,0.0,0.0,0.0,0.0,0.0,0.0,0.0,0.0,0.0,0.0,0.0,0.0,0.0,0.0,0.0,0.0,0.0,0.0,0.0,0.0,0.0,0.0,0.0,0.0,0.0,0.0,0.0,0.0,0.0,0.0,0.0,0.0,0.0,0.0,0.0,0.0,0.0,0.0,0.0,0.0,0.0,0.0,0.0,0.0,0.0,0.0,0.0,0.0,0.0,0.0,0.0,0.0,0.0,0.0,0.0,0.0,0.0,0.0,0.0,0.0,0.0,0.0,0.0,0.0,0.0,0.0,0.0,0.0,0.0,0.0,0.0,0.0,0.0,0.0,0.0,0.0,0.0,0.0,0.0,0.0,0.0,0.0,0.0,0.0,0.0,0.0,0.0,0.0,0.0,0.0,0.0,0.0,0.0,0.0,0.0,0.0,0.0,0.0,0.0,0.0,0.0,0.0,0.0,0.0,0.0,0.0,0.0,0.0,0.0,0.0,0.0,0.0,0.0,0.0,0.0,0.0,0.0,0.0,0.0,0.0,0.0,0.0,0.0,0.0,0.0,0.0,0.0,0.0,0.0,0.0,0.0,0.0,0.0,0.0,0.0,0.0,0.0,0.0,0.0,0.0,0.0,0.0,0.0,0.0,0.0,0.0,0.0,0.0,0.0,0.0,0.0,0.0,0.0,0.0,0.0,0.0,0.0,0.0,0.0,0.0,0.0,0.0,0.0,0.0,0.0,0.0,0.0,0.0,0.0,0.0,0.0,0.0,0.0,0.0,0.0,0.0,0.0,0.0,0.0,0.0,0.0,0.0,0.0,0.0,0.0,0.0,0.0,0.0,0.0,0.0,0.0,0.0,0.0,0.0,0.0,0.0,0.0,0.0,0.0,0.0,0.0,0.0,0.0,0.0,0.0,0.0,0.0,0.0,0.0,0.0,0.0,0.0,0.0,0.0,0.0,0.0,0.0,0.0,0.0,0.0,0.0,0.0,0.0,0.0,0.0,0.0,0.0,0.0,0.0,0.0,0.0,0.0,0.0,0.0,0.0,0.0,0.0,0.0,0.0,0.0,0.0,0.0,0.0,0.0,0.0,0.0,0.0,0.0,0.0,0.0,0.0,0.0,0.0,0.0,0.0,0.0,0.0,0.0,0.0,0.0,0.0,0.0,0.0,0.0,0.0,0.0,0.0,0.0,0.0,0.0,0.0,0.0,0.0,0.0,0.0,0.0,0.0,0.0,0.0,0.0,0.0,0.0,0.0,0.0,0.0,0.0,0.0,0.0,0.0,0.0,0.0,0.0,0.0,0.0,0.0,0.0,0.0,0.0,0.0,0.0,0.0,0.0,0.0,0.0,0.0,0.0,0.0,0.0,0.0,0.0,0.0,0.0,0.0,0.0,0.0,0.0,0.0,0.0,0.0,0.0,0.0,0.0,0.0,0.0,0.0,0.0,0.0,0.0,0.0,0.0,0.0,0.0,0.0,0.0,0.0,0.0,0.0,0.0,0.0,0.0,0.0,0.0,0.0,0.0,0.0,0.0,0.0,0.0,0.0,0.0,0.0,0.0,0.0,0.0,0.0,0.0,0.0,0.0,0.0,4.5664,0.0,0.0,0.0,0.0,0.0,0.0,0.0,0.0,0.0,0.0,0.0,0.0,0.0,0.0,0.0,0.0,0.0,0.0,0.0,0.0,0.0,0.0,0.0,0.0,0.0,0.0,0.0,0.0,0.0,0.0,0.0,0.0,0.0,0.0,0.0,0.0,0.0,0.0,0.0,0.0,0.0,0.0,0.0,0.0,0.0,0.0,0.0,0.0,0.0,0.0,0.0,0.0,0.0,0.0,0.0,0.0,0.0,0.0,0.0,0.0,0.0,0.0,0.0,0.0,0.0,0.0,0.0,0.0,0.0,0.0,0.0,0.0,0.0,0.0,0.0,0.0,0.0,0.0,0.0,0.0,0.0,0.0,0.0,0.0,0.0,0.0,0.0,0.0,0.0,0.0,0.0,0.0,0.0,0.0,0.0,0.0,0.0,0.0,0.0,0.0,0.0,0.0,0.0,0.0,0.0,0.0,0.0,0.0,0.0,0.0,4.7835,4.7504,4.7504,4.7139,4.6411,0.0,0.0,0.0,0.0,0.0,0.0,0.0,0.0,0.0,0.0,0.0,0.0,0.0,0.0,0.0,0.0,0.0,0.0,0.0,0.0,0.0,0.0,0.0,0.0,0.0,0.0,0.0,0.0,0.0,0.0,0.0,0.0,0.0,0.0,0.0,0.0,0.0,0.0,0.0,0.0,0.0,0.0,0.0,0.0,0.0,0.0,0.0,0.0,0.0,0.0,0.0,0.0,0.0,0.0,0.0,0.0,0.0,0.0,0.0,0.0,0.0,0.0,0.0,0.0,0.0,0.0,0.0,0.0,0.0,0.0,0.0,0.0,0.0,0.0,0.0,0.0,0.0,0.0,0.0,0.0,0.0,0.0,0.0,0.0,0.0,0.0,0.0,0.0,0.0,0.0,0.0,0.0,0.0,0.0,0.0,0.0,0.0,0.0,0.0,0.0,0.0,0.0,0.0,0.0,0.0,0.0,0.0,0.0,0.0,0.0,0.0,0.0,4.8001,4.7736,4.7173,0.0,0.0,0.0,0.0,0.0,0.0,0.0,0.0,0.0,0.0,0.0,0.0,0.0,0.0,0.0,0.0,0.0,0.0,0.0,0.0,0.0,0.0,0.0,0.0,0.0,0.0,0.0,0.0,0.0,0.0,0.0,0.0,0.0,0.0,0.0,0.0,0.0,0.0,0.0,0.0,0.0,0.0,0.0,0.0,0.0,0.0,0.0,0.0,0.0,0.0,0.0,0.0,0.0,0.0,0.0,0.0,0.0,0.0,0.0,0.0,0.0,0.0,0.0,0.0,0.0,0.0,0.0,0.0,0.0,0.0,0.0,0.0,0.0,0.0,0.0,0.0,0.0,0.0,0.0,0.0,0.0,0.0,0.0,0.0,0.0,0.0,0.0,0.0,0.0,0.0,0.0,0.0,0.0,0.0,0.0,0.0,0.0,0.0,0.0,0.0,0.0,0.0,0.0,0.0,0.0,0.0,0.0,0.0,0.0,0.0,4.8001,4.8001,4.8001,0.0,4.7868,0.0,0.0,0.0,0.0,0.0,0.0,0.0,0.0,0.0,0.0,0.0,0.0,0.0,0.0,0.0,0.0,0.0,0.0,0.0,0.0,0.0,0.0,0.0,0.0,0.0,0.0,0.0,0.0,0.0,0.0,0.0,0.0,0.0,0.0,0.0,0.0,0.0,0.0,0.0,0.0,0.0,0.0,0.0,0.0,0.0,0.0,0.0,0.0,0.0,0.0,0.0,0.0,0.0,0.0,0.0,0.0,0.0,0.0,0.0,0.0,0.0,0.0,0.0,0.0,0.0,0.0,0.0,0.0,0.0,0.0,0.0,0.0,0.0,0.0,0.0,0.0,0.0,0.0,0.0,0.0,0.0,0.0,0.0,0.0,0.0,0.0,0.0,0.0,0.0,0.0,0.0,0.0,0.0,0.0,0.0,0.0,0.0,0.0,0.0,0.0,0.0,0.0,0.0,0.0,0.0,0.0,0.0,0.0,0.0,0.0,4.8001,4.8001,4.8001,4.8001,0.0,0.0,0.0,0.0,0.0,0.0,0.0,0.0,0.0,0.0,0.0,0.0,0.0,0.0,0.0,0.0,0.0,0.0,0.0,0.0,0.0,0.0,0.0,0.0,0.0,0.0,0.0,0.0,0.0,0.0,0.0,0.0,0.0,0.0,0.0,0.0,0.0,0.0,0.0,0.0,0.0,0.0,0.0,0.0,0.0,0.0,0.0,0.0,0.0,0.0,0.0,0.0,0.0,0.0,0.0,0.0,0.0,0.0,0.0,0.0,0.0,0.0,0.0,0.0,0.0,0.0,0.0,0.0,0.0,0.0,0.0,0.0,0.0,0.0,0.0,0.0,0.0,0.0,0.0,0.0,0.0,0.0,0.0,0.0,0.0,0.0,0.0,0.0,0.0,0.0,0.0,0.0,0.0,0.0,0.0,0.0,0.0,0.0,0.0,0.0,0.0,0.0,0.0,0.0,0.0,0.0,0.0,0.0,0.0,0.0,4.8001,4.8001,4.8001,4.8001,4.8001,4.8001,0.0,0.0,0.0,0.0,0.0,0.0,0.0,0.0,0.0,0.0,0.0,0.0,0.0,0.0,0.0,0.0,0.0,0.0,0.0,0.0,0.0,0.0,0.0,0.0,0.0,0.0,0.0,0.0,0.0,0.0,0.0,0.0,0.0,0.0,0.0,0.0,0.0,0.0,0.0,0.0,0.0,0.0,0.0,0.0,0.0,0.0,0.0,0.0,0.0,0.0,0.0,0.0,0.0,0.0,0.0,0.0,0.0,0.0,0.0,0.0,0.0,0.0,0.0,0.0,0.0,0.0,0.0,0.0,0.0,0.0,0.0,0.0,0.0,0.0,0.0,0.0,0.0,0.0,0.0,0.0,0.0,0.0,0.0,0.0,0.0,0.0,0.0,0.0,0.0,0.0,0.0,0.0,0.0,0.0,0.0,0.0,0.0,0.0,0.0,0.0,0.0,0.0,0.0,0.0,0.0,0.0,0.0,0.0,4.8001,4.8001,4.8001,4.8001,4.8001,4.8001,0.0,0.0,0.0,0.0,0.0,0.0,0.0,0.0,0.0,0.0,0.0,0.0,0.0,0.0,0.0,0.0,0.0,0.0,0.0,0.0,0.0,0.0,0.0,0.0,0.0,0.0,0.0,0.0,0.0,0.0,0.0,0.0,0.0,0.0,0.0,0.0,0.0,0.0,0.0,0.0,0.0,0.0,0.0,0.0,0.0,0.0,0.0,0.0,0.0,0.0,0.0,0.0,0.0,0.0,0.0,0.0,0.0,0.0,0.0,0.0,0.0,0.0,0.0,0.0,0.0,0.0,0.0,0.0,0.0,0.0,0.0,0.0,0.0,0.0,0.0,0.0,0.0,0.0,0.0,0.0,0.0,0.0,0.0,0.0,0.0,0.0,0.0,0.0,0.0,0.0,0.0,0.0,0.0,0.0,0.0,0.0,0.0,0.0,0.0,0.0,0.0,0.0,0.0,0.0,0.0,0.0,0.0,0.0,0.0,4.8001,4.8001,4.8001,4.8001,4.8001,4.8001,0.0,0.0,0.0,0.0,0.0,0.0,0.0,0.0,0.0,0.0,0.0,0.0,0.0,0.0,0.0,0.0,0.0,0.0,0.0,0.0,0.0,0.0,0.0,0.0,0.0,0.0,0.0,0.0,0.0,0.0,0.0,0.0,0.0,0.0,0.0,0.0,0.0,0.0,0.0,0.0,0.0,0.0,0.0,0.0,0.0,0.0,0.0,0.0,0.0,0.0,0.0,0.0,0.0,0.0,0.0,0.0,0.0,0.0,0.0,0.0,0.0,0.0,0.0,0.0,0.0,0.0,0.0,0.0,0.0,0.0,0.0,0.0,0.0,0.0,0.0,0.0,0.0,0.0,0.0,0.0,0.0,0.0,0.0,0.0,0.0,0.0,0.0,0.0,0.0,0.0,0.0,0.0,0.0,0.0,0.0,0.0,0.0,0.0,0.0,0.0,0.0,0.0,0.0,0.0,0.0,0.0,0.0,0.0,0.0,4.8001,0.0,4.8001,4.8001,4.8001,4.8001,0.0,0.0,0.0,0.0,0.0,0.0,0.0,0.0,0.0,0.0,0.0,0.0,0.0,0.0,0.0,0.0,0.0,0.0,0.0,0.0,0.0,0.0,0.0,0.0,0.0,0.0,0.0,0.0,0.0,0.0,0.0,0.0,0.0,0.0,0.0,0.0,0.0,0.0,0.0,0.0,0.0,0.0,0.0,0.0,0.0,0.0,0.0,0.0,0.0,0.0,0.0,0.0,0.0,0.0,0.0,0.0,0.0,0.0,0.0,0.0,0.0,0.0,0.0,0.0,0.0,0.0,0.0,0.0,0.0,0.0,0.0,0.0,0.0,0.0,0.0,0.0,0.0,0.0,0.0,0.0,0.0,0.0,0.0,0.0,0.0,0.0,0.0,0.0,0.0,0.0,0.0,0.0,0.0,0.0,0.0,0.0,0.0,0.0,0.0,0.0,0.0,0.0,0.0,0.0,0.0,0.0,0.0,0.0,4.8001,4.8001,4.8001,4.8001,4.8001,4.8001,4.8001,0.0,0.0,0.0,0.0,0.0,0.0,0.0,0.0,0.0,0.0,0.0,0.0,0.0,0.0,0.0,0.0,0.0,0.0,0.0,0.0,0.0,0.0,0.0,0.0,0.0,0.0,0.0,0.0,0.0,0.0,0.0,0.0,0.0,0.0,0.0,0.0,0.0,0.0,0.0,0.0,0.0,0.0,0.0,0.0,0.0,0.0,0.0,0.0,0.0,0.0,0.0,0.0,0.0,0.0,0.0,0.0,0.0,0.0,0.0,0.0,0.0,0.0,0.0,0.0,0.0,0.0,0.0,0.0,0.0,0.0,0.0,0.0,0.0,0.0,0.0,0.0,0.0,0.0,0.0,0.0,0.0,0.0,0.0,0.0,0.0,0.0,0.0,0.0,0.0,0.0,0.0,0.0,0.0,0.0,0.0,0.0,0.0,0.0,0.0,0.0,0.0,0.0,0.0,0.0,0.0,0.0,0.0,0.0,0.0,4.8001,4.8001,4.8001,4.8001,4.8001,4.8001,0.0,0.0,0.0,0.0,0.0,0.0,0.0,0.0,0.0,0.0,0.0,0.0,0.0,0.0,0.0,0.0,0.0,0.0,0.0,0.0,0.0,0.0,0.0,0.0,0.0,0.0,0.0,0.0,0.0,0.0,0.0,0.0,0.0,0.0,0.0,0.0,0.0,0.0,0.0,0.0,0.0,0.0,0.0,0.0,0.0,0.0,0.0,0.0,0.0,0.0,0.0,0.0,0.0,0.0,0.0,0.0,0.0,0.0,0.0,0.0,0.0,0.0,0.0,0.0,0.0,0.0,0.0,0.0,0.0,0.0,0.0,0.0,0.0,0.0,0.0,0.0,0.0,0.0,0.0,0.0,0.0,0.0,0.0,0.0,0.0,0.0,0.0,0.0,0.0,0.0,0.0,0.0,0.0,0.0,0.0,0.0,0.0,0.0,0.0,0.0,0.0,0.0,0.0,0.0,0.0,0.0,0.0,0.0,0.0,4.8001,4.8001,4.8001,4.8001,4.8001,4.8001,4.8001,0.0,0.0,0.0,0.0,0.0,0.0,0.0,0.0,0.0,0.0,0.0,0.0,0.0,0.0,0.0,0.0,0.0,0.0,0.0,0.0,0.0,0.0,0.0,0.0,0.0,0.0,0.0,0.0,0.0,0.0,0.0,0.0,0.0,0.0,0.0,0.0,0.0,0.0,0.0,0.0,0.0,0.0,0.0,0.0,0.0,0.0,0.0,0.0,0.0,0.0,0.0,0.0,0.0,0.0,0.0,0.0,0.0,0.0,0.0,0.0,0.0,0.0,0.0,0.0,0.0,0.0,0.0,0.0,0.0,0.0,0.0,0.0,0.0,0.0,0.0,0.0,0.0,0.0,0.0,0.0,0.0,0.0,0.0,0.0,0.0,0.0,0.0,0.0,0.0,0.0,0.0,0.0,0.0,0.0,0.0,0.0,0.0,0.0,0.0,0.0,0.0,0.0,0.0,0.0,0.0,0.0,0.0,0.0,4.8001,4.8001,4.8001,4.8001,4.8001,4.8001,0.0,0.0,0.0,0.0,0.0,0.0,0.0,0.0,0.0,0.0,0.0,0.0,0.0,0.0,0.0,0.0,0.0,0.0,0.0,0.0,0.0,0.0,0.0,0.0,0.0,0.0,0.0,0.0,0.0,0.0,0.0,0.0,0.0,0.0,0.0,0.0,0.0,0.0,0.0,0.0,0.0,0.0,0.0,0.0,0.0,0.0,0.0,0.0,0.0,0.0,0.0,0.0,0.0,0.0,0.0,0.0,0.0,0.0,0.0,0.0,0.0,0.0,0.0,0.0,0.0,0.0,0.0,0.0,0.0,0.0,0.0,0.0,0.0,0.0,0.0,0.0,0.0,0.0,0.0,0.0,0.0,0.0,0.0,0.0,0.0,0.0,0.0,0.0,0.0,0.0,0.0,0.0,0.0,0.0,0.0,0.0,0.0,0.0,0.0,0.0,0.0,0.0,0.0,0.0,0.0,0.0,0.0,0.0,0.0,4.8001,4.8001,4.8001,4.8001,4.8001,4.8001,0.0,0.0,0.0,0.0,0.0,0.0,0.0,0.0,0.0,0.0,0.0,0.0,0.0,0.0,0.0,0.0,0.0,0.0,0.0,0.0,0.0,0.0,0.0,0.0,0.0,0.0,0.0,0.0,0.0,0.0,0.0,0.0,0.0,0.0,0.0,0.0,0.0,0.0,0.0,0.0,0.0,0.0,0.0,0.0,0.0,0.0,0.0,0.0,0.0,0.0,0.0,0.0,0.0,0.0,0.0,0.0,0.0,0.0,0.0,0.0,0.0,0.0,0.0,0.0,0.0,0.0,0.0,0.0,0.0,0.0,0.0,0.0,0.0,0.0,0.0,0.0,0.0,0.0,0.0,0.0,0.0,0.0,0.0,0.0,0.0,0.0,0.0,0.0,0.0,0.0,0.0,0.0,0.0,0.0,0.0,0.0,0.0,0.0,0.0,0.0,0.0,0.0,0.0,0.0,0.0,0.0,0.0,0.0,4.8001,4.8001,4.8001,4.8001,4.8001,4.8001,4.8001,0.0,0.0,0.0,0.0,0.0,0.0,0.0,0.0,0.0,0.0,0.0,0.0,0.0,0.0,0.0,0.0,0.0,0.0,0.0,0.0,0.0,0.0,0.0,0.0,0.0,0.0,0.0,0.0,0.0,0.0,0.0,0.0,0.0,0.0,0.0,0.0,0.0,0.0,0.0,0.0,0.0,0.0,0.0,0.0,0.0,0.0,0.0,0.0,0.0,0.0,0.0,0.0,0.0,0.0,0.0,0.0,0.0,0.0,0.0,0.0,0.0,0.0,0.0,0.0,0.0,0.0,0.0,0.0,0.0,0.0,0.0,0.0,0.0,0.0,0.0,0.0,0.0,0.0,0.0,0.0,0.0,0.0,0.0,0.0,0.0,0.0,0.0,0.0,0.0,0.0,0.0,0.0,0.0,0.0,0.0,0.0,0.0,0.0,0.0,0.0,0.0,0.0,0.0,0.0,0.0,0.0,0.0,0.0,4.805,4.8033,4.8017,4.8033,4.8017,4.8001,4.8001,0.0,0.0,0.0,0.0,0.0,0.0,0.0,0.0,0.0,0.0,0.0,0.0,0.0,0.0,0.0,0.0,0.0,0.0,0.0,0.0,0.0,0.0,0.0,0.0,0.0,0.0,0.0,0.0,0.0,0.0,0.0,0.0,0.0,0.0,0.0,0.0,0.0,0.0,0.0,0.0,0.0,0.0,0.0,0.0,0.0,0.0,0.0,0.0,0.0,0.0,0.0,0.0,0.0,0.0,0.0,0.0,0.0,0.0,0.0,0.0,0.0,0.0,0.0,0.0,0.0,0.0,0.0,0.0,0.0,0.0,0.0,0.0,0.0,0.0,0.0,0.0,0.0,0.0,0.0,0.0,0.0,0.0,0.0,0.0,0.0,0.0,0.0,0.0,0.0,0.0,0.0,0.0,0.0,0.0,0.0,0.0,0.0,0.0,0.0,0.0,0.0,0.0,0.0,0.0,0.0,0.0,0.0,0.0,4.8308,4.8163,4.8147,4.8147,4.8147,4.8066,4.8001,0.0,0.0,0.0,0.0,0.0,0.0,0.0,0.0,0.0,0.0,0.0,0.0,0.0,0.0,0.0,0.0,0.0,0.0,0.0,0.0,0.0,0.0,0.0,0.0,0.0,0.0,0.0,0.0,0.0,0.0,0.0,0.0,0.0,0.0,0.0,0.0,0.0,0.0,0.0,0.0,0.0,0.0,0.0,0.0,0.0,0.0,0.0,0.0,5.2458,0.0,0.0,0.0,0.0,0.0,0.0,0.0,0.0,0.0,0.0,0.0,0.0,0.0,0.0,0.0,0.0,0.0,0.0,0.0,0.0,0.0,0.0,0.0,0.0,0.0,0.0,0.0,0.0,0.0,0.0,0.0,0.0,0.0,0.0,0.0,0.0,0.0,0.0,0.0,0.0,0.0,0.0,0.0,0.0,0.0,0.0,0.0,0.0,0.0,0.0,0.0,0.0,0.0,0.0,0.0,0.0,0.0,0.0,0.0,4.8804,4.8356,4.834,4.834,4.8324,4.826,4.8211,0.0,0.0,0.0,0.0,0.0,0.0,0.0,0.0,0.0,0.0,0.0,0.0,0.0,0.0,0.0,0.0,0.0,0.0,0.0,0.0,0.0,0.0,0.0,0.0,0.0,0.0,0.0,0.0,0.0,0.0,0.0,0.0,0.0,0.0,0.0,0.0,0.0,0.0,0.0,0.0,0.0,0.0,0.0,0.0,0.0,0.0,0.0,0.0,0.0,0.0,0.0,0.0,0.0,0.0,0.0,0.0,0.0,0.0,0.0,0.0,0.0,0.0,0.0,0.0,0.0,0.0,0.0,0.0,0.0,0.0,0.0,0.0,0.0,0.0,0.0,0.0,0.0,0.0,0.0,0.0,0.0,0.0,0.0,0.0,0.0,0.0,0.0,0.0,0.0,0.0,0.0,0.0,0.0,0.0,0.0,0.0,0.0,0.0,0.0,0.0,0.0,0.0,0.0,0.0,0.0,0.0,0.0,4.9886,4.9568,4.8916,4.8766,4.8699,4.8699,4.8746,4.8746,4.8746,0.0,0.0,0.0,0.0,0.0,0.0,0.0,0.0,0.0,0.0,0.0,0.0,0.0,0.0,0.0,0.0,0.0,0.0,0.0,0.0,0.0,0.0,0.0,0.0,0.0,0.0,0.0,0.0,0.0,0.0,0.0,0.0,0.0,0.0,0.0,0.0,0.0,0.0,5.1389,5.1584,0.0,0.0,0.0,0.0,0.0,0.0,0.0,0.0,5.248,0.0,0.0,0.0,0.0,0.0,0.0,0.0,0.0,0.0,0.0,0.0,0.0,0.0,0.0,0.0,0.0,0.0,0.0,0.0,0.0,0.0,0.0,0.0,0.0,0.0,0.0,0.0,0.0,0.0,0.0,0.0,0.0,0.0,0.0,0.0,0.0,0.0,0.0,0.0,0.0,0.0,0.0,0.0,0.0,0.0,0.0,0.0,0.0,0.0,0.0,0.0,0.0,0.0,0.0,0.0,0.0,5.1192,5.1192,5.098,5.0571,4.9983,4.968,4.968,4.9774,4.9819,4.9785,0.0,0.0,0.0,0.0,0.0,0.0,0.0,0.0,0.0,0.0,0.0,0.0,0.0,0.0,0.0,0.0,0.0,0.0,0.0,0.0,0.0,0.0,0.0,0.0,0.0,0.0,0.0,0.0,0.0,0.0,0.0,0.0,0.0,0.0,0.0,0.0,0.0,0.0,0.0,5.1944,5.209,0.0,0.0,0.0,0.0,0.0,0.0,0.0,0.0,5.248,0.0,0.0,0.0,0.0,0.0,0.0,0.0,0.0,0.0,0.0,0.0,0.0,0.0,0.0,0.0,0.0,0.0,0.0,0.0,0.0,0.0,0.0,0.0,0.0,0.0,0.0,0.0,0.0,0.0,0.0,0.0,0.0,0.0,0.0,0.0,0.0,0.0,0.0,0.0,0.0,0.0,0.0,0.0,0.0,0.0,0.0,0.0,0.0,0.0,0.0,0.0,0.0,0.0,0.0,0.0,5.2573,5.2492,5.2161,5.1629,5.1287,5.0945,5.0598,5.0724,5.0835,0.0,0.0,0.0,0.0,0.0,0.0,0.0,0.0,0.0,0.0,0.0,0.0,0.0,0.0,0.0,0.0,0.0,0.0,0.0,0.0,0.0,0.0,0.0,0.0,0.0,0.0,0.0,0.0,0.0,0.0,0.0,0.0,0.0,0.0,0.0,0.0,0.0,0.0,0.0,0.0,5.2162,5.2246,5.24,0.0,0.0,0.0,0.0,0.0,0.0,5.248,5.248,0.0,0.0,0.0,0.0,0.0,0.0,0.0,0.0,0.0,0.0,0.0,0.0,0.0,0.0,0.0,0.0,0.0,0.0,0.0,0.0,0.0,0.0,0.0,0.0,0.0,0.0,0.0,0.0,0.0,0.0,0.0,0.0,0.0,0.0,0.0,0.0,0.0,0.0,0.0,0.0,0.0,0.0,0.0,0.0,0.0,0.0,0.0,0.0,0.0,0.0,0.0,0.0,0.0,0.0,0.0,5.3916,5.3836,5.3478,5.2854,5.2681,5.2341,5.1818,5.1946,5.1993,0.0,0.0,0.0,0.0,0.0,0.0,0.0,0.0,0.0,0.0,0.0,0.0,0.0,0.0,0.0,0.0,0.0,0.0,0.0,0.0,0.0,0.0,0.0,0.0,0.0,0.0,0.0,0.0,0.0,0.0,0.0,0.0,0.0,0.0,0.0,0.0,0.0,0.0,0.0,0.0,0.0,5.2328,5.2468,5.248,0.0,0.0,0.0,0.0,5.248,5.248,0.0,0.0,0.0,0.0,0.0,0.0,0.0,0.0,0.0,0.0,0.0,0.0,0.0,0.0,0.0,0.0,0.0,0.0,0.0,0.0,0.0,0.0,0.0,0.0,0.0,0.0,0.0,0.0,0.0,0.0,0.0,0.0,0.0,0.0,0.0,0.0,0.0,0.0,0.0,0.0,0.0,0.0,0.0,0.0,0.0,0.0,0.0,0.0,0.0,0.0,0.0,0.0,0.0,0.0,0.0,0.0,5.5014,5.5197,5.5235,5.4998,5.4332,5.3917,5.3865,5.3797,5.3714,0.0,0.0,0.0,0.0,0.0,0.0,0.0,0.0,0.0,0.0,0.0,0.0,0.0,0.0,0.0,0.0,0.0,0.0,0.0,0.0,0.0,0.0,0.0,0.0,0.0,0.0,0.0,0.0,0.0,0.0,0.0,0.0,0.0,0.0,0.0,0.0,0.0,0.0,0.0,0.0,0.0,5.2364,5.2468,5.248,5.248,0.0,0.0,5.248,5.248,5.248,0.0,0.0,0.0,0.0,0.0,0.0,0.0,0.0,0.0,0.0,0.0,0.0,0.0,0.0,0.0,0.0,0.0,0.0,0.0,0.0,0.0,0.0,0.0,0.0,0.0,0.0,0.0,0.0,0.0,0.0,0.0,0.0,0.0,0.0,0.0,0.0,0.0,0.0,0.0,0.0,0.0,0.0,0.0,0.0,0.0,0.0,0.0,0.0,0.0,0.0,0.0,0.0,0.0,0.0,0.0,5.5476,5.5823,5.5915,5.5957,5.5887,5.5582,5.5235,5.489,5.4852,5.4808,0.0,0.0,0.0,0.0,0.0,0.0,0.0,0.0,0.0,0.0,0.0,0.0,0.0,0.0,0.0,0.0,0.0,0.0,0.0,0.0,0.0,0.0,0.0,0.0,0.0,0.0,0.0,0.0,0.0,0.0,0.0,0.0,0.0,0.0,0.0,0.0,0.0,0.0,0.0,0.0,0.0,0.0,5.3156,5.3204,0.0,0.0,0.0,5.3204,5.3168,0.0,0.0,0.0,0.0,0.0,0.0,0.0,0.0,0.0,0.0,0.0,0.0,0.0,0.0,0.0,0.0,0.0,0.0,0.0,0.0,0.0,0.0,0.0,0.0,0.0,0.0,0.0,0.0,0.0,0.0,0.0,0.0,0.0,0.0,0.0,0.0,0.0,0.0,0.0,0.0,0.0,0.0,0.0,0.0,0.0,0.0,0.0,0.0,0.0,0.0,0.0,0.0,0.0,0.0,0.0,0.0,0.0,5.6728,5.703,5.7178,5.7137,5.7123,5.6825,5.6177,5.6091,0.0,0.0,0.0,0.0,0.0,0.0,0.0,0.0,0.0,0.0,0.0,0.0,0.0,0.0,0.0,0.0,0.0,0.0,0.0,0.0,0.0,0.0,0.0,0.0,0.0,0.0,0.0,5.7338,0.0,0.0,0.0,0.0,0.0,0.0,0.0,0.0,0.0,0.0,0.0,0.0,0.0,0.0,5.4001,5.4001,5.4001,5.4001,0.0,0.0,5.4001,5.4001,5.3494,5.3096,0.0,0.0,0.0,0.0,0.0,0.0,0.0,0.0,0.0,0.0,0.0,0.0,0.0,0.0,0.0,0.0,0.0,0.0,0.0,0.0,0.0,0.0,0.0,0.0,0.0,0.0,0.0,0.0,0.0,0.0,0.0,0.0,0.0,0.0,0.0,0.0,0.0,0.0,0.0,0.0,0.0,0.0,0.0,0.0,0.0,0.0,0.0,0.0,0.0,0.0,0.0,0.0,0.0,0.0,0.0,5.7927,5.8996,5.9476,5.9381,5.9368,5.9006,5.8231,5.7958,5.7487,0.0,0.0,0.0,0.0,0.0,0.0,0.0,0.0,0.0,0.0,0.0,0.0,0.0,0.0,0.0,0.0,0.0,0.0,0.0,0.0,0.0,0.0,0.0,0.0,0.0,0.0,0.0,0.0,0.0,0.0,0.0,0.0,0.0,0.0,0.0,0.0,0.0,0.0,0.0,0.0,0.0,5.4834,5.4834,5.4834,5.4834,0.0,0.0,5.4834,5.4798,5.475,5.4725,5.4713,0.0,0.0,0.0,0.0,0.0,0.0,0.0,0.0,0.0,0.0,0.0,0.0,0.0,0.0,0.0,0.0,0.0,0.0,0.0,0.0,0.0,0.0,0.0,0.0,0.0,0.0,0.0,0.0,0.0,0.0,0.0,0.0,0.0,0.0,0.0,0.0,0.0,0.0,0.0,0.0,0.0,0.0,0.0,0.0,0.0,0.0,0.0,0.0,0.0,0.0,0.0,0.0,0.0,5.9029,5.9013,5.9579,5.9901,5.9838,5.9838,5.9692,5.9377,5.9235,5.8694,0.0,0.0,0.0,0.0,0.0,0.0,0.0,0.0,0.0,0.0,0.0,0.0,0.0,0.0,0.0,0.0,0.0,0.0,0.0,0.0,0.0,0.0,0.0,0.0,0.0,0.0,0.0,0.0,5.7703,5.7703,5.7751,0.0,0.0,0.0,0.0,0.0,0.0,0.0,0.0,0.0,0.0,5.58,5.5812,5.574,0.0,0.0,5.5619,5.5631,5.5668,5.5269,5.5002,5.5049,5.5061,0.0,0.0,0.0,0.0,0.0,0.0,0.0,0.0,0.0,0.0,0.0,0.0,0.0,0.0,0.0,0.0,0.0,0.0,0.0,0.0,0.0,0.0,0.0,0.0,0.0,0.0,0.0,0.0,0.0,0.0,0.0,0.0,0.0,0.0,0.0,0.0,0.0,0.0,0.0,0.0,0.0,0.0,0.0,0.0,0.0,0.0,0.0,0.0,0.0,0.0,0.0,0.0,6.0137,6.0085,6.0535,6.0733,6.0719,6.0719,6.061,6.0354,6.0265,5.9812,0.0,0.0,0.0,0.0,0.0,0.0,0.0,0.0,0.0,0.0,0.0,0.0,0.0,0.0,0.0,0.0,0.0,0.0,0.0,0.0,0.0,0.0,0.0,0.0,0.0,0.0,0.0,0.0,5.7985,5.7962,5.7927,0.0,0.0,0.0,0.0,0.0,0.0,0.0,0.0,0.0,0.0,5.6768,5.6815,5.6732,5.6696,5.6732,5.666,5.6636,5.672,5.6258,5.5894,5.5952,0.0,0.0,0.0,0.0,0.0,0.0,0.0,0.0,0.0,0.0,0.0,0.0,0.0,0.0,0.0,0.0,0.0,0.0,0.0,0.0,0.0,0.0,0.0,0.0,0.0,0.0,0.0,0.0,0.0,0.0,6.5167,0.0,0.0,0.0,0.0,0.0,0.0,0.0,0.0,0.0,0.0,0.0,0.0,0.0,0.0,0.0,0.0,0.0,0.0,0.0,0.0,0.0,0.0,6.1284,6.1193,6.2015,6.2429,6.2324,6.2347,6.1959,6.1193,6.1193,6.0792,5.999,0.0,0.0,0.0,0.0,0.0,0.0,0.0,0.0,0.0,0.0,0.0,0.0,0.0,0.0,0.0,0.0,0.0,0.0,0.0,0.0,0.0,0.0,0.0,0.0,0.0,0.0,5.8371,5.8393,5.8338,0.0,0.0,0.0,0.0,0.0,0.0,0.0,0.0,0.0,0.0,5.7679,5.7606,5.7725,5.7737,5.7796,5.7948,5.7948,5.7948,5.796,5.7923,5.7914,0.0,0.0,0.0,0.0,0.0,0.0,0.0,0.0,0.0,0.0,0.0,0.0,0.0,0.0,0.0,0.0,0.0,0.0,0.0,0.0,0.0,0.0,0.0,0.0,0.0,0.0,0.0,6.626,6.5779,0.0,0.0,0.0,0.0,0.0,0.0,0.0,0.0,0.0,0.0,0.0,6.6209,6.5948,0.0,0.0,0.0,0.0,0.0,0.0,0.0,0.0,0.0,0.0,0.0,0.0,6.2264,6.215,6.252,6.2705,6.2654,6.2654,6.2508,6.2301,6.2264,6.186,6.0943,0.0,0.0,0.0,0.0,0.0,0.0,0.0,0.0,0.0,0.0,0.0,0.0,0.0,0.0,0.0,0.0,0.0,0.0,0.0,0.0,0.0,0.0,0.0,0.0,0.0,5.8454,0.0,0.0,0.0,0.0,0.0,0.0,0.0,0.0,0.0,0.0,0.0,5.8534,5.8534,5.8402,5.8367,5.84,5.8308,5.8515,0.0,0.0,0.0,0.0,0.0,0.0,0.0,0.0,0.0,0.0,0.0,0.0,0.0,0.0,5.8117,5.784,5.779,5.783,5.797,0.0,0.0,0.0,0.0,0.0,0.0,0.0,0.0,0.0,0.0,0.0,0.0,0.0,0.0,6.7722,0.0,6.7154,0.0,0.0,0.0,0.0,0.0,0.0,0.0,0.0,6.7326,6.7391,6.7532,6.7232,6.7092,0.0,6.6869,6.5907,0.0,0.0,0.0,0.0,0.0,0.0,0.0,0.0,6.3699,6.3635,6.3661,6.3673,6.3673,6.3673,6.3673,6.3673,6.3673,6.3379,6.2765,6.2164,6.1749,0.0,0.0,0.0,0.0,0.0,0.0,0.0,0.0,0.0,0.0,0.0,0.0,0.0,0.0,0.0,0.0,0.0,0.0,0.0,0.0,0.0,0.0,0.0,5.9723,0.0,0.0,0.0,0.0,0.0,0.0,0.0,0.0,0.0,5.9665,5.9767,5.9897,5.9897,5.9776,5.9702,5.9702,0.0,0.0,0.0,0.0,0.0,0.0,0.0,5.9675,5.9753,5.9923,6.0079,6.0263,6.0434,6.0504,6.0504,0.0,0.0,5.929,5.9122,5.9159,5.9279,5.9307,5.9252,5.9065,5.8615,5.822,0.0,0.0,0.0,0.0,0.0,0.0,0.0,0.0,6.9484,6.9484,0.0,6.9334,0.0,0.0,0.0,0.0,0.0,6.9139,0.0,0.0,6.9223,6.9198,6.9286,6.8477,6.809,6.8052,6.7465,6.7126,6.7107,6.6844,0.0,0.0,0.0,0.0,0.0,0.0,6.5544,6.5495,6.5343,6.5327,6.529,6.5264,6.5301,6.529,6.529,6.5303,6.5316,6.5255,6.4962,6.4203,6.4242,0.0,0.0,0.0,0.0,0.0,0.0,0.0,0.0,0.0,0.0,0.0,0.0,0.0,0.0,0.0,0.0,0.0,0.0,0.0,0.0,6.1808,0.0,0.0,0.0,0.0,0.0,0.0,0.0,0.0,0.0,0.0,6.0958,6.1375,6.1826,6.1798,0.0,0.0,0.0,0.0,6.1817,6.1873,6.1826,6.1817,6.1873,6.1855,6.1845,6.1798,0.0,0.0,6.2565,6.249,6.2345,6.2421,6.2353,6.1831,6.0007,5.9708,5.9671,5.9679,5.9734,5.9572,5.9411,5.9439,5.9337,7.0123,0.0,0.0,0.0,0.0,6.9862,6.9881,6.9899,6.9937,6.9937,6.9899,6.991,0.0,0.0,0.0,0.0,0.0,0.0,6.9965,7.0135,7.0044,7.0115,7.0268,7.0047,6.9941,6.9903,6.9737,6.9606,6.9569,6.9481,6.8525,6.676,0.0,0.0,0.0,0.0,6.6239,6.628,6.5954,6.579,6.579,6.5469,6.5457,6.5778,6.579,6.5931,6.6198,6.6209,6.6179,6.6031,6.6063,0.0,0.0,0.0,0.0,0.0,0.0,0.0,0.0,0.0,0.0,0.0,0.0,0.0,0.0,0.0,0.0,0.0,0.0,0.0,6.2021,6.226,6.2345,0.0,0.0,0.0,0.0,0.0,0.0,0.0,0.0,0.0,6.3055,6.2589,6.2323,0.0,0.0,6.2176,6.2176,6.2193,6.2482,6.3188,0.0,0.0,0.0,6.2694,6.2237,6.2249,6.2424,6.2565,6.2581,6.2673,6.2757,6.2788,6.275,6.2552,6.2079,6.1825,6.1755,6.1895,6.1919,6.1682,6.0999,6.0814,6.0559,7.1689,7.1377,7.0582,7.0264,7.0264,7.0264,7.029,7.0331,7.0331,7.0331,7.0323,7.0281,7.0264,7.0264,7.0574,0.0,0.0,0.0,7.1387,7.1518,7.1518,7.1574,7.1712,7.1674,7.1712,7.1712,7.1674,7.1682,7.1628,7.1596,7.0849,6.936,0.0,0.0,6.8381,6.8537,6.8618,6.8671,6.8369,6.8237,6.8237,6.7934,6.7922,6.8226,6.8237,6.8335,6.857,6.8269,6.7952,6.7724,6.7427,6.7115,0.0,0.0,0.0,0.0,0.0,0.0,0.0,0.0,0.0,0.0,0.0,6.2756,6.2764,0.0,0.0,0.0,6.3201,6.3288,6.3432,6.3592,0.0,0.0,0.0,0.0,0.0,0.0,0.0,6.3574,6.4079,6.444,6.4511,6.3983,6.363,6.3648,6.3606,6.3533,6.3499,0.0,6.3764,6.4324,6.3908,6.3723,6.4315,6.3932,6.3557,6.359,6.3678,6.3703,6.3711,6.3825,6.3878,6.3885,6.3878,6.3878,6.3885,6.381,6.3467,6.3015,6.2884,6.2649,6.201,6.1865,6.1658,7.3507,7.3339,7.1505,7.0754,7.0762,7.0754,7.0808,7.0929,7.0929,7.0922,7.0922,7.08,7.0723,7.0792,7.1494,0.0,7.3113,7.3113,7.3153,7.3223,7.3223,7.3223,7.3223,7.3223,7.3223,7.3185,7.3223,7.3223,7.3169,7.3145,7.3105,7.3089,7.2034,7.1333,7.1092,7.1591,7.1874,7.1884,7.1718,7.1631,7.1587,7.1598,7.1609,7.1604,7.1642,7.1664,7.1659,7.0933,7.0181,6.9449,6.8768,6.8065,6.7339,0.0,0.0,0.0,0.0,0.0,0.0,0.0,0.0,0.0,0.0,0.0,0.0,0.0,0.0,0.0,6.519,0.0,6.5383,6.536,0.0,0.0,0.0,6.5324,6.5316,6.5392,6.543,6.5422,0.0,0.0,6.5518,0.0,6.5526,6.5526,6.5442,6.538,6.5316,6.5402,6.5464,6.5484,6.543,6.5422,6.5514,6.5402,6.5267,6.5223,6.5413,6.5291,6.5291,6.5291,6.5337,6.5299,6.5375,6.5337,6.5375,6.5253,6.4917,6.3419,6.3152,6.3077,6.2803,6.2734,6.2657,7.3507,7.3462,7.2988,7.2775,7.2813,7.2775,7.2782,7.2842,7.2842,7.2842,7.2842,7.2782,7.2775,7.2806,7.299,7.3183,7.3389,7.3428,7.3397,7.3418,7.3418,7.3418,7.3418,7.3418,7.3418,7.3418,7.3418,7.3389,7.3292,7.3277,7.3239,7.3215,7.351,7.331,7.2518,7.2516,7.2612,7.2722,7.2328,7.1968,7.1609,7.1598,7.1751,7.2112,7.2122,7.2309,7.2639,7.253,7.231,7.2095,7.1946,7.1709,7.1376,7.0124,0.0,0.0,0.0,0.0,0.0,0.0,0.0,0.0,0.0,6.569,6.5031,0.0,6.5306,0.0,6.5479,6.5523,6.5544,6.553,0.0,0.0,6.6083,6.6474,6.6415,6.6988,6.7385,6.7277,6.7277,6.7277,6.7254,6.73,6.7254,6.7262,6.6758,6.6368,6.6353,6.6903,6.7293,6.7231,6.7192,6.7231,6.7154,6.675,6.6155,6.549,6.5413,6.5413,6.5413,6.5413,6.5413,6.5413,6.5413,6.5413,6.5413,6.5413,6.5299,6.4879,6.4802,6.4604,6.3962,6.3833,6.3634,7.463,7.463,7.463,7.4584,7.4546,7.3815,7.3507,7.3507,7.3507,7.3507,7.3507,7.3507,7.3699,7.4046,7.4007,7.4238,7.4584,7.463,7.463,7.463,7.463,7.463,7.4623,7.463,7.4623,7.4623,7.463,7.4562,7.4487,7.4487,7.4504,7.4466,7.4919,7.4896,7.4309,7.415,7.4125,7.4175,7.395,7.3705,7.343,7.3421,7.3564,7.3796,7.3805,7.3941,7.4167,7.3918,7.3688,7.3639,7.3343,7.3097,7.2961,7.1655,7.0862,0.0,0.0,0.0,0.0,0.0,0.0,0.0,0.0,0.0,0.0,0.0,6.6694,6.6701,6.6765,6.6793,6.6758,6.6758,6.6758,6.6758,6.718,6.7458,6.7385,6.7798,6.8074,6.7913,6.7905,6.7905,6.7905,6.7905,6.7905,6.7905,6.7859,6.7668,6.7324,6.7637,6.7905,6.7905,6.7905,6.7905,6.7905,6.7523,6.7056,6.6636,6.6529,6.6483,6.6491,6.6522,6.6407,6.6063,6.5987,6.5834,6.549,6.5413,6.5413,6.5413,6.5413,6.5222,6.4848,6.4733,6.4573,7.5976,7.5976,7.5976,7.5976,7.5861,7.4437,7.3815,7.3815,7.3815,7.3815,7.3815,7.3815,7.4199,7.4853,7.4853,7.5277,7.5976,7.5976,7.5976,7.5976,7.5976,7.5976,7.5976,7.5976,7.5976,7.5976,7.5976,7.5976,7.5976,7.5976,7.5976,7.5976,7.5976,7.5978,7.5902,7.5802,7.5716,7.5692,7.5692,7.5692,7.5692,7.5692,7.5692,7.5692,7.5692,7.5692,7.5654,7.5049,7.4665,7.4619,7.3936,7.353,7.3522,7.2639,7.214,0.0,7.1264,0.0,0.0,0.0,0.0,0.0,0.0,0.0,0.0,6.8269,6.8283,6.822,6.8276,6.8283,6.8258,6.8213,6.8213,6.8213,6.8328,6.8376,6.8264,6.8364,6.8411,6.8288,6.8242,6.828,6.8326,6.828,6.828,6.8387,6.8914,6.9067,6.8394,6.8325,6.8363,6.8211,6.8211,6.8394,6.8211,6.8096,6.802,6.7905,6.779,6.7905,6.779,6.7828,6.7637,6.7018,6.6865,6.6636,6.5834,6.5757,6.5757,6.5872,6.5757,6.5566,6.5375,6.5337,6.5413,7.5976,7.5976,7.5976,7.5976,7.5976,7.5668,7.5515,7.5515,7.5515,7.5553,7.5515,7.5515,7.5592,7.5745,7.5745,7.5822,7.5976,7.5976,7.5976,7.5976,7.5976,7.5976,7.5976,7.5976,7.5976,7.5976,7.5976,7.5976,7.5976,7.5976,7.5976,7.5976,7.5976,7.6007,7.5993,0.0,0.0,0.0,7.5692,7.5692,7.5692,7.5692,7.5692,7.5692,7.5692,0.0,7.5692,7.5679,7.5564,7.547,7.5411,0.0,0.0,0.0,0.0,0.0,0.0,0.0,0.0,0.0,0.0,0.0,7.2513,7.1336,6.8559,6.8338,6.8371,6.8351,6.8365,6.8371,6.8351,6.8358,6.8351,6.839,6.9012,6.9369,6.9299,6.986,7.0261,7.0187,7.0172,7.0172,7.0164,7.0172,7.0141,7.011,7.0247,7.0224,6.9968,6.9884,6.9922,6.9922,6.9799,6.9655,6.9043,6.8929,6.8699,6.8134,6.7905,6.7943,6.7981,6.7981,6.7943,6.7668,6.7668,6.7637,6.74,6.7446,6.7332,6.74,6.6904,6.6254,6.5566,6.5413,6.5413,7.5976,0.0,7.5976,7.5976,0.0,7.5976,7.5976,7.5976,7.5976,7.5976,7.5976,7.5976,7.5976,7.5976,7.5976,7.5976,7.5976,7.5976,7.5976,7.5976,7.5976,7.5976,7.5976,7.5976,7.5976,7.5976,7.5976,7.5976,7.5976,7.5976,7.5976,7.5976,7.5976,7.5976,7.6015,7.6438,7.6401,7.5856,7.5856,7.5856,7.5856,7.5856,7.5856,7.5856,0.0,0.0,0.0,0.0,0.0,0.0,0.0,0.0,0.0,0.0,0.0,7.4649,7.3843,7.336,7.336,7.3397,7.3411,7.3411,7.3447,7.2762,7.1004,7.0909,7.093,7.0891,7.093,7.093,7.093,7.093,7.0891,7.093,7.1315,7.1518,7.1454,7.1747,7.1986,7.1957,7.1942,7.1942,7.1942,7.1942,7.1927,7.1881,7.1834,7.1802,7.1639,7.094,7.0411,7.0411,7.0411,7.0266,6.9884,6.9769,6.9693,6.9234,6.912,6.9158,6.912,6.9158,6.9043,6.8669,6.8555,6.8432,6.7981,6.7905,6.7905,6.7867,6.7561,6.7171,6.6636,6.5987,6.5413,7.6092,7.6245,7.6245,7.6322,7.6438,7.6438,7.6438,7.6399,0.0,0.0,0.0,7.5976,7.5976,7.5976,7.5976,7.5976,7.5976,7.5976,7.5976,7.6015,7.6169,7.6245,7.6245,7.6399,7.6438,7.6438,7.6438,7.6438,7.6438,7.6438,7.6438,7.6438,7.6438,7.6438,7.6515,7.713,7.7169,7.6476,7.6438,7.6438,7.6438,7.6438,7.6438,7.6438,7.6284,7.6245,7.6207,7.6092,7.5976,7.5976,7.5976,7.5976,7.5976,7.5322,7.4938,7.4899,7.4315,7.393,7.393,7.393,7.393,7.3969,7.393,7.3815,7.3546,7.3507,7.3507,7.3507,7.3507,7.3469,7.3507,7.3507,7.3507,7.3507,7.3507,7.3447,7.3313,7.3344,7.3245,7.3261,7.3177,7.3246,7.3177,7.3177,7.3239,7.3185,7.3023,7.3113,7.2928,7.1852,7.103,7.1022,7.1098,7.0946,7.0869,7.0916,7.0831,7.0877,7.0716,7.064,7.0602,7.0525,7.0143,6.954,6.9425,6.912,6.8555,6.8478,6.8325,6.8317,6.8203,6.8134,6.7981,6.6942,6.5987,7.6438,7.7099,7.7099,7.7522,7.8138,7.8138,7.8138,7.8023,7.663,7.6015,7.5976,7.5976,7.5976,7.5976,7.5976,7.5976,7.5976,7.5976,7.5976,0.0,7.6784,7.7138,7.7138,7.783,7.8176,7.8138,7.8138,7.8138,7.8138,7.8138,7.8138,7.8138,7.8138,7.8138,7.8176,7.8292,7.8292,7.8138,7.8138,7.8138,7.8138,7.8176,7.8176,7.8099,7.7484,7.7138,7.7138,7.6399,7.5976,7.5976,7.5976,7.5976,7.6015,7.5899,7.5822,7.5822,7.5707,7.563,7.563,7.5668,7.5668,7.563,7.563,7.5053,7.3661,7.3507,7.3507,7.3507,7.3584,7.3507,7.3507,7.3546,7.3623,7.3546,7.3507,7.35,7.3563,7.3563,7.3555,7.3587,7.3479,7.351,7.3579,7.3541,7.3558,7.3391,7.3545,7.3315,7.3267,7.2855,7.2643,7.2635,7.2635,7.2635,7.2444,7.2597,7.2482,7.2635,7.1956,7.1535,7.1527,7.103,7.0563,7.0296,7.0334,7.022,6.999,7.0067,6.9952,6.9846,6.9425,6.9043,6.9013,6.8203,6.7561,7.7599,7.7946,7.7946,7.8176,7.8484,7.8484,7.8484,7.8446,7.7715,7.7361,7.7369,7.7361,7.7369,7.7369,7.7361,7.7369,7.7361,7.7369,7.733,7.7407,7.7753,7.7946,7.7984,7.833,7.8484,7.8484,7.8484,7.8484,7.8484,7.8484,7.8484,7.8484,7.8484,7.8754,7.9169,7.9208,7.9438,7.9869,7.8984,7.8484,7.8484,7.8484,7.8484,7.8484,7.8138,7.7946,7.7946,7.7561,7.7361,7.7369,7.7369,7.7361,7.7361,7.7361,7.7361,7.7369,7.7369,7.7176,7.6707,7.6245,7.5976,7.5976,7.5976,7.5668,7.4938,7.4853,7.4853,7.4853,7.4861,7.4861,7.4861,7.4853,7.4861,7.4861,7.4861,7.4861,7.4861,7.4853,7.4861,7.4853,7.4853,7.4853,7.4861,7.4861,7.4846,7.4771,7.4734,7.462,7.451,7.4454,7.4082,7.3233,7.2979,7.2979,7.3025,7.2979,7.2979,7.2979,7.2673,7.2452,7.2414,7.1985,7.1833,7.1794,7.1794,7.1603,7.1259,7.1107,7.0916,7.0411,7.0151,6.9884,6.9799,6.9502,6.8967,7.8638,7.8784,7.8792,7.8907,7.9061,7.91,7.91,7.9061,7.91,7.91,7.9023,7.8677,7.8484,7.8484,7.8484,7.8484,7.8484,7.8484,7.8484,7.8523,7.8677,7.8792,7.883,7.8984,7.91,7.91,7.91,7.91,7.91,7.9061,7.91,7.91,7.91,7.9446,8.0085,8.0085,8.0439,8.0977,7.9746,7.91,7.91,7.91,7.9061,7.9061,7.8907,7.8792,7.8792,7.86,7.8484,7.8484,7.8484,7.8484,7.8484,7.8484,7.8484,7.8484,7.8484,7.8253,7.7599,7.6938,7.6553,7.6553,7.6553,7.6553,7.6553,7.6553,7.6361,7.6092,7.5899,7.5938,7.5899,7.5938,7.5976,7.5976,7.5976,7.5899,7.5976,7.5976,7.5976,7.5976,7.5976,7.5938,7.5976,7.5976,7.5938,7.5885,7.5955,7.5887,7.5779,7.5763,7.5085,7.4137,7.3619,7.3704,7.3619,7.3666,7.3696,7.3594,7.3433,7.3348,7.3263,7.3132,7.2979,7.2864,7.2902,7.2635,7.2147,7.1994,7.1764,7.1298,7.1145,7.0992,7.0754,7.0449,6.9914,7.8977,7.9631,7.9669,8.0169,8.0785,8.0823,8.0785,8.0785,8.0862,8.0862,8.0631,7.9215,7.8561,7.8484,7.8561,7.86,7.8561,7.8484,7.8561,7.8677,7.9323,7.9669,7.9746,8.0439,8.0862,8.0785,8.0746,8.0669,8.0708,8.0746,8.0823,8.0862,8.0862,8.09,8.0977,8.1016,8.1054,8.1093,8.0939,8.0862,8.0862,8.0862,8.0862,8.0862,8.0092,7.97,7.9662,7.89,7.8523,7.8484,7.8561,7.8523,7.8523,7.8523,7.8523,7.8523,7.8523,7.8446,7.8407,7.833,7.8215,7.8253,7.8176,7.8176,7.8176,7.8215,7.7599,7.6476,7.6053,7.613,7.6015,7.6092,7.6169,7.6207,7.6169,7.5976,7.6092,7.5976,7.5976,7.5976,7.6207,7.6015,7.6169,7.613,7.6053,7.613,7.6038,7.5963,7.5895,7.5879,7.5818,7.547,7.54,7.5362,7.5277,7.54,7.516,7.514,7.4711,7.4333,7.4062,7.3607,7.3055,7.3484,7.3208,7.317,7.2979,7.2864,7.2834,7.2482,7.2406,7.2444,7.1726,7.1068,7.0258,8.0246,8.0554,8.0592,8.0785,8.1093,8.1093,8.1093,8.1093,8.1093,8.1093,8.1016,8.0323,8.0015,8.0015,8.0054,8.0015,8.0054,8.0015,8.0054,8.0054,8.04,8.0554,8.0631,8.09,8.1093,8.1093,8.1093,8.1093,8.1093,8.1093,8.1323,8.1747,8.1823,8.2054,8.2516,8.2601,8.2593,8.2593,8.2593,8.2562,8.2439,8.1593,8.1093,8.1054,8.0746,8.0554,8.0554,8.0208,8.0023,8.0015,8.0015,8.0062,8.0015,8.0062,8.0015,8.0015,7.9554,7.9285,7.9246,7.8784,7.8484,7.8484,7.8484,7.8484,7.8484,7.8484,7.8176,7.7638,7.7476,7.7484,7.7445,7.7476,7.7484,7.7484,7.7476,7.7445,7.7484,7.7484,7.7484,7.7476,7.7484,7.7476,7.7407,7.7061,7.6784,7.6669,7.6399,7.6108,7.6001,7.5963,7.5917,7.5894,7.5879,7.5833,7.5724,7.5692,7.5676,7.5614,7.5414,7.5151,7.4962,7.4813,7.4537,7.4457,7.4372,7.4134,7.3781,7.3667,7.3628,7.3361,7.3017,7.2864,7.252,7.2176,7.1794,8.1093,8.1093,8.1093,8.1093,8.1093,8.1093,8.1093,8.1093,8.1093,8.1093,8.1093,8.1093,8.1093,8.1093,8.1093,8.1093,8.1093,8.1093,8.1093,8.1093,8.1093,8.1093,8.1093,8.1093,8.1208,8.14,8.1439,8.1554,8.1747,8.1785,8.2093,8.2601,8.2631,8.2986,8.3524,8.3601,8.3601,8.3563,8.3601,8.3601,8.3409,8.2408,8.1785,8.1785,8.1785,8.1785,8.1785,8.1785,8.167,8.1439,8.14,8.1323,8.1131,8.1093,8.1093,8.1054,8.0516,8.0169,8.0169,7.9554,7.9215,7.9215,7.9215,7.9215,7.9215,7.9215,7.9215,7.9215,7.9215,7.91,7.8523,7.8484,7.8484,7.8484,7.8484,7.8484,7.8446,7.8484,7.8446,7.8484,7.833,7.8484,7.8407,7.7984,7.7599,7.7561,7.7099,7.6707,7.6669,7.6746,7.6746,7.6707,7.6707,7.6432,7.5979,7.5818,7.5756,7.5771,7.5724,7.5662,7.5658,7.5603,7.5595,7.514,7.5434,7.5391,7.4788,7.455,7.4354,7.3866,7.3514,7.3323,7.3323,7.317,7.2979,8.1093,8.1093,8.1093,8.1093,8.1093,8.1093,8.1093,8.1093,8.1093,8.1093,8.1131,8.1131,8.1131,8.1208,8.1246,8.1131,8.1131,8.117,8.1208,8.1246,8.1208,8.1131,8.1093,8.1093,8.1516,8.2208,8.2247,8.2639,8.3332,8.3409,8.3524,8.3524,8.3563,8.3563,8.3755,8.3755,8.364,8.3793,8.3793,8.3678,8.3678,8.3563,8.3486,8.3486,8.3447,8.337,8.3409,8.3447,8.3101,8.2285,8.2247,8.1939,8.1246,8.117,8.1208,8.117,8.1131,8.1093,8.1093,8.1016,8.0977,8.0977,8.09,8.0939,8.0823,8.0746,8.0746,8.09,8.0746,8.0208,7.8946,7.883,7.8715,7.8677,7.86,7.8638,7.86,7.8792,7.8523,7.86,7.8754,7.883,7.8638,7.8484,7.8446,7.8446,7.8369,7.8253,7.8138,7.8215,7.8176,7.8176,7.8099,7.7823,7.643,7.6163,7.6094,7.6033,7.6071,7.5856,7.5771,7.5684,7.5723,7.5699,7.5641,7.5553,7.5544,7.5349,7.5115,7.4707,7.4201,7.4049,7.3858,7.3399,7.3361,8.1093,8.1093,8.1093,8.1093,8.1093,8.1093,8.1093,8.1093,8.1093,8.14,8.1823,8.1862,8.217,8.2678,8.2708,8.2401,8.19,8.1862,8.217,8.2631,8.2716,8.2716,8.2716,8.2716,8.2832,8.3093,8.3139,8.3293,8.3524,8.3601,8.3901,8.4362,8.4439,8.467,8.5093,8.5209,8.5209,8.5209,8.5209,8.5209,8.517,8.5209,8.5209,8.5132,8.414,8.3601,8.3601,8.3601,8.3447,8.3139,8.3139,8.2986,8.2755,8.2708,8.2708,8.267,8.2678,8.2716,8.2716,8.2716,8.2716,8.267,8.217,8.1862,8.1785,8.14,8.1093,8.1131,8.1093,8.0708,8.04,8.0169,8.0169,8.0131,8.0131,8.0092,8.0169,8.0169,8.0169,8.0177,8.0169,8.0169,7.9939,7.9669,7.9361,7.9285,7.8869,7.86,7.8523,7.8523,7.86,7.8523,7.8484,7.833,7.783,7.713,7.6815,7.6646,7.6501,7.6156,7.5918,7.601,7.6079,7.6108,7.5975,7.5874,7.5896,7.5425,7.5251,7.4418,7.4019,7.4448,7.4193,7.401,7.424,8.1093,8.1093,8.1093,8.1093,8.1131,8.14,8.1477,8.1516,8.1785,8.2208,8.267,8.2708,8.3062,8.3524,8.3601,8.3486,8.3093,8.2862,8.3062,8.3563,8.3601,8.3601,8.3601,8.3601,8.3747,8.4016,8.4294,8.4401,8.4409,8.4401,8.4709,8.5239,8.5286,8.5547,8.6017,8.6094,8.6094,8.6094,8.6094,8.6094,8.6094,8.6094,8.6094,8.594,8.4978,8.4401,8.4401,8.4409,8.4247,8.4063,8.4024,8.3901,8.364,8.3601,8.3601,8.3601,8.3563,8.3601,8.3601,8.3601,8.3563,8.3563,8.3101,8.2708,8.2678,8.2208,8.1939,8.19,8.19,8.19,8.19,8.19,8.1708,8.1246,8.1093,8.1093,8.1093,8.1054,8.1054,8.0977,8.0977,8.1016,8.1016,8.0554,8.0285,8.02,7.9669,7.9361,7.9323,7.9331,7.9369,7.9331,7.9446,7.9485,7.9208,7.8746,7.7984,7.77,7.7354,7.6855,7.657,7.6586,7.6563,7.6555,7.6485,7.6385,7.6076,7.5567,7.485,7.404,7.4329,7.4911,7.4809,7.4775,7.4821,8.1093,8.1093,8.1093,8.1131,8.1285,8.19,8.2247,8.2439,8.3139,8.3447,8.3563,8.3601,8.3678,8.3755,8.3901,8.4132,8.4555,8.4055,8.3755,8.387,8.3785,8.3824,8.3832,8.387,8.4247,8.4901,8.5662,8.5978,8.5863,8.5824,8.5901,8.6008,8.5978,8.5978,8.6094,8.6094,8.6094,8.6094,8.6094,8.6094,8.6094,8.6094,8.6094,8.6094,8.594,8.5901,8.5978,8.5978,8.5593,8.5016,8.4893,8.4516,8.3947,8.3832,8.3717,8.3832,8.3717,8.3678,8.3717,8.3793,8.387,8.387,8.3678,8.3601,8.3601,8.3447,8.3332,8.3293,8.3332,8.3447,8.337,8.337,8.2832,8.1477,8.14,8.14,8.1208,8.1093,8.1093,8.1093,8.1093,8.1093,8.1093,8.0977,8.09,8.09,8.0823,8.0746,8.0669,8.0669,8.0939,8.0939,8.0669,8.0439,8.0439,8.0362,7.9515,7.8792,7.8407,7.8008,7.7808,7.7793,7.7716,7.7678,7.7608,7.747,7.6707,7.6245,7.5975,7.5411,7.5616,7.5536,7.5578,7.5468,7.4983,8.1093,8.1093,8.1093,8.1439,8.19,8.2208,8.2631,8.3178,8.3524,8.3947,8.4439,8.4516,8.4786,8.5247,8.5324,8.544,8.5709,8.544,8.5324,8.5286,8.5286,8.5247,8.5286,8.5286,8.5478,8.5709,8.5978,8.6094,8.6094,8.6094,8.6094,8.6094,8.6094,8.6094,8.6094,8.6094,8.6094,8.6094,8.6094,8.6094,8.6094,8.6094,8.6094,8.6094,8.6094,8.6094,8.6094,8.6094,8.5978,8.5709,8.5709,8.5593,8.5363,8.5324,8.5324,8.5324,8.5324,8.5324,8.5324,8.5286,8.5247,8.5209,8.4824,8.4516,8.4401,8.3978,8.3678,8.364,8.3601,8.3601,8.3601,8.3601,8.3409,8.2862,8.2824,8.2485,8.1977,8.1477,8.1131,8.1093,8.1093,8.1093,8.1093,8.1131,8.1131,8.1093,8.1093,8.1093,8.1093,8.1093,8.1093,8.1093,8.1093,8.1093,8.09,8.0785,8.0362,7.9715,7.9331,7.9061,7.8946,7.8869,7.8792,7.8784,7.8723,7.8339,7.7585,7.7123,7.6938,7.6514,7.632,7.6309,7.6395,7.6123,7.5676,8.1093,8.1131,8.14,8.1823,8.2401,8.2939,8.3555,8.4093,8.4401,8.4824,8.5277,8.5363,8.5585,8.6017,8.6094,8.6094,8.6094,8.6094,8.6094,8.6094,8.6094,8.6094,8.6094,8.6094,8.6094,8.6094,8.6094,8.6094,8.6094,8.6094,8.6094,8.6094,8.6094,8.6094,8.6094,8.6094,8.6094,8.6094,8.6094,8.6094,8.6094,8.6094,8.6094,8.6094,8.6094,8.6094,8.6094,8.6094,8.6094,8.6094,8.6094,8.6094,8.6094,8.6055,8.6094,8.6094,8.6094,8.6055,8.6094,8.6017,8.6094,8.5978,8.5632,8.5354,8.5247,8.4747,8.4555,8.4516,8.4563,8.4516,8.4563,8.4563,8.4516,8.4524,8.3909,8.3409,8.2793,8.237,8.2093,8.2131,8.2093,8.19,8.1631,8.1554,8.14,8.1208,8.1093,8.1093,8.1093,8.1093,8.1093,8.1131,8.1093,8.1093,8.1093,8.1054,8.1054,8.0631,8.0215,8.0023,7.99,7.99,7.9862,7.99,7.9885,7.95,7.8831,7.8485,7.8231,7.7692,7.7253,7.7273,7.7368,7.6871,7.6454,8.1093,8.1208,8.1977,8.2324,8.2631,8.4047,8.4816,8.5093,8.567,8.594,8.6017,8.5978,8.6047,8.6094,8.6094,8.6094,8.6094,8.6094,8.6094,8.6094,8.6094,8.6094,8.6094,8.6094,8.6094,8.6094,8.6094,8.6094,8.6094,8.6094,8.6094,8.6094,8.6094,8.6094,8.6094,8.6094,8.6094,8.6094,8.6094,8.6094,8.6094,8.6094,8.6094,8.6094,8.6094,8.6094,8.6094,8.6094,8.6094,8.6094,8.6094,8.6094,8.6094,8.6094,8.6094,8.6094,8.6094,8.6094,8.6094,8.6094,8.6094,8.6094,8.6055,8.6094,8.594,8.5824,8.5747,8.5786,8.5863,8.5901,8.5901,8.5901,8.5901,8.5824,8.467,8.3832,8.3678,8.3563,8.3293,8.337,8.3524,8.3293,8.2477,8.2401,8.2062,8.167,8.1477,8.1554,8.1516,8.1593,8.1285,8.1246,8.1285,8.1093,8.1093,8.1093,8.1093,8.0977,8.0669,8.0592,8.0554,8.0592,8.0631,8.0708,8.0669,8.0362,8.0123,7.9723,7.9361,7.8969,7.8699,7.8543,7.8303,7.8007,7.7611,8.1093,8.117,8.1977,8.2678,8.337,8.4478,8.5239,8.5747,8.5978,8.6094,8.6094,8.6094,8.6094,8.6094,8.6094,8.6094,8.6094,8.6094,8.6094,8.6094,8.6094,8.6094,8.6094,8.6094,8.6094,8.6094,8.6094,8.6094,8.6094,8.6094,8.6094,8.6094,8.6094,8.6094,8.6094,8.6094,8.6094,8.6094,8.6094,8.6094,8.6094,8.6094,8.6094,8.6094,8.6094,8.6094,8.6094,8.6094,8.6094,8.6094,8.6094,8.6094,8.6094,8.6094,8.6094,8.6094,8.6094,8.6094,8.6094,8.6094,8.6094,8.6094,8.6094,8.6094,8.6094,8.6094,8.6094,8.6094,8.6094,8.6094,8.6094,8.6094,8.6094,8.5978,8.5132,8.4555,8.4478,8.3986,8.3601,8.3601,8.3678,8.3563,8.337,8.3255,8.3139,8.287,8.2747,8.2747,8.2524,8.2255,8.2016,8.1747,8.167,8.1285,8.1093,8.1093,8.1093,8.1093,8.0977,8.0939,8.09,8.09,8.0939,8.1016,8.0939,8.0708,8.0785,8.0623,8.0407,8.0007,8.0076,7.9899,7.9889,7.964,7.9177,8.1093,8.1208,8.2362,8.3139,8.3755,8.4901,8.567,8.6055,8.6094,8.6094,8.6094,8.6094,8.6094,8.6094,8.6094,8.6094,8.6094,8.6094,8.6094,8.6094,8.6094,8.6094,8.6094,8.6094,8.6094,8.6094,8.6094,8.6094,8.6094,8.6094,8.6094,8.6094,8.6094,8.6094,8.6094,8.6094,8.6094,8.6094,8.6094,8.6094,8.6094,8.6094,8.6094,8.6094,8.6094,8.6094,8.6094,8.6094,8.6094,8.6094,8.6094,8.6094,8.6094,8.6094,8.6094,8.6094,8.6094,8.6094,8.6094,8.6094,8.6094,8.6094,8.6094,8.6094,8.6094,8.6094,8.6094,8.6094,8.6094,8.6094,8.6094,8.6094,8.6094,8.6055,8.567,8.5401,8.5393,8.5016,8.4709,8.4632,8.4632,8.4478,8.4209,8.4132,8.3939,8.3678,8.3447,8.3447,8.3409,8.3101,8.2832,8.2631,8.2477,8.2285,8.2016,8.1939,8.1747,8.167,8.1439,8.14,8.1323,8.1246,8.1093,8.1093,8.1093,8.1093,8.1093,8.1093,8.0931,8.0769,8.1054,8.1038,8.0799,8.0605,8.018,8.1093,8.1246,8.2901,8.3601,8.3862,8.5363,8.6055,8.6094,8.6094,8.6094,8.6094,8.6094,8.6094,8.6094,8.6094,8.6094,8.6094,8.6094,8.6094,8.6094,8.6094,8.6094,8.6094,8.6094,8.6094,8.6094,8.6094,8.6094,8.6094,8.6094,8.6094,8.6094,8.6094,8.6094,8.617,8.6209,8.6239,8.6401,8.6594,8.6671,8.6671,8.6671,8.6709,8.6671,8.644,8.6286,8.617,8.6094,8.6094,8.6094,8.6094,8.6094,8.6094,8.6094,8.6094,8.6094,8.6094,8.6094,8.6094,8.6094,8.6094,8.6094,8.6094,8.6094,8.6094,8.6094,8.6094,8.6094,8.6094,8.6094,8.6094,8.6094,8.6094,8.6094,8.6047,8.6094,8.6094,8.6094,8.6094,8.6094,8.6047,8.5701,8.5316,8.497,8.4777,8.4593,8.4401,8.4439,8.4324,8.4016,8.3824,8.3708,8.3555,8.3447,8.3131,8.2862,8.2631,8.2439,8.2093,8.1939,8.1785,8.1631,8.1246,8.1093,8.1093,8.1093,8.1093,8.1093,8.1093,8.1093,8.1093,8.1093,8.1038,8.0922,8.0613,8.1093,8.1246,8.2909,8.3601,8.387,8.5363,8.6094,8.6094,8.6094,8.6094,8.6094,8.6094,8.6094,8.6094,8.6094,8.6094,8.6094,8.6094,8.6094,8.6094,8.6094,8.6094,8.6094,8.6094,8.6094,8.6094,8.6094,8.6094,8.6094,8.6094,8.6094,8.6094,8.6209,8.6094,8.6201,8.6824,8.7132,8.7248,8.7709,8.7987,8.7948,8.7948,8.7948,8.794,8.744,8.6786,8.6247,8.6094,8.6094,8.6094,8.6132,8.6209,8.6132,8.6094,8.6094,8.6094,8.6094,8.6094,8.6094,8.6094,8.6094,8.6094,8.6094,8.6094,8.6094,8.6094,8.6094,8.6094,8.6094,8.6094,8.6094,8.6094,8.6094,8.6094,8.6094,8.6094,8.6094,8.6094,8.6094,8.6094,8.6094,8.6017,8.5854,8.5747,8.5632,8.5517,8.5478,8.5517,8.5247,8.4863,8.4747,8.4593,8.4362,8.4209,8.4055,8.3708,8.3324,8.3062,8.2747,8.2554,8.2401,8.2131,8.1785,8.1439,8.1093,8.1131,8.1323,8.1093,8.1093,8.1093,8.1093,8.1093,8.1085,8.1061,8.1045,8.1093,8.1285,8.2909,8.3601,8.387,8.5363,8.6094,8.6094,8.6094,8.6094,8.6094,8.6094,8.6094,8.6094,8.6094,8.6094,8.6094,8.6094,8.6094,8.6094,8.6094,8.6094,8.6094,8.6094,8.6094,8.6094,8.6094,8.6094,8.6094,8.6094,8.6094,8.617,8.6478,8.6748,8.6824,8.7555,8.7987,8.8064,8.841,8.8679,8.8679,8.8679,8.8679,8.8679,8.8256,8.7748,8.7401,8.7363,8.7094,8.6824,8.6709,8.6478,8.617,8.6094,8.6094,8.6094,8.6094,8.6094,8.6094,8.6094,8.6094,8.6094,8.6094,8.6094,8.6094,8.6094,8.6094,8.6094,8.6094,8.6094,8.6094,8.6094,8.6094,8.6094,8.6094,8.6094,8.6094,8.6094,8.6094,8.6094,8.6094,8.6094,8.6094,8.6094,8.6055,8.5786,8.5786,8.5824,8.5824,8.5555,8.5517,8.5363,8.5093,8.4939,8.4824,8.4516,8.4016,8.367,8.3293,8.3216,8.3139,8.2793,8.2401,8.2131,8.19,8.1708,8.1785,8.1477,8.1208,8.1131,8.1131,8.1131,8.1123,8.1154,8.1108,8.1093,8.1246,8.2909,8.3601,8.387,8.5363,8.6094,8.6094,8.6094,8.6094,8.6094,8.6094,8.6094,8.6094,8.6094,8.6094,8.6094,8.6094,8.6094,8.6094,8.6094,8.6094,8.6094,8.6094,8.6094,8.6094,8.6094,8.6094,8.6094,8.6132,8.6247,8.6401,8.6978,8.7363,8.7709,8.841,8.8872,8.8902,8.9171,8.9334,8.9295,8.9257,8.9218,8.8979,8.894,8.8709,8.8487,8.841,8.8295,8.7671,8.7594,8.7209,8.6671,8.617,8.6094,8.6094,8.6094,8.6094,8.6094,8.6094,8.6094,8.6094,8.6094,8.6094,8.6094,8.6094,8.6094,8.6094,8.6094,8.6094,8.6094,8.6094,8.6094,8.6094,8.6094,8.6094,8.6094,8.6094,8.6094,8.6094,8.6094,8.6094,8.6094,8.6094,8.6094,8.6094,8.6094,8.6094,8.6094,8.6055,8.5931,8.5893,8.5593,8.5478,8.5401,8.5324,8.4824,8.4555,8.4132,8.4093,8.4132,8.4093,8.3862,8.3208,8.2939,8.267,8.2439,8.2285,8.1977,8.1516,8.1554,8.19,8.1747,8.1362,8.1285,8.1093,8.1246,8.2909,8.3601,8.387,8.5363,8.6055,8.6094,8.6094,8.6094,8.6094,8.6094,8.6094,8.6094,8.6094,8.6094,8.6094,8.6094,8.6094,8.6094,8.6094,8.6094,8.6094,8.6094,8.6094,8.6094,8.6094,8.6094,8.6094,8.6132,8.6555,8.7055,8.744,8.7825,8.8556,8.9248,8.971,8.9825,9.021,9.0479,9.0517,9.0517,9.0248,8.9787,8.971,8.944,8.894,8.8756,8.8603,8.8487,8.8487,8.8372,8.791,8.6901,8.6363,8.6324,8.6247,8.6286,8.6247,8.6132,8.6094,8.6094,8.6094,8.6094,8.6094,8.6094,8.6094,8.6094,8.6094,8.6094,8.6094,8.6094,8.6094,8.6094,8.6094,8.6094,8.6094,8.6094,8.6094,8.6094,8.6094,8.6094,8.6094,8.6094,8.6094,8.6094,8.6094,8.6094,8.6094,8.6094,8.6055,8.6055,8.6017,8.5978,8.5978,8.5901,8.5709,8.5593,8.5324,8.5324,8.5401,8.5632,8.5401,8.4478,8.3862,8.3478,8.3285,8.3093,8.2901,8.2593,8.2708,8.2862,8.2477,8.2093,8.1823,8.1093,8.1208,8.2439,8.3216,8.3793,8.4939,8.5747,8.6055,8.6094,8.6094,8.6094,8.6094,8.6094,8.6094,8.6094,8.6094,8.6094,8.6094,8.6094,8.6094,8.6094,8.6094,8.6094,8.6094,8.6094,8.6094,8.6094,8.6094,8.617,8.6594,8.7017,8.7478,8.8171,8.894,8.9402,9.0124,9.047,9.0663,9.097,9.1201,9.1201,9.1201,9.0893,9.0701,9.0547,9.0364,9.0133,8.9979,8.9748,8.944,8.9325,8.9094,8.8594,8.8094,8.744,8.7363,8.7055,8.6786,8.6632,8.644,8.6094,8.6094,8.6132,8.6094,8.6094,8.6094,8.6132,8.6094,8.6094,8.6094,8.6094,8.6094,8.6094,8.6094,8.6094,8.6094,8.6094,8.6094,8.6094,8.6094,8.6094,8.6094,8.6094,8.6094,8.6094,8.6094,8.6094,8.6094,8.6094,8.6094,8.6094,8.6094,8.6094,8.6094,8.6094,8.6094,8.6094,8.6094,8.6094,8.6094,8.6094,8.6055,8.5863,8.5324,8.4824,8.4324,8.4055,8.3862,8.3747,8.3678,8.3555,8.3401,8.3178,8.287,8.2631,8.1093,8.117,8.1977,8.2832,8.3678,8.4555,8.5363,8.6017,8.6094,8.6094,8.6094,8.6094,8.6094,8.6094,8.6094,8.6094,8.6094,8.6094,8.6094,8.6094,8.6094,8.6094,8.6094,8.6094,8.6094,8.6094,8.6094,8.6209,8.6555,8.7017,8.7478,8.8248,8.9432,9.0047,9.0278,9.0778,9.1124,9.1201,9.1201,9.1201,9.1201,9.1201,9.1201,9.1201,9.1201,9.1133,9.1018,9.0979,9.071,9.0355,9.0124,8.9902,8.9325,8.9218,8.9218,8.9026,8.8248,8.7786,8.7517,8.7171,8.6901,8.694,8.6709,8.6671,8.6594,8.6671,8.6363,8.617,8.6094,8.6094,8.6094,8.6094,8.6094,8.6094,8.6094,8.6094,8.6094,8.6094,8.6094,8.6094,8.6094,8.6094,8.6094,8.6094,8.6094,8.6094,8.6094,8.6094,8.6094,8.6094,8.6094,8.6094,8.6094,8.6094,8.6094,8.6094,8.6094,8.6094,8.6094,8.6094,8.6094,8.6094,8.5901,8.5747,8.5555,8.5093,8.4824,8.4709,8.4709,8.4593,8.4247,8.4016,8.3939,8.3785,8.3593,8.1093,8.117,8.1939,8.2832,8.364,8.4478,8.5316,8.6008,8.6055,8.6094,8.6094,8.6094,8.6094,8.6094,8.6094,8.6094,8.6094,8.6094,8.6094,8.6094,8.6094,8.6094,8.6094,8.6094,8.6094,8.6132,8.617,8.6555,8.7132,8.744,8.8248,8.9278,8.9739,9.0239,9.0864,9.1086,9.1163,9.1201,9.1201,9.1201,9.1201,9.1201,9.1201,9.1201,9.1201,9.1201,9.1201,9.1201,9.1047,9.1009,9.097,9.0979,9.0902,9.0902,9.0902,9.0441,8.9594,8.8526,8.8526,8.8218,8.8064,8.8025,8.8141,8.8333,8.7987,8.7517,8.6978,8.6132,8.6209,8.6363,8.644,8.6209,8.6132,8.6132,8.617,8.6132,8.6094,8.6094,8.6094,8.6094,8.6094,8.6094,8.6094,8.6094,8.6094,8.6094,8.6094,8.6094,8.6094,8.6094,8.6094,8.6094,8.6094,8.6094,8.6094,8.6094,8.6094,8.6094,8.6094,8.6094,8.6094,8.6094,8.6094,8.594,8.5816,8.5778,8.5555,8.5517,8.5709,8.5555,8.517,8.4978,8.4863,8.4709,8.4516,8.1093,8.1131,8.1477,8.2093,8.2947,8.3785,8.4632,8.5401,8.5893,8.6094,8.6094,8.6094,8.6094,8.6094,8.6094,8.6094,8.6094,8.6094,8.6094,8.6094,8.6094,8.6094,8.6094,8.6094,8.6094,8.6209,8.6632,8.7363,8.7863,8.8209,8.8825,8.9778,9.0393,9.0787,9.1171,9.1201,9.1201,9.1201,9.1201,9.1201,9.1201,9.1201,9.1201,9.1201,9.1201,9.1201,9.1201,9.1201,9.1201,9.1201,9.1201,9.1201,9.1163,9.1163,9.1163,9.1095,9.0594,8.9902,8.944,8.8987,8.8833,8.8718,8.8718,8.8603,8.8603,8.8363,8.8055,8.7632,8.7594,8.7517,8.7363,8.7094,8.6901,8.6786,8.6555,8.6286,8.6209,8.6094,8.6094,8.6094,8.6094,8.6094,8.6094,8.6094,8.6094,8.6094,8.6094,8.6094,8.6094,8.6094,8.6094,8.6094,8.6094,8.6094,8.6094,8.6094,8.6094,8.6094,8.6094,8.6094,8.6094,8.6094,8.6094,8.6094,8.6017,8.6017,8.6094,8.6055,8.5901,8.5978,8.6094,8.5747,8.5431,8.5555,8.5363,8.1093,8.1093,8.1093,8.1554,8.2362,8.3216,8.4132,8.497,8.5739,8.6094,8.6094,8.6094,8.6094,8.6094,8.6094,8.6094,8.6094,8.6094,8.6094,8.6094,8.6094,8.6094,8.6094,8.6094,8.6094,8.6132,8.6901,8.7748,8.8449,8.8949,8.944,9.0201,9.0778,9.1133,9.1163,9.1201,9.1201,9.1201,9.1201,9.1201,9.1201,9.1201,9.1201,9.1201,9.1201,9.1201,9.1201,9.1201,9.1201,9.1201,9.1201,9.1201,9.1201,9.1201,9.1201,9.1171,9.0941,9.0787,9.0287,8.9825,8.9402,8.9325,8.9248,8.944,8.9056,8.9026,8.8795,8.8526,8.8487,8.8564,8.8564,8.8025,8.7833,8.7555,8.7286,8.6824,8.6478,8.6594,8.6363,8.6094,8.6094,8.6094,8.6094,8.6094,8.6094,8.6094,8.6094,8.6094,8.6094,8.6094,8.6094,8.6094,8.6094,8.6094,8.6094,8.6094,8.6094,8.6094,8.6094,8.6094,8.6094,8.6094,8.6094,8.6094,8.6094,8.6094,8.6094,8.6094,8.6094,8.6094,8.6094,8.6094,8.6017,8.6094,8.6055,8.1093,8.1093,8.1093,8.1554,8.2324,8.3216,8.4055,8.4816,8.567,8.6055,8.6094,8.6094,8.6094,8.6094,8.6094,8.6094,8.6094,8.6094,8.6094,8.6094,8.6094,8.6094,8.6094,8.6094,8.6132,8.6286,8.7132,8.8017,8.8709,8.9556,9.0248,9.1009,9.1086,9.1163,9.1201,9.1201,9.1201,9.1201,9.1201,9.1201,9.1201,9.1201,9.1201,9.1201,9.1201,9.1201,9.1201,9.1201,9.1201,9.1201,9.1201,9.1201,9.1201,9.1201,9.1201,9.1201,9.1201,9.1047,9.0816,9.0778,9.0932,9.0979,9.0825,9.0402,8.994,8.9825,8.9517,8.9103,8.9218,8.9026,8.891,8.8641,8.8594,8.844,8.8171,8.7748,8.744,8.7325,8.7055,8.6363,8.6209,8.6363,8.6209,8.6247,8.6094,8.6094,8.6094,8.6094,8.6094,8.6094,8.6094,8.6094,8.6094,8.6094,8.6094,8.6094,8.6094,8.6094,8.6094,8.6094,8.6094,8.6094,8.6094,8.6094,8.6094,8.6094,8.6094,8.6094,8.6094,8.6094,8.6094,8.6094,8.6094,8.6094,8.6094,8.1093,8.1093,8.1093,8.1285,8.1631,8.2439,8.3285,8.417,8.4978,8.567,8.6094,8.6094,8.6094,8.6094,8.6094,8.6094,8.6094,8.6094,8.6094,8.6094,8.6094,8.6094,8.6094,8.6094,8.6094,8.6401,8.7401,8.8295,8.8756,8.994,9.0671,9.1133,9.1201,9.1201,9.1201,9.1201,9.1201,9.1201,9.1201,9.1201,9.1201,9.1201,9.1201,9.1201,9.1201,9.1201,9.1201,9.1201,9.1201,9.1201,9.1201,9.1201,9.1201,9.1201,9.1201,9.1201,9.1201,9.1201,9.1201,9.1201,9.1201,9.1201,9.1171,9.1056,9.0624,9.0663,9.0586,9.0325,9.0133,9.0017,9.0171,8.9787,8.944,8.9325,8.9056,8.8679,8.8372,8.8209,8.7948,8.7363,8.7055,8.6978,8.6709,8.644,8.6247,8.6094,8.6094,8.6094,8.6094,8.6094,8.6094,8.6094,8.6094,8.6094,8.6094,8.6094,8.6094,8.6094,8.6094,8.6094,8.6094,8.6094,8.6094,8.6094,8.6094,8.6094,8.6094,8.6094,8.6094,8.6094,8.6094,8.6094,8.6094,8.6094,8.6094,8.1093,8.1093,8.1093,8.1093,8.1208,8.1977,8.2793,8.364,8.4555,8.5354,8.6094,8.6094,8.6094,8.6094,8.6094,8.6094,8.6094,8.6094,8.6094,8.6094,8.6094,8.6094,8.6094,8.6094,8.6132,8.6517,8.7709,8.8679,8.8756,9.0402,9.1018,9.1163,9.1201,9.1201,9.1201,9.1201,9.1201,9.1201,9.1201,9.1201,9.1201,9.1201,9.1201,9.1201,9.1201,9.1201,9.1201,9.1201,9.1201,9.1201,9.1201,9.1201,9.1201,9.1201,9.1201,9.1201,9.1201,9.1201,9.1201,9.1201,9.1201,9.1201,9.1201,9.1163,9.1201,9.1201,9.1009,9.1047,9.1086,9.1163,9.1171,9.0594,9.0325,9.021,9.0056,8.971,8.9286,8.9017,8.8786,8.8402,8.8132,8.7786,8.7671,8.7363,8.6748,8.6478,8.6094,8.6094,8.6094,8.6094,8.6094,8.6094,8.6094,8.6094,8.6094,8.6094,8.6094,8.6094,8.6094,8.6094,8.6094,8.6094,8.6094,8.6094,8.6094,8.6094,8.6094,8.6094,8.6094,8.6094,8.6094,8.6094,8.6094,8.6094,8.6094,8.1093,8.1093,8.1093,8.1093,8.117,8.1939,8.2747,8.3524,8.4516,8.5363,8.6055,8.6094,8.6094,8.6094,8.6094,8.6094,8.6094,8.6094,8.6094,8.6094,8.6094,8.6094,8.6094,8.6094,8.6094,8.6517,8.7594,8.8487,8.8718,9.0171,9.0893,9.1201,9.1201,9.1201,9.1201,9.1201,9.1201,9.1201,9.1201,9.1201,9.1201,9.1201,9.1201,9.1201,9.1201,9.1201,9.1201,9.1201,9.1201,9.1201,9.1201,9.1201,9.1201,9.1201,9.1201,9.1201,9.1201,9.1201,9.1201,9.1201,9.1201,9.1201,9.1201,9.1201,9.1201,9.1201,9.1201,9.1201,9.1201,9.1201,9.1171,9.1133,9.1018,9.0941,9.0748,9.0594,9.0094,8.9893,8.9671,8.944,8.9026,8.8679,8.8641,8.8372,8.7564,8.694,8.6324,8.6132,8.6286,8.6094,8.6094,8.6094,8.6094,8.6094,8.6094,8.6094,8.6094,8.6094,8.6094,8.6094,8.6094,8.6094,8.6094,8.6094,8.6094,8.6094,8.6094,8.6094,8.6094,8.6094,8.6094,8.6094,8.6094,8.6094,8.6094,8.1093,8.1093,8.1093,8.1093,8.1131,8.1362,8.1977,8.2901,8.4247,8.5354,8.5978,8.6094,8.6094,8.6094,8.6094,8.6094,8.6094,8.6094,8.6094,8.6094,8.6094,8.6094,8.6094,8.6094,8.6094,8.6401,8.7325,8.8248,8.8718,8.994,9.071,9.1018,9.1201,9.1201,9.1201,9.1201,9.1201,9.1201,9.1201,9.1201,9.1201,9.1201,9.1201,9.1201,9.1201,9.1201,9.1201,9.1201,9.1201,9.1201,9.1201,9.1201,9.1201,9.1201,9.1201,9.1201,9.1201,9.1201,9.1201,9.1201,9.1201,9.1201,9.1201,9.1201,9.1201,9.1201,9.1201,9.1201,9.1201,9.1201,9.1163,9.1163,9.1124,9.1124,9.1018,9.1018,9.0787,9.0778,9.0633,9.0402,9.0056,8.9334,8.9026,8.9218,8.8632,8.8094,8.7555,8.7094,8.7055,8.644,8.6132,8.6094,8.6094,8.6094,8.6132,8.6286,8.6209,8.6094,8.6094,8.6094,8.6094,8.6094,8.6094,8.6094,8.6094,8.6094,8.6094,8.6094,8.6094,8.6094,8.6094,8.6094,8.6094,8.6094,8.6094,8.072,8.086,8.0655,8.0728,8.0885,8.1037,8.1606,8.2659,8.4007,8.499,8.5541,8.5739,8.5858,8.5884,8.6035,8.6094,8.6094,8.6094,8.6094,8.6094,8.6094,8.6094,8.6094,8.6094,8.6094,8.6363,8.6978,8.7863,8.8718,8.9517,9.0364,9.1018,9.1201,9.1201,9.1201,9.1201,9.1201,9.1201,9.1201,9.1201,9.1201,9.1201,9.1201,9.1201,9.1201,9.1201,9.1201,9.1201,9.1201,9.1201,9.1201,9.1201,9.1201,9.1201,9.1201,9.1201,9.1201,9.1201,9.1201,9.1201,9.1201,9.1201,9.1201,9.1201,9.1201,9.1201,9.1201,9.1201,9.1201,9.1201,9.1201,9.1201,9.1201,9.1201,9.1163,9.1171,9.1171,9.1086,9.1086,9.0893,9.074,9.0056,8.9594,8.9748,8.971,8.9286,8.8863,8.8402,8.7902,8.7248,8.6748,8.6786,8.6786,8.694,8.6863,8.6709,8.6517,8.617,8.6209,8.6363,8.6094,8.6094,8.6094,8.6094,8.6094,8.6094,8.6094,8.6094,8.6094,8.6094,8.6094,8.6094,8.6094,8.6094,8.6094,7.9972,8.0287,7.9889,7.9982,8.0401,8.078,8.1627,8.2808,8.3648,8.4237,8.4689,8.5151,8.5377,8.5475,8.5849,8.6026,8.6052,8.606,8.6094,8.6094,8.6094,8.6094,8.6094,8.6094,8.6094,8.6363,8.6863,8.7517,8.8641,8.9517,9.0316,9.1018,9.1163,9.1201,9.1201,9.1201,9.1201,9.1201,9.1201,9.1201,9.1201,9.1201,9.1201,9.1201,9.1201,9.1201,9.1201,9.1201,9.1201,9.1201,9.1201,9.1201,9.1201,9.1201,9.1201,9.1201,9.1201,9.1201,9.1201,9.1201,9.1201,9.1201,9.1201,9.1201,9.1201,9.1201,9.1201,9.1201,9.1201,9.1201,9.1201,9.1201,9.1201,9.1201,9.1201,9.1163,9.1201,9.1163,9.1163,9.1124,9.1124,9.0787,9.071,9.0748,9.0441,9.0364,8.994,8.9633,8.9094,8.8449,8.8055,8.8025,8.8017,8.8017,8.7825,8.7478,8.7325,8.7094,8.6824,8.6863,8.6517,8.6401,8.6632,8.6671,8.6247,8.6132,8.6094,8.6094,8.6094,8.6094,8.6132,8.6094,8.6094,8.6094,8.6094,7.9783,7.9878,7.9762,7.9783,7.991,8.0033,8.0621,8.1516,8.238,8.3106,8.3836,8.4555,8.4887,8.4931,8.5387,8.5542,8.5721,8.5902,8.606,8.6077,8.6035,8.6069,8.6094,8.6094,8.6094,8.617,8.6478,8.7055,8.7979,8.9086,9.0355,9.1086,9.1163,9.1201,9.1201,9.1201,9.1201,9.1201,9.1201,9.1201,9.1201,9.1201,9.1201,9.1201,9.1201,9.1201,9.1201,9.1201,9.1201,9.1201,9.1201,9.1201,9.1201,9.1201,9.1201,9.1201,9.1201,9.1201,9.1201,9.1201,9.1201,9.1201,9.1201,9.1201,9.1201,9.1201,9.1201,9.1201,9.1201,9.1201,9.1201,9.1201,9.1201,9.1201,9.1201,9.1201,9.1201,9.1201,9.1201,9.1201,9.1201,9.1201,9.1201,9.1124,9.0864,9.1018,9.0941,9.0594,9.021,8.9517,8.921,8.918,8.9026,8.894,8.8641,8.8333,8.8218,8.8055,8.7748,8.7594,8.7709,8.7632,8.7517,8.7248,8.6901,8.6478,8.6094,8.6247,8.6632,8.6247,8.617,8.6132,8.6094,8.6132,8.6132,7.9244,7.9384,7.9208,7.9137,7.9162,7.9162,7.9438,8.0038,8.1299,8.2254,8.2912,8.3952,8.4378,8.4462,8.4876,8.5114,8.5173,8.5337,8.5533,8.5766,8.584,8.5945,8.6026,8.6077,8.6094,8.6094,8.6209,8.6671,8.7632,8.9017,9.0355,9.1124,9.1201,9.1201,9.1201,9.1201,9.1201,9.1201,9.1201,9.1201,9.1201,9.1201,9.1201,9.1201,9.1201,9.1201,9.1201,9.1201,9.1201,9.1201,9.1201,9.1201,9.1201,9.1201,9.1201,9.1201,9.1201,9.1201,9.1201,9.1201,9.1201,9.1201,9.1201,9.1201,9.1201,9.1201,9.1201,9.1201,9.1201,9.1201,9.1201,9.1201,9.1201,9.1201,9.1201,9.1201,9.1201,9.1201,9.1201,9.1201,9.1201,9.1201,9.1201,9.1201,9.1201,9.1163,9.1163,9.1009,9.0787,9.0441,9.021,9.0133,8.9979,8.9787,8.9479,8.9133,8.894,8.8748,8.841,8.8372,8.8718,8.8603,8.8218,8.7902,8.7594,8.7248,8.7055,8.7171,8.7401,8.7017,8.6709,8.6748,8.6594,8.6286,8.6209,7.8565,7.8941,7.8471,7.8386,7.8304,7.8373,7.841,7.8531,8.0399,8.1479,8.2063,8.3267,8.3843,8.3962,8.4378,8.4604,8.4685,8.4821,8.5082,8.5357,8.5357,8.5514,8.5867,8.6043,8.6009,8.6052,8.6247,8.6555,8.7594,8.8825,9.0009,9.1047,9.1201,9.1201,9.1201,9.1201,9.1201,9.1201,9.1201,9.1201,9.1201,9.1201,9.1201,9.1201,9.1201,9.1201,9.1201,9.1201,9.1201,9.1201,9.1201,9.1201,9.1201,9.1201,9.1201,9.1201,9.1201,9.1201,9.1201,9.1201,9.1201,9.1201,9.1201,9.1201,9.1201,9.1201,9.1201,9.1201,9.1201,9.1201,9.1201,9.1201,9.1201,9.1201,9.1201,9.1201,9.1201,9.1201,9.1201,9.1201,9.1201,9.1201,9.1201,9.1201,9.1201,9.1201,9.1201,9.1201,9.1124,9.097,9.0893,9.0825,9.0671,9.0402,9.0248,8.994,8.9671,8.9402,8.9133,8.9218,8.9603,8.9295,8.8833,8.8594,8.8363,8.841,8.8333,8.8256,8.8141,8.8094,8.7825,8.7594,8.7248,8.6901,8.6401,7.8373,7.8444,7.8345,7.829,7.829,7.829,7.829,7.8378,7.9419,8.04,8.1231,8.2559,8.3404,8.3494,8.3883,8.4117,8.4142,8.4353,8.4696,8.4821,8.4854,8.5103,8.5475,8.5561,8.5739,8.6026,8.6247,8.6555,8.7478,8.8517,8.9402,9.0239,9.0701,9.1047,9.1201,9.1201,9.1201,9.1201,9.1201,9.1201,9.1201,9.1201,9.1201,9.1201,9.1201,9.1201,9.1201,9.1201,9.1201,9.1201,9.1201,9.1201,9.1201,9.1201,9.1201,9.1201,9.1201,9.1201,9.1201,9.1201,9.1201,9.1201,9.1201,9.1201,9.1201,9.1201,9.1201,9.1201,9.1201,9.1201,9.1201,9.1201,9.1201,9.1201,9.1201,9.1201,9.1201,9.1201,9.1201,9.1201,9.1201,9.1201,9.1201,9.1201,9.1201,9.1201,9.1201,9.1201,9.1201,9.1086,9.1086,9.1047,9.1086,9.0932,9.0778,9.0663,9.0355,9.0402,9.0325,9.0402,9.0479,9.0056,8.9633,8.9402,8.921,8.9248,8.9103,8.8718,8.8679,8.894,8.8748,8.844,8.8286,8.8025,8.7171,7.829,7.829,7.829,7.829,7.829,7.829,7.829,7.8439,7.9145,7.9962,8.0765,8.2043,8.286,8.3106,8.348,8.3596,8.3665,8.3881,8.4117,8.4242,8.439,8.4673,8.4899,8.5093,8.5397,8.5693,8.6056,8.6517,8.7325,8.7863,8.8594,8.9701,9.0432,9.0816,9.1047,9.1163,9.1201,9.1201,9.1201,9.1201,9.1201,9.1201,9.1201,9.1201,9.1201,9.1201,9.1201,9.1201,9.1201,9.1201,9.1201,9.1201,9.1201,9.1201,9.1201,9.1201,9.1201,9.1201,9.1201,9.1201,9.1201,9.1201,9.1201,9.1201,9.1201,9.1201,9.1201,9.1201,9.1201,9.1201,9.1201,9.1201,9.1201,9.1201,9.1201,9.1201,9.1201,9.1201,9.1201,9.1201,9.1201,9.1201,9.1201,9.1201,9.1201,9.1201,9.1201,9.1201,9.1201,9.1201,9.1201,9.1201,9.1201,9.1201,9.1047,9.1009,9.097,9.1086,9.1201,9.1056,9.0825,9.0663,9.0432,9.0201,9.0056,9.0133,8.9902,8.9556,8.9748,9.0133,8.9748,8.9248,8.9171,8.9064,8.8325,7.829,7.829,7.829,7.829,7.829,7.829,7.829,7.8439,7.9033,7.9837,8.0705,8.1486,8.234,8.2957,8.318,8.318,8.3268,8.3433,8.3606,8.3747,8.3841,8.413,8.4414,8.4615,8.4986,8.5407,8.5795,8.6385,8.7094,8.7517,8.8209,8.9393,8.9932,9.0278,9.0864,9.1171,9.1201,9.1201,9.1201,9.1201,9.1201,9.1201,9.1201,9.1201,9.1201,9.1201,9.1201,9.1201,9.1201,9.1201,9.1201,9.1201,9.1201,9.1201,9.1201,9.1201,9.1201,9.1201,9.1201,9.1201,9.1201,9.1201,9.1201,9.1201,9.1201,9.1201,9.1201,9.1201,9.1201,9.1201,9.1201,9.1201,9.1201,9.1201,9.1201,9.1201,9.1201,9.1201,9.1201,9.1201,9.1201,9.1201,9.1201,9.1201,9.1201,9.1201,9.1201,9.1201,9.1201,9.1201,9.1201,9.1201,9.1201,9.1201,9.1201,9.1201,9.1201,9.1201,9.1201,9.1201,9.1124,9.097,9.0893,9.1009,9.0941,9.0748,9.0825,9.0671,9.0941,9.0979,9.0633,9.0094,9.0017,8.9863,8.944,7.829,7.829,7.829,7.829,7.829,7.829,7.829,7.8327,7.8476,7.9293,8.0445,8.0914,8.1694,8.318,8.318,8.318,8.318,8.318,8.3195,8.3318,8.3447,8.3692,8.3962,8.418,8.4673,8.5082,8.5456,8.5874,8.644,8.7034,8.7517,8.8055,8.947,8.9893,9.0163,9.0586,9.1086,9.1124,9.1201,9.1201,9.1201,9.1201,9.1201,9.1201,9.1201,9.1201,9.1201,9.1201,9.1201,9.1201,9.1201,9.1201,9.1201,9.1201,9.1201,9.1201,9.1201,9.1201,9.1201,9.1201,9.1201,9.1201,9.1201,9.1201,9.1201,9.1201,9.1201,9.1201,9.1201,9.1201,9.1201,9.1201,9.1201,9.1201,9.1201,9.1201,9.1201,9.1201,9.1201,9.1201,9.1201,9.1201,9.1201,9.1201,9.1201,9.1201,9.1201,9.1201,9.1201,9.1201,9.1201,9.1201,9.1201,9.1201,9.1201,9.1201,9.1201,9.1201,9.1201,9.1201,9.1201,9.1201,9.1201,9.1201,9.1201,9.1047,9.1163,9.1201,9.1163,9.1086,9.1133,9.0941,9.0816,9.0663,9.0248]}]]